<?xml version='1.0' encoding='UTF-8'?><gpx version="1.1" creator="JPX - https://github.com/jenetics/jpx" xmlns="http://www.topografix.com/GPX/1/1"><trk><trkseg><trkpt lat="43.1544233" lon="10.5632733"><ele>20.0</ele><time>2026-04-09T11:10:07.904Z</time></trkpt><trkpt lat="43.1544083" lon="10.5633733"><ele>20.0</ele><time>2026-04-09T11:10:09.904Z</time></trkpt><trkpt lat="43.154385" lon="10.56354"><ele>20.0</ele><time>2026-04-09T11:10:11.904Z</time></trkpt><trkpt lat="43.1543683" lon="10.563665"><ele>20.0</ele><time>2026-04-09T11:10:12.904Z</time></trkpt><trkpt lat="43.1543533" lon="10.5638017"><ele>20.0</ele><time>2026-04-09T11:10:13.904Z</time></trkpt><trkpt lat="43.154335" lon="10.5639433"><ele>20.2</ele><time>2026-04-09T11:10:14.904Z</time></trkpt><trkpt lat="43.15432" lon="10.56409"><ele>20.4</ele><time>2026-04-09T11:10:15.904Z</time></trkpt><trkpt lat="43.1543083" lon="10.5642333"><ele>20.6</ele><time>2026-04-09T11:10:16.904Z</time></trkpt><trkpt lat="43.154295" lon="10.5643733"><ele>20.8</ele><time>2026-04-09T11:10:17.904Z</time></trkpt><trkpt lat="43.1542817" lon="10.5645033"><ele>21.0</ele><time>2026-04-09T11:10:18.904Z</time></trkpt><trkpt lat="43.1542667" lon="10.5646283"><ele>21.0</ele><time>2026-04-09T11:10:19.904Z</time></trkpt><trkpt lat="43.154255" lon="10.564755"><ele>21.0</ele><time>2026-04-09T11:10:20.904Z</time></trkpt><trkpt lat="43.15424" lon="10.5648833"><ele>21.0</ele><time>2026-04-09T11:10:21.904Z</time></trkpt><trkpt lat="43.1542267" lon="10.5650017"><ele>21.0</ele><time>2026-04-09T11:10:22.903Z</time></trkpt><trkpt lat="43.154215" lon="10.5651033"><ele>21.0</ele><time>2026-04-09T11:10:23.904Z</time></trkpt><trkpt lat="43.1542067" lon="10.56522"><ele>21.0</ele><time>2026-04-09T11:10:25.903Z</time></trkpt><trkpt lat="43.1541983" lon="10.5653217"><ele>21.200000000000003</ele><time>2026-04-09T11:10:38.904Z</time></trkpt><trkpt lat="43.1541883" lon="10.5654083"><ele>21.400000000000002</ele><time>2026-04-09T11:10:39.904Z</time></trkpt><trkpt lat="43.1541817" lon="10.565515"><ele>21.6</ele><time>2026-04-09T11:10:40.904Z</time></trkpt><trkpt lat="43.1541683" lon="10.5656583"><ele>21.8</ele><time>2026-04-09T11:10:41.904Z</time></trkpt><trkpt lat="43.1541483" lon="10.565835"><ele>22.0</ele><time>2026-04-09T11:10:42.904Z</time></trkpt><trkpt lat="43.1541267" lon="10.5660333"><ele>22.0</ele><time>2026-04-09T11:10:43.904Z</time></trkpt><trkpt lat="43.1540983" lon="10.56625"><ele>22.0</ele><time>2026-04-09T11:10:44.904Z</time></trkpt><trkpt lat="43.15407" lon="10.5664783"><ele>22.0</ele><time>2026-04-09T11:10:45.904Z</time></trkpt><trkpt lat="43.154045" lon="10.5666883"><ele>22.0</ele><time>2026-04-09T11:10:46.903Z</time></trkpt><trkpt lat="43.154025" lon="10.5668617"><ele>22.0</ele><time>2026-04-09T11:10:47.903Z</time></trkpt><trkpt lat="43.1540117" lon="10.567"><ele>22.0</ele><time>2026-04-09T11:10:48.904Z</time></trkpt><trkpt lat="43.1540033" lon="10.5671133"><ele>22.0</ele><time>2026-04-09T11:10:49.904Z</time></trkpt><trkpt lat="43.154015" lon="10.5672067"><ele>22.0</ele><time>2026-04-09T11:10:50.904Z</time></trkpt><trkpt lat="43.1540567" lon="10.5672933"><ele>22.25</ele><time>2026-04-09T11:10:51.904Z</time></trkpt><trkpt lat="43.1541333" lon="10.5673783"><ele>22.5</ele><time>2026-04-09T11:10:52.904Z</time></trkpt><trkpt lat="43.1542433" lon="10.567475"><ele>22.75</ele><time>2026-04-09T11:10:53.904Z</time></trkpt><trkpt lat="43.154365" lon="10.56759"><ele>23.0</ele><time>2026-04-09T11:10:54.904Z</time></trkpt><trkpt lat="43.1545" lon="10.5677233"><ele>23.0</ele><time>2026-04-09T11:10:55.903Z</time></trkpt><trkpt lat="43.15463" lon="10.5678583"><ele>23.0</ele><time>2026-04-09T11:10:56.904Z</time></trkpt><trkpt lat="43.1547667" lon="10.568005"><ele>23.0</ele><time>2026-04-09T11:10:57.903Z</time></trkpt><trkpt lat="43.154905" lon="10.568155"><ele>23.666666666666668</ele><time>2026-04-09T11:10:58.904Z</time></trkpt><trkpt lat="43.1550517" lon="10.5683117"><ele>24.333333333333336</ele><time>2026-04-09T11:10:59.904Z</time></trkpt><trkpt lat="43.1552033" lon="10.5684717"><ele>25.0</ele><time>2026-04-09T11:11:00.904Z</time></trkpt><trkpt lat="43.1553483" lon="10.5686333"><ele>25.0</ele><time>2026-04-09T11:11:01.904Z</time></trkpt><trkpt lat="43.1555" lon="10.56879"><ele>25.0</ele><time>2026-04-09T11:11:02.904Z</time></trkpt><trkpt lat="43.155655" lon="10.5689433"><ele>25.0</ele><time>2026-04-09T11:11:03.903Z</time></trkpt><trkpt lat="43.1558017" lon="10.5690933"><ele>24.666666666666668</ele><time>2026-04-09T11:11:04.904Z</time></trkpt><trkpt lat="43.155945" lon="10.569245"><ele>24.333333333333336</ele><time>2026-04-09T11:11:05.903Z</time></trkpt><trkpt lat="43.1560883" lon="10.5693933"><ele>24.0</ele><time>2026-04-09T11:11:06.904Z</time></trkpt><trkpt lat="43.1562317" lon="10.5695533"><ele>24.0</ele><time>2026-04-09T11:11:07.903Z</time></trkpt><trkpt lat="43.156375" lon="10.5697033"><ele>24.0</ele><time>2026-04-09T11:11:08.903Z</time></trkpt><trkpt lat="43.1565183" lon="10.569855"><ele>24.0</ele><time>2026-04-09T11:11:09.903Z</time></trkpt><trkpt lat="43.156655" lon="10.5700067"><ele>24.0</ele><time>2026-04-09T11:11:10.903Z</time></trkpt><trkpt lat="43.1567983" lon="10.57015"><ele>24.0</ele><time>2026-04-09T11:11:11.904Z</time></trkpt><trkpt lat="43.1569383" lon="10.5702917"><ele>24.0</ele><time>2026-04-09T11:11:12.904Z</time></trkpt><trkpt lat="43.157075" lon="10.5704383"><ele>24.333333333333336</ele><time>2026-04-09T11:11:13.903Z</time></trkpt><trkpt lat="43.157215" lon="10.570585"><ele>24.666666666666668</ele><time>2026-04-09T11:11:14.903Z</time></trkpt><trkpt lat="43.1573633" lon="10.57074"><ele>25.0</ele><time>2026-04-09T11:11:15.903Z</time></trkpt><trkpt lat="43.1575167" lon="10.5708967"><ele>25.0</ele><time>2026-04-09T11:11:16.904Z</time></trkpt><trkpt lat="43.1576767" lon="10.571055"><ele>25.0</ele><time>2026-04-09T11:11:17.904Z</time></trkpt><trkpt lat="43.15784" lon="10.5712217"><ele>25.0</ele><time>2026-04-09T11:11:18.904Z</time></trkpt><trkpt lat="43.1579983" lon="10.5713833"><ele>25.0</ele><time>2026-04-09T11:11:19.904Z</time></trkpt><trkpt lat="43.1581517" lon="10.5715433"><ele>25.0</ele><time>2026-04-09T11:11:20.904Z</time></trkpt><trkpt lat="43.158295" lon="10.5717"><ele>25.0</ele><time>2026-04-09T11:11:21.903Z</time></trkpt><trkpt lat="43.1584267" lon="10.5718433"><ele>25.5</ele><time>2026-04-09T11:11:22.903Z</time></trkpt><trkpt lat="43.1585533" lon="10.5719733"><ele>26.0</ele><time>2026-04-09T11:11:23.904Z</time></trkpt><trkpt lat="43.15867" lon="10.5721017"><ele>26.5</ele><time>2026-04-09T11:11:24.904Z</time></trkpt><trkpt lat="43.1587817" lon="10.5722167"><ele>27.0</ele><time>2026-04-09T11:11:25.904Z</time></trkpt><trkpt lat="43.1588883" lon="10.5723267"><ele>27.0</ele><time>2026-04-09T11:11:26.904Z</time></trkpt><trkpt lat="43.1589867" lon="10.5724317"><ele>27.000000000000004</ele><time>2026-04-09T11:11:27.904Z</time></trkpt><trkpt lat="43.1590733" lon="10.57252"><ele>27.000000000000004</ele><time>2026-04-09T11:11:28.904Z</time></trkpt><trkpt lat="43.15915" lon="10.5725983"><ele>27.0</ele><time>2026-04-09T11:11:29.903Z</time></trkpt><trkpt lat="43.1592117" lon="10.5726583"><ele>27.0</ele><time>2026-04-09T11:11:30.904Z</time></trkpt><trkpt lat="43.1592733" lon="10.5727317"><ele>27.200000000000003</ele><time>2026-04-09T11:11:32.904Z</time></trkpt><trkpt lat="43.1593633" lon="10.5728317"><ele>27.400000000000002</ele><time>2026-04-09T11:11:35.903Z</time></trkpt><trkpt lat="43.1594217" lon="10.572895"><ele>27.599999999999998</ele><time>2026-04-09T11:11:36.904Z</time></trkpt><trkpt lat="43.1595017" lon="10.5729783"><ele>27.799999999999997</ele><time>2026-04-09T11:11:37.904Z</time></trkpt><trkpt lat="43.1596" lon="10.5730767"><ele>28.0</ele><time>2026-04-09T11:11:38.903Z</time></trkpt><trkpt lat="43.1597067" lon="10.5731867"><ele>28.0</ele><time>2026-04-09T11:11:39.904Z</time></trkpt><trkpt lat="43.159825" lon="10.5733017"><ele>28.0</ele><time>2026-04-09T11:11:40.904Z</time></trkpt><trkpt lat="43.1599417" lon="10.573415"><ele>28.0</ele><time>2026-04-09T11:11:41.904Z</time></trkpt><trkpt lat="43.160055" lon="10.5735267"><ele>28.0</ele><time>2026-04-09T11:11:42.903Z</time></trkpt><trkpt lat="43.1601567" lon="10.5736383"><ele>28.5</ele><time>2026-04-09T11:11:43.903Z</time></trkpt><trkpt lat="43.1602633" lon="10.573745"><ele>29.0</ele><time>2026-04-09T11:11:44.904Z</time></trkpt><trkpt lat="43.1603733" lon="10.5738533"><ele>29.5</ele><time>2026-04-09T11:11:45.904Z</time></trkpt><trkpt lat="43.1604883" lon="10.5739683"><ele>30.0</ele><time>2026-04-09T11:11:46.904Z</time></trkpt><trkpt lat="43.1605933" lon="10.57408"><ele>29.666666666666664</ele><time>2026-04-09T11:11:47.903Z</time></trkpt><trkpt lat="43.1607133" lon="10.5742033"><ele>29.333333333333332</ele><time>2026-04-09T11:11:48.904Z</time></trkpt><trkpt lat="43.1608417" lon="10.57434"><ele>29.0</ele><time>2026-04-09T11:11:49.903Z</time></trkpt><trkpt lat="43.16098" lon="10.57449"><ele>29.0</ele><time>2026-04-09T11:11:50.903Z</time></trkpt><trkpt lat="43.1611283" lon="10.5746517"><ele>29.0</ele><time>2026-04-09T11:11:51.903Z</time></trkpt><trkpt lat="43.1612817" lon="10.574815"><ele>29.0</ele><time>2026-04-09T11:11:52.904Z</time></trkpt><trkpt lat="43.1614417" lon="10.5749833"><ele>29.333333333333332</ele><time>2026-04-09T11:11:53.903Z</time></trkpt><trkpt lat="43.1616033" lon="10.57515"><ele>29.666666666666664</ele><time>2026-04-09T11:11:54.904Z</time></trkpt><trkpt lat="43.16176" lon="10.5753167"><ele>30.0</ele><time>2026-04-09T11:11:55.903Z</time></trkpt><trkpt lat="43.161905" lon="10.5754733"><ele>30.333333333333336</ele><time>2026-04-09T11:11:56.903Z</time></trkpt><trkpt lat="43.1620483" lon="10.575625"><ele>30.666666666666668</ele><time>2026-04-09T11:11:57.904Z</time></trkpt><trkpt lat="43.1621883" lon="10.5757683"><ele>31.0</ele><time>2026-04-09T11:11:58.904Z</time></trkpt><trkpt lat="43.162315" lon="10.575895"><ele>31.0</ele><time>2026-04-09T11:11:59.903Z</time></trkpt><trkpt lat="43.1624383" lon="10.5760133"><ele>31.0</ele><time>2026-04-09T11:12:00.904Z</time></trkpt><trkpt lat="43.1625617" lon="10.5761417"><ele>31.0</ele><time>2026-04-09T11:12:01.903Z</time></trkpt><trkpt lat="43.16269" lon="10.5762833"><ele>30.666666666666668</ele><time>2026-04-09T11:12:02.904Z</time></trkpt><trkpt lat="43.162825" lon="10.57643"><ele>30.333333333333336</ele><time>2026-04-09T11:12:03.904Z</time></trkpt><trkpt lat="43.1629633" lon="10.57658"><ele>30.0</ele><time>2026-04-09T11:12:04.904Z</time></trkpt><trkpt lat="43.16311" lon="10.576735"><ele>30.333333333333336</ele><time>2026-04-09T11:12:05.904Z</time></trkpt><trkpt lat="43.1632617" lon="10.5768917"><ele>30.666666666666668</ele><time>2026-04-09T11:12:06.904Z</time></trkpt><trkpt lat="43.16342" lon="10.5770583"><ele>31.0</ele><time>2026-04-09T11:12:07.904Z</time></trkpt><trkpt lat="43.1635783" lon="10.577225"><ele>31.0</ele><time>2026-04-09T11:12:08.904Z</time></trkpt><trkpt lat="43.1637367" lon="10.5773833"><ele>31.0</ele><time>2026-04-09T11:12:09.904Z</time></trkpt><trkpt lat="43.1638933" lon="10.5775533"><ele>31.0</ele><time>2026-04-09T11:12:10.903Z</time></trkpt><trkpt lat="43.1640567" lon="10.57773"><ele>30.666666666666668</ele><time>2026-04-09T11:12:11.903Z</time></trkpt><trkpt lat="43.164215" lon="10.57789"><ele>30.333333333333336</ele><time>2026-04-09T11:12:12.904Z</time></trkpt><trkpt lat="43.1643667" lon="10.5780417"><ele>30.0</ele><time>2026-04-09T11:12:13.904Z</time></trkpt><trkpt lat="43.164525" lon="10.5782067"><ele>30.0</ele><time>2026-04-09T11:12:14.904Z</time></trkpt><trkpt lat="43.16468" lon="10.5783717"><ele>30.0</ele><time>2026-04-09T11:12:15.904Z</time></trkpt><trkpt lat="43.1648383" lon="10.5785333"><ele>30.0</ele><time>2026-04-09T11:12:16.904Z</time></trkpt><trkpt lat="43.1649933" lon="10.5786917"><ele>30.666666666666664</ele><time>2026-04-09T11:12:17.904Z</time></trkpt><trkpt lat="43.1651517" lon="10.5788517"><ele>31.333333333333332</ele><time>2026-04-09T11:12:18.904Z</time></trkpt><trkpt lat="43.165305" lon="10.5790167"><ele>32.0</ele><time>2026-04-09T11:12:19.904Z</time></trkpt><trkpt lat="43.1654633" lon="10.57918"><ele>32.0</ele><time>2026-04-09T11:12:20.904Z</time></trkpt><trkpt lat="43.1656167" lon="10.57935"><ele>32.0</ele><time>2026-04-09T11:12:21.904Z</time></trkpt><trkpt lat="43.165775" lon="10.5795117"><ele>32.0</ele><time>2026-04-09T11:12:22.904Z</time></trkpt><trkpt lat="43.1659217" lon="10.5796633"><ele>33.33333333333333</ele><time>2026-04-09T11:12:23.903Z</time></trkpt><trkpt lat="43.1660667" lon="10.5798167"><ele>34.666666666666664</ele><time>2026-04-09T11:12:24.903Z</time></trkpt><trkpt lat="43.16621" lon="10.5799667"><ele>36.0</ele><time>2026-04-09T11:12:25.904Z</time></trkpt><trkpt lat="43.1663433" lon="10.5801067"><ele>36.0</ele><time>2026-04-09T11:12:26.903Z</time></trkpt><trkpt lat="43.166465" lon="10.580235"><ele>36.0</ele><time>2026-04-09T11:12:27.904Z</time></trkpt><trkpt lat="43.1665783" lon="10.58036"><ele>36.0</ele><time>2026-04-09T11:12:28.903Z</time></trkpt><trkpt lat="43.1666867" lon="10.5804867"><ele>36.0</ele><time>2026-04-09T11:12:29.903Z</time></trkpt><trkpt lat="43.1667917" lon="10.58062"><ele>35.5</ele><time>2026-04-09T11:12:30.904Z</time></trkpt><trkpt lat="43.166895" lon="10.5807417"><ele>35.0</ele><time>2026-04-09T11:12:31.904Z</time></trkpt><trkpt lat="43.1670033" lon="10.5808617"><ele>34.5</ele><time>2026-04-09T11:12:32.904Z</time></trkpt><trkpt lat="43.16711" lon="10.5809667"><ele>34.0</ele><time>2026-04-09T11:12:33.904Z</time></trkpt><trkpt lat="43.1672267" lon="10.5810833"><ele>34.0</ele><time>2026-04-09T11:12:34.904Z</time></trkpt><trkpt lat="43.1673467" lon="10.5812017"><ele>34.0</ele><time>2026-04-09T11:12:35.904Z</time></trkpt><trkpt lat="43.1674733" lon="10.58132"><ele>34.0</ele><time>2026-04-09T11:12:36.904Z</time></trkpt><trkpt lat="43.1676017" lon="10.5814417"><ele>34.0</ele><time>2026-04-09T11:12:37.904Z</time></trkpt><trkpt lat="43.1677367" lon="10.5815633"><ele>34.0</ele><time>2026-04-09T11:12:38.904Z</time></trkpt><trkpt lat="43.16787" lon="10.5816917"><ele>34.0</ele><time>2026-04-09T11:12:39.904Z</time></trkpt><trkpt lat="43.1680067" lon="10.58182"><ele>34.0</ele><time>2026-04-09T11:12:40.904Z</time></trkpt><trkpt lat="43.16814" lon="10.5819483"><ele>34.0</ele><time>2026-04-09T11:12:41.903Z</time></trkpt><trkpt lat="43.16827" lon="10.58208"><ele>34.0</ele><time>2026-04-09T11:12:42.904Z</time></trkpt><trkpt lat="43.1683917" lon="10.582205"><ele>35.0</ele><time>2026-04-09T11:12:43.904Z</time></trkpt><trkpt lat="43.1685067" lon="10.5823233"><ele>36.0</ele><time>2026-04-09T11:12:44.903Z</time></trkpt><trkpt lat="43.1686083" lon="10.5824317"><ele>37.0</ele><time>2026-04-09T11:12:45.904Z</time></trkpt><trkpt lat="43.1686933" lon="10.5825217"><ele>38.0</ele><time>2026-04-09T11:12:46.904Z</time></trkpt><trkpt lat="43.16877" lon="10.5825983"><ele>38.0</ele><time>2026-04-09T11:12:47.904Z</time></trkpt><trkpt lat="43.168825" lon="10.582655"><ele>38.0</ele><time>2026-04-09T11:12:48.904Z</time></trkpt><trkpt lat="43.168875" lon="10.5827667"><ele>38.0</ele><time>2026-04-09T11:12:50.903Z</time></trkpt><trkpt lat="43.1688817" lon="10.582855"><ele>38.0</ele><time>2026-04-09T11:12:51.904Z</time></trkpt><trkpt lat="43.1688667" lon="10.582965"><ele>38.0</ele><time>2026-04-09T11:12:52.904Z</time></trkpt><trkpt lat="43.168845" lon="10.5831083"><ele>38.0</ele><time>2026-04-09T11:12:53.903Z</time></trkpt><trkpt lat="43.16882" lon="10.5832667"><ele>37.33333333333333</ele><time>2026-04-09T11:12:54.904Z</time></trkpt><trkpt lat="43.1687967" lon="10.583445"><ele>36.666666666666664</ele><time>2026-04-09T11:12:55.904Z</time></trkpt><trkpt lat="43.1687717" lon="10.5836517"><ele>36.0</ele><time>2026-04-09T11:12:56.904Z</time></trkpt><trkpt lat="43.1687483" lon="10.5838767"><ele>36.0</ele><time>2026-04-09T11:12:57.904Z</time></trkpt><trkpt lat="43.168725" lon="10.5841133"><ele>36.0</ele><time>2026-04-09T11:12:58.903Z</time></trkpt><trkpt lat="43.1686917" lon="10.5843617"><ele>36.0</ele><time>2026-04-09T11:12:59.904Z</time></trkpt><trkpt lat="43.16866" lon="10.5846267"><ele>36.0</ele><time>2026-04-09T11:13:00.904Z</time></trkpt><trkpt lat="43.1686267" lon="10.5849133"><ele>36.0</ele><time>2026-04-09T11:13:01.903Z</time></trkpt><trkpt lat="43.1685883" lon="10.5852"><ele>36.0</ele><time>2026-04-09T11:13:02.903Z</time></trkpt><trkpt lat="43.1685533" lon="10.5854983"><ele>36.0</ele><time>2026-04-09T11:13:03.903Z</time></trkpt><trkpt lat="43.1685183" lon="10.585815"><ele>36.0</ele><time>2026-04-09T11:13:04.904Z</time></trkpt><trkpt lat="43.1684817" lon="10.5861333"><ele>36.5</ele><time>2026-04-09T11:13:05.904Z</time></trkpt><trkpt lat="43.1684483" lon="10.5864567"><ele>37.0</ele><time>2026-04-09T11:13:06.903Z</time></trkpt><trkpt lat="43.1684117" lon="10.58678"><ele>37.5</ele><time>2026-04-09T11:13:07.904Z</time></trkpt><trkpt lat="43.1683783" lon="10.5871033"><ele>38.0</ele><time>2026-04-09T11:13:08.904Z</time></trkpt><trkpt lat="43.16834" lon="10.587435"><ele>38.0</ele><time>2026-04-09T11:13:09.904Z</time></trkpt><trkpt lat="43.1683033" lon="10.5877667"><ele>38.0</ele><time>2026-04-09T11:13:10.904Z</time></trkpt><trkpt lat="43.1682683" lon="10.58808"><ele>38.0</ele><time>2026-04-09T11:13:11.903Z</time></trkpt><trkpt lat="43.1682217" lon="10.5883617"><ele>38.0</ele><time>2026-04-09T11:13:12.904Z</time></trkpt><trkpt lat="43.1681633" lon="10.5886267"><ele>38.0</ele><time>2026-04-09T11:13:13.903Z</time></trkpt><trkpt lat="43.1680733" lon="10.58887"><ele>38.0</ele><time>2026-04-09T11:13:14.904Z</time></trkpt><trkpt lat="43.167945" lon="10.5891083"><ele>38.0</ele><time>2026-04-09T11:13:15.904Z</time></trkpt><trkpt lat="43.16781" lon="10.5893483"><ele>38.0</ele><time>2026-04-09T11:13:16.904Z</time></trkpt><trkpt lat="43.167695" lon="10.5896217"><ele>38.0</ele><time>2026-04-09T11:13:17.903Z</time></trkpt><trkpt lat="43.167595" lon="10.5899183"><ele>38.0</ele><time>2026-04-09T11:13:18.904Z</time></trkpt><trkpt lat="43.1674983" lon="10.590235"><ele>38.0</ele><time>2026-04-09T11:13:19.904Z</time></trkpt><trkpt lat="43.1673933" lon="10.5905617"><ele>38.0</ele><time>2026-04-09T11:13:20.904Z</time></trkpt><trkpt lat="43.167295" lon="10.5909017"><ele>39.5</ele><time>2026-04-09T11:13:21.904Z</time></trkpt><trkpt lat="43.167195" lon="10.5912483"><ele>41.0</ele><time>2026-04-09T11:13:22.904Z</time></trkpt><trkpt lat="43.1670967" lon="10.59159"><ele>41.0</ele><time>2026-04-09T11:13:23.904Z</time></trkpt><trkpt lat="43.1669967" lon="10.59191"><ele>41.0</ele><time>2026-04-09T11:13:24.904Z</time></trkpt><trkpt lat="43.1669067" lon="10.5922183"><ele>41.0</ele><time>2026-04-09T11:13:25.904Z</time></trkpt><trkpt lat="43.16684" lon="10.5925083"><ele>41.0</ele><time>2026-04-09T11:13:26.903Z</time></trkpt><trkpt lat="43.1667933" lon="10.5928117"><ele>41.0</ele><time>2026-04-09T11:13:27.903Z</time></trkpt><trkpt lat="43.16676" lon="10.5931133"><ele>41.0</ele><time>2026-04-09T11:13:28.904Z</time></trkpt><trkpt lat="43.1667183" lon="10.59342"><ele>41.0</ele><time>2026-04-09T11:13:29.904Z</time></trkpt><trkpt lat="43.1666867" lon="10.5937317"><ele>40.5</ele><time>2026-04-09T11:13:30.904Z</time></trkpt><trkpt lat="43.1666717" lon="10.5940433"><ele>40.0</ele><time>2026-04-09T11:13:31.903Z</time></trkpt><trkpt lat="43.166675" lon="10.5943617"><ele>40.5</ele><time>2026-04-09T11:13:32.904Z</time></trkpt><trkpt lat="43.1667033" lon="10.594675"><ele>41.0</ele><time>2026-04-09T11:13:33.904Z</time></trkpt><trkpt lat="43.16673" lon="10.5949833"><ele>41.0</ele><time>2026-04-09T11:13:34.903Z</time></trkpt><trkpt lat="43.1667383" lon="10.5952667"><ele>41.0</ele><time>2026-04-09T11:13:35.904Z</time></trkpt><trkpt lat="43.1667117" lon="10.5955317"><ele>41.0</ele><time>2026-04-09T11:13:36.903Z</time></trkpt><trkpt lat="43.1666467" lon="10.595795"><ele>41.666666666666664</ele><time>2026-04-09T11:13:37.904Z</time></trkpt><trkpt lat="43.1665417" lon="10.59605"><ele>42.333333333333336</ele><time>2026-04-09T11:13:38.903Z</time></trkpt><trkpt lat="43.1664067" lon="10.5962933"><ele>43.0</ele><time>2026-04-09T11:13:39.904Z</time></trkpt><trkpt lat="43.1662467" lon="10.5965417"><ele>43.5</ele><time>2026-04-09T11:13:40.903Z</time></trkpt><trkpt lat="43.1660783" lon="10.596795"><ele>44.0</ele><time>2026-04-09T11:13:41.904Z</time></trkpt><trkpt lat="43.1659017" lon="10.597055"><ele>44.0</ele><time>2026-04-09T11:13:42.904Z</time></trkpt><trkpt lat="43.1657133" lon="10.5973283"><ele>44.0</ele><time>2026-04-09T11:13:43.904Z</time></trkpt><trkpt lat="43.1655217" lon="10.59761"><ele>45.0</ele><time>2026-04-09T11:13:44.904Z</time></trkpt><trkpt lat="43.1653383" lon="10.597875"><ele>46.0</ele><time>2026-04-09T11:13:45.903Z</time></trkpt><trkpt lat="43.1651717" lon="10.5981233"><ele>46.0</ele><time>2026-04-09T11:13:46.904Z</time></trkpt><trkpt lat="43.1650267" lon="10.5983433"><ele>46.0</ele><time>2026-04-09T11:13:47.903Z</time></trkpt><trkpt lat="43.1648933" lon="10.5985267"><ele>46.0</ele><time>2026-04-09T11:13:48.904Z</time></trkpt><trkpt lat="43.1647733" lon="10.598685"><ele>46.75</ele><time>2026-04-09T11:13:49.903Z</time></trkpt><trkpt lat="43.1646633" lon="10.5988217"><ele>47.5</ele><time>2026-04-09T11:13:50.903Z</time></trkpt><trkpt lat="43.1645733" lon="10.5989367"><ele>48.25</ele><time>2026-04-09T11:13:51.904Z</time></trkpt><trkpt lat="43.1645017" lon="10.599025"><ele>49.0</ele><time>2026-04-09T11:13:52.904Z</time></trkpt><trkpt lat="43.16444" lon="10.5991017"><ele>49.0</ele><time>2026-04-09T11:13:53.904Z</time></trkpt><trkpt lat="43.1644" lon="10.5991717"><ele>49.0</ele><time>2026-04-09T11:13:54.904Z</time></trkpt><trkpt lat="43.16439" lon="10.5992733"><ele>49.0</ele><time>2026-04-09T11:13:55.903Z</time></trkpt><trkpt lat="43.1644217" lon="10.599395"><ele>49.0</ele><time>2026-04-09T11:13:56.904Z</time></trkpt><trkpt lat="43.1644833" lon="10.599525"><ele>49.0</ele><time>2026-04-09T11:13:57.904Z</time></trkpt><trkpt lat="43.16456" lon="10.599665"><ele>49.5</ele><time>2026-04-09T11:13:58.904Z</time></trkpt><trkpt lat="43.1646283" lon="10.599835"><ele>50.0</ele><time>2026-04-09T11:13:59.904Z</time></trkpt><trkpt lat="43.1646817" lon="10.6000183"><ele>50.5</ele><time>2026-04-09T11:14:00.903Z</time></trkpt><trkpt lat="43.1647333" lon="10.6002083"><ele>51.0</ele><time>2026-04-09T11:14:01.904Z</time></trkpt><trkpt lat="43.164785" lon="10.600405"><ele>50.33333333333333</ele><time>2026-04-09T11:14:02.904Z</time></trkpt><trkpt lat="43.16484" lon="10.60061"><ele>49.666666666666664</ele><time>2026-04-09T11:14:03.904Z</time></trkpt><trkpt lat="43.1648933" lon="10.6008283"><ele>49.0</ele><time>2026-04-09T11:14:04.904Z</time></trkpt><trkpt lat="43.16495" lon="10.601045"><ele>50.0</ele><time>2026-04-09T11:14:05.904Z</time></trkpt><trkpt lat="43.1650133" lon="10.6012733"><ele>51.0</ele><time>2026-04-09T11:14:06.904Z</time></trkpt><trkpt lat="43.1650783" lon="10.601505"><ele>52.0</ele><time>2026-04-09T11:14:07.903Z</time></trkpt><trkpt lat="43.1651383" lon="10.6017383"><ele>52.0</ele><time>2026-04-09T11:14:08.903Z</time></trkpt><trkpt lat="43.1652017" lon="10.601975"><ele>52.0</ele><time>2026-04-09T11:14:09.904Z</time></trkpt><trkpt lat="43.1652683" lon="10.6022183"><ele>52.0</ele><time>2026-04-09T11:14:10.904Z</time></trkpt><trkpt lat="43.1653233" lon="10.602435"><ele>53.33333333333333</ele><time>2026-04-09T11:14:11.904Z</time></trkpt><trkpt lat="43.1653717" lon="10.6026383"><ele>54.66666666666667</ele><time>2026-04-09T11:14:12.903Z</time></trkpt><trkpt lat="43.16545" lon="10.6028267"><ele>56.0</ele><time>2026-04-09T11:14:13.903Z</time></trkpt><trkpt lat="43.16555" lon="10.6030017"><ele>56.66666666666667</ele><time>2026-04-09T11:14:14.903Z</time></trkpt><trkpt lat="43.16567" lon="10.6031633"><ele>57.33333333333333</ele><time>2026-04-09T11:14:15.903Z</time></trkpt><trkpt lat="43.1658167" lon="10.6033217"><ele>58.0</ele><time>2026-04-09T11:14:16.904Z</time></trkpt><trkpt lat="43.16597" lon="10.60348"><ele>56.666666666666664</ele><time>2026-04-09T11:14:17.904Z</time></trkpt><trkpt lat="43.1661233" lon="10.6036433"><ele>55.33333333333333</ele><time>2026-04-09T11:14:18.904Z</time></trkpt><trkpt lat="43.166285" lon="10.6038117"><ele>54.0</ele><time>2026-04-09T11:14:19.904Z</time></trkpt><trkpt lat="43.16645" lon="10.60399"><ele>53.66666666666667</ele><time>2026-04-09T11:14:20.904Z</time></trkpt><trkpt lat="43.1666183" lon="10.6041717"><ele>53.333333333333336</ele><time>2026-04-09T11:14:21.904Z</time></trkpt><trkpt lat="43.1667933" lon="10.6043583"><ele>53.0</ele><time>2026-04-09T11:14:22.903Z</time></trkpt><trkpt lat="43.1669633" lon="10.6045517"><ele>53.0</ele><time>2026-04-09T11:14:23.904Z</time></trkpt><trkpt lat="43.1671333" lon="10.60475"><ele>53.0</ele><time>2026-04-09T11:14:24.904Z</time></trkpt><trkpt lat="43.1673033" lon="10.6049517"><ele>53.0</ele><time>2026-04-09T11:14:25.904Z</time></trkpt><trkpt lat="43.1674617" lon="10.605155"><ele>52.66666666666667</ele><time>2026-04-09T11:14:26.904Z</time></trkpt><trkpt lat="43.1676183" lon="10.605365"><ele>52.33333333333333</ele><time>2026-04-09T11:14:27.904Z</time></trkpt><trkpt lat="43.1677733" lon="10.6055767"><ele>52.0</ele><time>2026-04-09T11:14:28.904Z</time></trkpt><trkpt lat="43.1679383" lon="10.60579"><ele>52.0</ele><time>2026-04-09T11:14:29.903Z</time></trkpt><trkpt lat="43.1680967" lon="10.6060067"><ele>52.0</ele><time>2026-04-09T11:14:30.904Z</time></trkpt><trkpt lat="43.168265" lon="10.6062183"><ele>53.0</ele><time>2026-04-09T11:14:31.903Z</time></trkpt><trkpt lat="43.1684433" lon="10.6064167"><ele>54.0</ele><time>2026-04-09T11:14:32.903Z</time></trkpt><trkpt lat="43.1686217" lon="10.6066167"><ele>54.0</ele><time>2026-04-09T11:14:33.904Z</time></trkpt><trkpt lat="43.1688033" lon="10.6068133"><ele>54.0</ele><time>2026-04-09T11:14:34.904Z</time></trkpt><trkpt lat="43.1689817" lon="10.6070067"><ele>55.0</ele><time>2026-04-09T11:14:35.904Z</time></trkpt><trkpt lat="43.1691667" lon="10.607195"><ele>56.0</ele><time>2026-04-09T11:14:36.904Z</time></trkpt><trkpt lat="43.16935" lon="10.6073883"><ele>56.0</ele><time>2026-04-09T11:14:37.904Z</time></trkpt><trkpt lat="43.16952" lon="10.6075683"><ele>56.0</ele><time>2026-04-09T11:14:38.904Z</time></trkpt><trkpt lat="43.16968" lon="10.60774"><ele>56.0</ele><time>2026-04-09T11:14:39.904Z</time></trkpt><trkpt lat="43.1698417" lon="10.607905"><ele>55.0</ele><time>2026-04-09T11:14:40.904Z</time></trkpt><trkpt lat="43.1700083" lon="10.6080633"><ele>54.0</ele><time>2026-04-09T11:14:41.903Z</time></trkpt><trkpt lat="43.1701933" lon="10.6082017"><ele>53.0</ele><time>2026-04-09T11:14:42.903Z</time></trkpt><trkpt lat="43.1703867" lon="10.6083217"><ele>53.0</ele><time>2026-04-09T11:14:43.904Z</time></trkpt><trkpt lat="43.1705817" lon="10.6084417"><ele>53.0</ele><time>2026-04-09T11:14:44.904Z</time></trkpt><trkpt lat="43.1707833" lon="10.608555"><ele>53.0</ele><time>2026-04-09T11:14:45.903Z</time></trkpt><trkpt lat="43.1709833" lon="10.6086717"><ele>53.333333333333336</ele><time>2026-04-09T11:14:46.904Z</time></trkpt><trkpt lat="43.17119" lon="10.608785"><ele>53.66666666666667</ele><time>2026-04-09T11:14:47.904Z</time></trkpt><trkpt lat="43.171395" lon="10.6089067"><ele>54.0</ele><time>2026-04-09T11:14:48.904Z</time></trkpt><trkpt lat="43.1716083" lon="10.6090233"><ele>54.0</ele><time>2026-04-09T11:14:49.904Z</time></trkpt><trkpt lat="43.1718217" lon="10.6091383"><ele>54.0</ele><time>2026-04-09T11:14:50.903Z</time></trkpt><trkpt lat="43.1720367" lon="10.6092733"><ele>54.0</ele><time>2026-04-09T11:14:51.904Z</time></trkpt><trkpt lat="43.1722567" lon="10.6093967"><ele>54.0</ele><time>2026-04-09T11:14:52.904Z</time></trkpt><trkpt lat="43.1724817" lon="10.6095283"><ele>52.5</ele><time>2026-04-09T11:14:53.904Z</time></trkpt><trkpt lat="43.1727067" lon="10.6096583"><ele>51.0</ele><time>2026-04-09T11:14:54.903Z</time></trkpt><trkpt lat="43.1729367" lon="10.6097883"><ele>51.0</ele><time>2026-04-09T11:14:55.904Z</time></trkpt><trkpt lat="43.173165" lon="10.6099133"><ele>51.0</ele><time>2026-04-09T11:14:56.904Z</time></trkpt><trkpt lat="43.17339" lon="10.61005"><ele>50.0</ele><time>2026-04-09T11:14:57.904Z</time></trkpt><trkpt lat="43.173615" lon="10.6101767"><ele>49.0</ele><time>2026-04-09T11:14:58.904Z</time></trkpt><trkpt lat="43.173835" lon="10.6103"><ele>50.0</ele><time>2026-04-09T11:14:59.903Z</time></trkpt><trkpt lat="43.1740533" lon="10.6104067"><ele>51.0</ele><time>2026-04-09T11:15:00.904Z</time></trkpt><trkpt lat="43.1742667" lon="10.61049"><ele>51.0</ele><time>2026-04-09T11:15:01.903Z</time></trkpt><trkpt lat="43.17448" lon="10.610565"><ele>51.0</ele><time>2026-04-09T11:15:02.904Z</time></trkpt><trkpt lat="43.1747" lon="10.61062"><ele>51.0</ele><time>2026-04-09T11:15:03.904Z</time></trkpt><trkpt lat="43.174925" lon="10.6106617"><ele>49.5</ele><time>2026-04-09T11:15:04.903Z</time></trkpt><trkpt lat="43.1751583" lon="10.6107067"><ele>48.0</ele><time>2026-04-09T11:15:05.904Z</time></trkpt><trkpt lat="43.1753967" lon="10.610755"><ele>48.0</ele><time>2026-04-09T11:15:06.904Z</time></trkpt><trkpt lat="43.1756417" lon="10.6108033"><ele>48.0</ele><time>2026-04-09T11:15:07.904Z</time></trkpt><trkpt lat="43.1758867" lon="10.6108483"><ele>47.5</ele><time>2026-04-09T11:15:08.904Z</time></trkpt><trkpt lat="43.17613" lon="10.6109"><ele>47.0</ele><time>2026-04-09T11:15:09.903Z</time></trkpt><trkpt lat="43.176375" lon="10.6109533"><ele>45.5</ele><time>2026-04-09T11:15:10.904Z</time></trkpt><trkpt lat="43.176615" lon="10.6109967"><ele>44.0</ele><time>2026-04-09T11:15:11.904Z</time></trkpt><trkpt lat="43.1768583" lon="10.61105"><ele>44.0</ele><time>2026-04-09T11:15:12.904Z</time></trkpt><trkpt lat="43.1771067" lon="10.6110917"><ele>44.0</ele><time>2026-04-09T11:15:13.904Z</time></trkpt><trkpt lat="43.1773533" lon="10.6111467"><ele>45.0</ele><time>2026-04-09T11:15:14.903Z</time></trkpt><trkpt lat="43.1776017" lon="10.6111967"><ele>46.0</ele><time>2026-04-09T11:15:15.903Z</time></trkpt><trkpt lat="43.1778533" lon="10.6112417"><ele>46.0</ele><time>2026-04-09T11:15:16.904Z</time></trkpt><trkpt lat="43.1780917" lon="10.61129"><ele>46.0</ele><time>2026-04-09T11:15:17.903Z</time></trkpt><trkpt lat="43.1783267" lon="10.6113367"><ele>45.5</ele><time>2026-04-09T11:15:18.903Z</time></trkpt><trkpt lat="43.178565" lon="10.6113917"><ele>45.0</ele><time>2026-04-09T11:15:19.903Z</time></trkpt><trkpt lat="43.1787983" lon="10.61144"><ele>45.0</ele><time>2026-04-09T11:15:20.903Z</time></trkpt><trkpt lat="43.17904" lon="10.611485"><ele>45.0</ele><time>2026-04-09T11:15:21.903Z</time></trkpt><trkpt lat="43.1792767" lon="10.6115267"><ele>45.0</ele><time>2026-04-09T11:15:22.904Z</time></trkpt><trkpt lat="43.179515" lon="10.61157"><ele>45.0</ele><time>2026-04-09T11:15:23.904Z</time></trkpt><trkpt lat="43.1797583" lon="10.6116267"><ele>43.0</ele><time>2026-04-09T11:15:24.904Z</time></trkpt><trkpt lat="43.1799967" lon="10.611675"><ele>41.0</ele><time>2026-04-09T11:15:25.903Z</time></trkpt><trkpt lat="43.1802383" lon="10.6117167"><ele>41.0</ele><time>2026-04-09T11:15:26.903Z</time></trkpt><trkpt lat="43.1804783" lon="10.6117667"><ele>41.0</ele><time>2026-04-09T11:15:27.904Z</time></trkpt><trkpt lat="43.1807167" lon="10.61182"><ele>39.5</ele><time>2026-04-09T11:15:28.904Z</time></trkpt><trkpt lat="43.1809617" lon="10.611865"><ele>38.0</ele><time>2026-04-09T11:15:29.903Z</time></trkpt><trkpt lat="43.1812083" lon="10.6119133"><ele>38.0</ele><time>2026-04-09T11:15:30.903Z</time></trkpt><trkpt lat="43.181455" lon="10.6119617"><ele>38.0</ele><time>2026-04-09T11:15:31.903Z</time></trkpt><trkpt lat="43.181705" lon="10.6120167"><ele>38.5</ele><time>2026-04-09T11:15:32.904Z</time></trkpt><trkpt lat="43.18196" lon="10.61207"><ele>39.0</ele><time>2026-04-09T11:15:33.903Z</time></trkpt><trkpt lat="43.182215" lon="10.612115"><ele>38.0</ele><time>2026-04-09T11:15:34.903Z</time></trkpt><trkpt lat="43.1824683" lon="10.6121633"><ele>37.0</ele><time>2026-04-09T11:15:35.903Z</time></trkpt><trkpt lat="43.1827183" lon="10.61222"><ele>37.0</ele><time>2026-04-09T11:15:36.904Z</time></trkpt><trkpt lat="43.1829667" lon="10.612275"><ele>37.0</ele><time>2026-04-09T11:15:37.903Z</time></trkpt><trkpt lat="43.1832183" lon="10.6123217"><ele>36.5</ele><time>2026-04-09T11:15:38.904Z</time></trkpt><trkpt lat="43.1834767" lon="10.612375"><ele>36.0</ele><time>2026-04-09T11:15:39.904Z</time></trkpt><trkpt lat="43.1837267" lon="10.6124183"><ele>36.0</ele><time>2026-04-09T11:15:40.904Z</time></trkpt><trkpt lat="43.1839633" lon="10.6124683"><ele>36.0</ele><time>2026-04-09T11:15:41.904Z</time></trkpt><trkpt lat="43.1841983" lon="10.61252"><ele>35.666666666666664</ele><time>2026-04-09T11:15:42.904Z</time></trkpt><trkpt lat="43.18442" lon="10.6125667"><ele>35.33333333333333</ele><time>2026-04-09T11:15:43.904Z</time></trkpt><trkpt lat="43.184635" lon="10.6126183"><ele>35.0</ele><time>2026-04-09T11:15:44.903Z</time></trkpt><trkpt lat="43.1848433" lon="10.612655"><ele>34.666666666666664</ele><time>2026-04-09T11:15:45.904Z</time></trkpt><trkpt lat="43.1850367" lon="10.6126783"><ele>34.333333333333336</ele><time>2026-04-09T11:15:46.903Z</time></trkpt><trkpt lat="43.18525" lon="10.6126817"><ele>34.0</ele><time>2026-04-09T11:15:47.904Z</time></trkpt><trkpt lat="43.1854617" lon="10.612655"><ele>33.0</ele><time>2026-04-09T11:15:48.904Z</time></trkpt><trkpt lat="43.185685" lon="10.6126067"><ele>32.0</ele><time>2026-04-09T11:15:49.903Z</time></trkpt><trkpt lat="43.185905" lon="10.6125417"><ele>32.0</ele><time>2026-04-09T11:15:50.904Z</time></trkpt><trkpt lat="43.18614" lon="10.61248"><ele>32.0</ele><time>2026-04-09T11:15:51.903Z</time></trkpt><trkpt lat="43.186375" lon="10.6124217"><ele>31.5</ele><time>2026-04-09T11:15:52.904Z</time></trkpt><trkpt lat="43.1866067" lon="10.61236"><ele>31.0</ele><time>2026-04-09T11:15:53.904Z</time></trkpt><trkpt lat="43.18685" lon="10.6122967"><ele>31.0</ele><time>2026-04-09T11:15:54.903Z</time></trkpt><trkpt lat="43.1870883" lon="10.6122333"><ele>31.0</ele><time>2026-04-09T11:15:55.904Z</time></trkpt><trkpt lat="43.187325" lon="10.61217"><ele>30.5</ele><time>2026-04-09T11:15:56.903Z</time></trkpt><trkpt lat="43.1875633" lon="10.6121083"><ele>30.0</ele><time>2026-04-09T11:15:57.903Z</time></trkpt><trkpt lat="43.1878033" lon="10.612045"><ele>29.5</ele><time>2026-04-09T11:15:58.904Z</time></trkpt><trkpt lat="43.1880433" lon="10.6119733"><ele>29.0</ele><time>2026-04-09T11:15:59.903Z</time></trkpt><trkpt lat="43.1882767" lon="10.6119133"><ele>28.5</ele><time>2026-04-09T11:16:00.904Z</time></trkpt><trkpt lat="43.1885183" lon="10.6118567"><ele>28.0</ele><time>2026-04-09T11:16:01.903Z</time></trkpt><trkpt lat="43.188755" lon="10.6117933"><ele>28.0</ele><time>2026-04-09T11:16:02.904Z</time></trkpt><trkpt lat="43.1889817" lon="10.6117283"><ele>28.0</ele><time>2026-04-09T11:16:03.904Z</time></trkpt><trkpt lat="43.1892" lon="10.61167"><ele>28.333333333333336</ele><time>2026-04-09T11:16:04.904Z</time></trkpt><trkpt lat="43.189415" lon="10.6116067"><ele>28.666666666666664</ele><time>2026-04-09T11:16:05.903Z</time></trkpt><trkpt lat="43.1896283" lon="10.6115417"><ele>29.0</ele><time>2026-04-09T11:16:06.904Z</time></trkpt><trkpt lat="43.189845" lon="10.6114867"><ele>29.333333333333332</ele><time>2026-04-09T11:16:07.904Z</time></trkpt><trkpt lat="43.1900617" lon="10.6114317"><ele>29.666666666666664</ele><time>2026-04-09T11:16:08.904Z</time></trkpt><trkpt lat="43.1902767" lon="10.6113717"><ele>30.0</ele><time>2026-04-09T11:16:09.904Z</time></trkpt><trkpt lat="43.1904967" lon="10.6113183"><ele>30.5</ele><time>2026-04-09T11:16:10.904Z</time></trkpt><trkpt lat="43.1907217" lon="10.6112633"><ele>31.0</ele><time>2026-04-09T11:16:11.904Z</time></trkpt><trkpt lat="43.1909417" lon="10.61121"><ele>31.5</ele><time>2026-04-09T11:16:12.903Z</time></trkpt><trkpt lat="43.1911633" lon="10.61115"><ele>32.0</ele><time>2026-04-09T11:16:13.904Z</time></trkpt><trkpt lat="43.19139" lon="10.6110867"><ele>31.0</ele><time>2026-04-09T11:16:14.904Z</time></trkpt><trkpt lat="43.1916083" lon="10.6110283"><ele>30.0</ele><time>2026-04-09T11:16:15.903Z</time></trkpt><trkpt lat="43.19183" lon="10.6109767"><ele>29.0</ele><time>2026-04-09T11:16:16.903Z</time></trkpt><trkpt lat="43.192035" lon="10.61094"><ele>29.0</ele><time>2026-04-09T11:16:17.904Z</time></trkpt><trkpt lat="43.1922417" lon="10.610925"><ele>29.0</ele><time>2026-04-09T11:16:18.904Z</time></trkpt><trkpt lat="43.192445" lon="10.6109233"><ele>29.0</ele><time>2026-04-09T11:16:19.904Z</time></trkpt><trkpt lat="43.1926617" lon="10.6109333"><ele>29.333333333333332</ele><time>2026-04-09T11:16:20.903Z</time></trkpt><trkpt lat="43.1928767" lon="10.61095"><ele>29.666666666666664</ele><time>2026-04-09T11:16:21.904Z</time></trkpt><trkpt lat="43.1930883" lon="10.6109767"><ele>30.0</ele><time>2026-04-09T11:16:22.903Z</time></trkpt><trkpt lat="43.1933067" lon="10.611"><ele>30.0</ele><time>2026-04-09T11:16:23.903Z</time></trkpt><trkpt lat="43.1935283" lon="10.6110383"><ele>30.0</ele><time>2026-04-09T11:16:24.903Z</time></trkpt><trkpt lat="43.193745" lon="10.6110967"><ele>30.0</ele><time>2026-04-09T11:16:25.904Z</time></trkpt><trkpt lat="43.1939683" lon="10.611175"><ele>30.0</ele><time>2026-04-09T11:16:26.904Z</time></trkpt><trkpt lat="43.1942017" lon="10.6112567"><ele>30.0</ele><time>2026-04-09T11:16:27.904Z</time></trkpt><trkpt lat="43.194435" lon="10.611355"><ele>30.0</ele><time>2026-04-09T11:16:28.903Z</time></trkpt><trkpt lat="43.1946683" lon="10.6114533"><ele>30.0</ele><time>2026-04-09T11:16:29.904Z</time></trkpt><trkpt lat="43.1949017" lon="10.6115517"><ele>31.0</ele><time>2026-04-09T11:16:30.904Z</time></trkpt><trkpt lat="43.1951267" lon="10.6116417"><ele>32.0</ele><time>2026-04-09T11:16:31.903Z</time></trkpt><trkpt lat="43.1953583" lon="10.6117383"><ele>32.0</ele><time>2026-04-09T11:16:32.904Z</time></trkpt><trkpt lat="43.19558" lon="10.61183"><ele>32.0</ele><time>2026-04-09T11:16:33.904Z</time></trkpt><trkpt lat="43.1958033" lon="10.6119333"><ele>32.5</ele><time>2026-04-09T11:16:34.904Z</time></trkpt><trkpt lat="43.19604" lon="10.6120317"><ele>33.0</ele><time>2026-04-09T11:16:35.904Z</time></trkpt><trkpt lat="43.1962717" lon="10.6121233"><ele>32.5</ele><time>2026-04-09T11:16:36.904Z</time></trkpt><trkpt lat="43.1965033" lon="10.6122167"><ele>32.0</ele><time>2026-04-09T11:16:37.904Z</time></trkpt><trkpt lat="43.1967417" lon="10.612315"><ele>32.0</ele><time>2026-04-09T11:16:38.904Z</time></trkpt><trkpt lat="43.196975" lon="10.6124183"><ele>32.0</ele><time>2026-04-09T11:16:39.904Z</time></trkpt><trkpt lat="43.1972117" lon="10.61252"><ele>32.0</ele><time>2026-04-09T11:16:40.903Z</time></trkpt><trkpt lat="43.1974483" lon="10.6126133"><ele>32.0</ele><time>2026-04-09T11:16:41.904Z</time></trkpt><trkpt lat="43.1976933" lon="10.6126967"><ele>32.0</ele><time>2026-04-09T11:16:42.904Z</time></trkpt><trkpt lat="43.19794" lon="10.6127567"><ele>32.0</ele><time>2026-04-09T11:16:43.903Z</time></trkpt><trkpt lat="43.1981883" lon="10.6128183"><ele>33.0</ele><time>2026-04-09T11:16:44.904Z</time></trkpt><trkpt lat="43.198435" lon="10.61288"><ele>34.0</ele><time>2026-04-09T11:16:45.904Z</time></trkpt><trkpt lat="43.1986783" lon="10.6129433"><ele>34.0</ele><time>2026-04-09T11:16:46.903Z</time></trkpt><trkpt lat="43.1989183" lon="10.613"><ele>34.0</ele><time>2026-04-09T11:16:47.904Z</time></trkpt><trkpt lat="43.1991517" lon="10.61305"><ele>34.5</ele><time>2026-04-09T11:16:48.904Z</time></trkpt><trkpt lat="43.1993883" lon="10.6131067"><ele>35.0</ele><time>2026-04-09T11:16:49.904Z</time></trkpt><trkpt lat="43.1996117" lon="10.6131583"><ele>35.33333333333333</ele><time>2026-04-09T11:16:50.904Z</time></trkpt><trkpt lat="43.199835" lon="10.6132117"><ele>35.666666666666664</ele><time>2026-04-09T11:16:51.903Z</time></trkpt><trkpt lat="43.2000517" lon="10.6132617"><ele>36.0</ele><time>2026-04-09T11:16:52.904Z</time></trkpt><trkpt lat="43.2002667" lon="10.6133067"><ele>36.0</ele><time>2026-04-09T11:16:53.903Z</time></trkpt><trkpt lat="43.2004783" lon="10.61336"><ele>36.0</ele><time>2026-04-09T11:16:54.903Z</time></trkpt><trkpt lat="43.200695" lon="10.6133867"><ele>36.0</ele><time>2026-04-09T11:16:55.904Z</time></trkpt><trkpt lat="43.2009067" lon="10.6133883"><ele>36.333333333333336</ele><time>2026-04-09T11:16:56.904Z</time></trkpt><trkpt lat="43.201125" lon="10.613365"><ele>36.66666666666667</ele><time>2026-04-09T11:16:57.904Z</time></trkpt><trkpt lat="43.20135" lon="10.6133283"><ele>37.0</ele><time>2026-04-09T11:16:58.904Z</time></trkpt><trkpt lat="43.2015783" lon="10.613295"><ele>38.0</ele><time>2026-04-09T11:16:59.904Z</time></trkpt><trkpt lat="43.2018033" lon="10.613255"><ele>39.0</ele><time>2026-04-09T11:17:00.904Z</time></trkpt><trkpt lat="43.2020383" lon="10.6132133"><ele>39.0</ele><time>2026-04-09T11:17:01.904Z</time></trkpt><trkpt lat="43.2022683" lon="10.6131667"><ele>39.0</ele><time>2026-04-09T11:17:02.903Z</time></trkpt><trkpt lat="43.2024983" lon="10.613125"><ele>39.5</ele><time>2026-04-09T11:17:03.904Z</time></trkpt><trkpt lat="43.2027233" lon="10.613085"><ele>40.0</ele><time>2026-04-09T11:17:04.903Z</time></trkpt><trkpt lat="43.2029533" lon="10.6130483"><ele>41.0</ele><time>2026-04-09T11:17:05.904Z</time></trkpt><trkpt lat="43.2031833" lon="10.613015"><ele>42.0</ele><time>2026-04-09T11:17:06.903Z</time></trkpt><trkpt lat="43.2034183" lon="10.61297"><ele>42.0</ele><time>2026-04-09T11:17:07.904Z</time></trkpt><trkpt lat="43.2036517" lon="10.612925"><ele>42.0</ele><time>2026-04-09T11:17:08.904Z</time></trkpt><trkpt lat="43.2038883" lon="10.6128783"><ele>42.5</ele><time>2026-04-09T11:17:09.904Z</time></trkpt><trkpt lat="43.2041217" lon="10.6128283"><ele>43.0</ele><time>2026-04-09T11:17:10.903Z</time></trkpt><trkpt lat="43.2043517" lon="10.6127867"><ele>43.5</ele><time>2026-04-09T11:17:11.904Z</time></trkpt><trkpt lat="43.20458" lon="10.6127483"><ele>44.0</ele><time>2026-04-09T11:17:12.904Z</time></trkpt><trkpt lat="43.2048083" lon="10.6127017"><ele>45.0</ele><time>2026-04-09T11:17:13.903Z</time></trkpt><trkpt lat="43.2050367" lon="10.6126617"><ele>46.0</ele><time>2026-04-09T11:17:14.903Z</time></trkpt><trkpt lat="43.2052583" lon="10.61262"><ele>46.0</ele><time>2026-04-09T11:17:15.904Z</time></trkpt><trkpt lat="43.205485" lon="10.6125783"><ele>46.0</ele><time>2026-04-09T11:17:16.904Z</time></trkpt><trkpt lat="43.2057083" lon="10.61254"><ele>46.0</ele><time>2026-04-09T11:17:17.903Z</time></trkpt><trkpt lat="43.2059333" lon="10.6125083"><ele>46.0</ele><time>2026-04-09T11:17:18.903Z</time></trkpt><trkpt lat="43.2061567" lon="10.6124617"><ele>46.0</ele><time>2026-04-09T11:17:19.904Z</time></trkpt><trkpt lat="43.2063783" lon="10.61242"><ele>46.0</ele><time>2026-04-09T11:17:20.903Z</time></trkpt><trkpt lat="43.2066033" lon="10.61238"><ele>46.66666666666667</ele><time>2026-04-09T11:17:21.903Z</time></trkpt><trkpt lat="43.2068233" lon="10.6123467"><ele>47.333333333333336</ele><time>2026-04-09T11:17:22.904Z</time></trkpt><trkpt lat="43.20704" lon="10.6123083"><ele>48.0</ele><time>2026-04-09T11:17:23.903Z</time></trkpt><trkpt lat="43.2072467" lon="10.6122717"><ele>48.33333333333333</ele><time>2026-04-09T11:17:24.904Z</time></trkpt><trkpt lat="43.2074517" lon="10.6122333"><ele>48.666666666666664</ele><time>2026-04-09T11:17:25.904Z</time></trkpt><trkpt lat="43.2076517" lon="10.61219"><ele>49.0</ele><time>2026-04-09T11:17:26.903Z</time></trkpt><trkpt lat="43.2078483" lon="10.6121467"><ele>49.0</ele><time>2026-04-09T11:17:27.904Z</time></trkpt><trkpt lat="43.2080517" lon="10.6121183"><ele>49.0</ele><time>2026-04-09T11:17:28.904Z</time></trkpt><trkpt lat="43.2082567" lon="10.61208"><ele>49.0</ele><time>2026-04-09T11:17:29.904Z</time></trkpt><trkpt lat="43.208465" lon="10.6120433"><ele>49.0</ele><time>2026-04-09T11:17:30.904Z</time></trkpt><trkpt lat="43.20868" lon="10.6120033"><ele>49.0</ele><time>2026-04-09T11:17:31.903Z</time></trkpt><trkpt lat="43.208895" lon="10.6119667"><ele>49.0</ele><time>2026-04-09T11:17:32.904Z</time></trkpt><trkpt lat="43.2091117" lon="10.611925"><ele>48.666666666666664</ele><time>2026-04-09T11:17:33.904Z</time></trkpt><trkpt lat="43.20933" lon="10.6118883"><ele>48.33333333333333</ele><time>2026-04-09T11:17:34.903Z</time></trkpt><trkpt lat="43.2095483" lon="10.6118433"><ele>48.0</ele><time>2026-04-09T11:17:35.904Z</time></trkpt><trkpt lat="43.2097583" lon="10.6118067"><ele>49.0</ele><time>2026-04-09T11:17:36.904Z</time></trkpt><trkpt lat="43.2099817" lon="10.611765"><ele>50.0</ele><time>2026-04-09T11:17:37.904Z</time></trkpt><trkpt lat="43.2102" lon="10.6117267"><ele>51.0</ele><time>2026-04-09T11:17:38.904Z</time></trkpt><trkpt lat="43.2104217" lon="10.6116917"><ele>51.0</ele><time>2026-04-09T11:17:39.903Z</time></trkpt><trkpt lat="43.2106317" lon="10.6116567"><ele>51.0</ele><time>2026-04-09T11:17:40.904Z</time></trkpt><trkpt lat="43.21084" lon="10.6116367"><ele>51.0</ele><time>2026-04-09T11:17:41.904Z</time></trkpt><trkpt lat="43.2110483" lon="10.6115883"><ele>52.33333333333333</ele><time>2026-04-09T11:17:42.904Z</time></trkpt><trkpt lat="43.2112567" lon="10.6115483"><ele>53.666666666666664</ele><time>2026-04-09T11:17:43.903Z</time></trkpt><trkpt lat="43.2114617" lon="10.61151"><ele>55.0</ele><time>2026-04-09T11:17:44.903Z</time></trkpt><trkpt lat="43.211665" lon="10.6114733"><ele>55.666666666666664</ele><time>2026-04-09T11:17:45.904Z</time></trkpt><trkpt lat="43.2118667" lon="10.61144"><ele>56.33333333333333</ele><time>2026-04-09T11:17:46.904Z</time></trkpt><trkpt lat="43.2120633" lon="10.6114067"><ele>57.0</ele><time>2026-04-09T11:17:47.903Z</time></trkpt><trkpt lat="43.212265" lon="10.61137"><ele>58.66666666666667</ele><time>2026-04-09T11:17:48.904Z</time></trkpt><trkpt lat="43.2124583" lon="10.61134"><ele>60.333333333333336</ele><time>2026-04-09T11:17:49.903Z</time></trkpt><trkpt lat="43.2126533" lon="10.6113083"><ele>62.0</ele><time>2026-04-09T11:17:50.903Z</time></trkpt><trkpt lat="43.212845" lon="10.6112717"><ele>62.0</ele><time>2026-04-09T11:17:51.904Z</time></trkpt><trkpt lat="43.21304" lon="10.611235"><ele>62.0</ele><time>2026-04-09T11:17:52.904Z</time></trkpt><trkpt lat="43.21325" lon="10.6112017"><ele>62.0</ele><time>2026-04-09T11:17:53.903Z</time></trkpt><trkpt lat="43.2134533" lon="10.6111667"><ele>62.333333333333336</ele><time>2026-04-09T11:17:54.904Z</time></trkpt><trkpt lat="43.2136517" lon="10.6111233"><ele>62.66666666666667</ele><time>2026-04-09T11:17:55.903Z</time></trkpt><trkpt lat="43.2138617" lon="10.6110833"><ele>63.0</ele><time>2026-04-09T11:17:56.904Z</time></trkpt><trkpt lat="43.214075" lon="10.61104"><ele>63.0</ele><time>2026-04-09T11:17:57.904Z</time></trkpt><trkpt lat="43.2142917" lon="10.61101"><ele>63.0</ele><time>2026-04-09T11:17:58.904Z</time></trkpt><trkpt lat="43.2145117" lon="10.61097"><ele>63.0</ele><time>2026-04-09T11:17:59.904Z</time></trkpt><trkpt lat="43.2147383" lon="10.61093"><ele>62.66666666666667</ele><time>2026-04-09T11:18:00.904Z</time></trkpt><trkpt lat="43.2149567" lon="10.6108933"><ele>62.333333333333336</ele><time>2026-04-09T11:18:01.903Z</time></trkpt><trkpt lat="43.21517" lon="10.6108467"><ele>62.0</ele><time>2026-04-09T11:18:02.904Z</time></trkpt><trkpt lat="43.2153783" lon="10.610805"><ele>62.0</ele><time>2026-04-09T11:18:03.903Z</time></trkpt><trkpt lat="43.2155783" lon="10.6107733"><ele>62.0</ele><time>2026-04-09T11:18:04.904Z</time></trkpt><trkpt lat="43.21578" lon="10.6107417"><ele>62.0</ele><time>2026-04-09T11:18:05.904Z</time></trkpt><trkpt lat="43.21599" lon="10.6106983"><ele>62.66666666666667</ele><time>2026-04-09T11:18:06.903Z</time></trkpt><trkpt lat="43.2161983" lon="10.6106633"><ele>63.33333333333333</ele><time>2026-04-09T11:18:07.903Z</time></trkpt><trkpt lat="43.2163933" lon="10.6106217"><ele>64.0</ele><time>2026-04-09T11:18:08.903Z</time></trkpt><trkpt lat="43.2166017" lon="10.6105967"><ele>64.66666666666666</ele><time>2026-04-09T11:18:09.904Z</time></trkpt><trkpt lat="43.2168" lon="10.610555"><ele>65.33333333333333</ele><time>2026-04-09T11:18:10.904Z</time></trkpt><trkpt lat="43.2170017" lon="10.610515"><ele>66.0</ele><time>2026-04-09T11:18:11.904Z</time></trkpt><trkpt lat="43.2172033" lon="10.6104783"><ele>66.0</ele><time>2026-04-09T11:18:12.903Z</time></trkpt><trkpt lat="43.2174" lon="10.610445"><ele>66.0</ele><time>2026-04-09T11:18:13.903Z</time></trkpt><trkpt lat="43.21759" lon="10.6104083"><ele>66.0</ele><time>2026-04-09T11:18:14.904Z</time></trkpt><trkpt lat="43.2177933" lon="10.6103633"><ele>66.0</ele><time>2026-04-09T11:18:15.904Z</time></trkpt><trkpt lat="43.2179933" lon="10.6103367"><ele>66.0</ele><time>2026-04-09T11:18:16.904Z</time></trkpt><trkpt lat="43.2181967" lon="10.6102967"><ele>66.0</ele><time>2026-04-09T11:18:17.904Z</time></trkpt><trkpt lat="43.2184033" lon="10.6102717"><ele>64.0</ele><time>2026-04-09T11:18:18.903Z</time></trkpt><trkpt lat="43.2186217" lon="10.61023"><ele>62.0</ele><time>2026-04-09T11:18:19.903Z</time></trkpt><trkpt lat="43.2188467" lon="10.6101933"><ele>60.0</ele><time>2026-04-09T11:18:20.904Z</time></trkpt><trkpt lat="43.21908" lon="10.610155"><ele>59.5</ele><time>2026-04-09T11:18:21.903Z</time></trkpt><trkpt lat="43.2193083" lon="10.61011"><ele>59.0</ele><time>2026-04-09T11:18:22.903Z</time></trkpt><trkpt lat="43.219535" lon="10.6100667"><ele>59.0</ele><time>2026-04-09T11:18:23.903Z</time></trkpt><trkpt lat="43.2197567" lon="10.610015"><ele>59.0</ele><time>2026-04-09T11:18:24.903Z</time></trkpt><trkpt lat="43.21998" lon="10.6099817"><ele>59.0</ele><time>2026-04-09T11:18:25.904Z</time></trkpt><trkpt lat="43.2202017" lon="10.6099483"><ele>60.0</ele><time>2026-04-09T11:18:26.904Z</time></trkpt><trkpt lat="43.22043" lon="10.6099083"><ele>61.0</ele><time>2026-04-09T11:18:27.904Z</time></trkpt><trkpt lat="43.2206567" lon="10.60987"><ele>61.5</ele><time>2026-04-09T11:18:28.904Z</time></trkpt><trkpt lat="43.220885" lon="10.6098283"><ele>62.0</ele><time>2026-04-09T11:18:29.904Z</time></trkpt><trkpt lat="43.2211217" lon="10.6097817"><ele>62.0</ele><time>2026-04-09T11:18:30.904Z</time></trkpt><trkpt lat="43.2213567" lon="10.609735"><ele>62.0</ele><time>2026-04-09T11:18:31.904Z</time></trkpt><trkpt lat="43.2215733" lon="10.60969"><ele>62.0</ele><time>2026-04-09T11:18:32.904Z</time></trkpt><trkpt lat="43.22179" lon="10.6096633"><ele>62.0</ele><time>2026-04-09T11:18:33.904Z</time></trkpt><trkpt lat="43.2219883" lon="10.6096317"><ele>62.0</ele><time>2026-04-09T11:18:34.904Z</time></trkpt><trkpt lat="43.22217" lon="10.6096"><ele>61.66666666666667</ele><time>2026-04-09T11:18:35.903Z</time></trkpt><trkpt lat="43.222345" lon="10.6095683"><ele>61.33333333333333</ele><time>2026-04-09T11:18:36.904Z</time></trkpt><trkpt lat="43.2224967" lon="10.6095433"><ele>61.0</ele><time>2026-04-09T11:18:37.904Z</time></trkpt><trkpt lat="43.2226267" lon="10.6095067"><ele>60.75</ele><time>2026-04-09T11:18:38.903Z</time></trkpt><trkpt lat="43.222745" lon="10.609425"><ele>60.5</ele><time>2026-04-09T11:18:39.904Z</time></trkpt><trkpt lat="43.22286" lon="10.6093017"><ele>60.25</ele><time>2026-04-09T11:18:40.903Z</time></trkpt><trkpt lat="43.2229883" lon="10.609195"><ele>60.0</ele><time>2026-04-09T11:18:41.904Z</time></trkpt><trkpt lat="43.2231267" lon="10.60913"><ele>59.75</ele><time>2026-04-09T11:18:42.904Z</time></trkpt><trkpt lat="43.2232783" lon="10.609105"><ele>59.5</ele><time>2026-04-09T11:18:43.904Z</time></trkpt><trkpt lat="43.2234083" lon="10.6091067"><ele>59.25</ele><time>2026-04-09T11:18:44.904Z</time></trkpt><trkpt lat="43.2235233" lon="10.60909"><ele>59.0</ele><time>2026-04-09T11:18:45.903Z</time></trkpt><trkpt lat="43.2236217" lon="10.6090117"><ele>59.0</ele><time>2026-04-09T11:18:46.904Z</time></trkpt><trkpt lat="43.2236883" lon="10.6088817"><ele>59.0</ele><time>2026-04-09T11:18:47.903Z</time></trkpt><trkpt lat="43.2237133" lon="10.6087183"><ele>59.0</ele><time>2026-04-09T11:18:48.904Z</time></trkpt><trkpt lat="43.22372" lon="10.60855"><ele>59.0</ele><time>2026-04-09T11:18:49.903Z</time></trkpt><trkpt lat="43.2237567" lon="10.60842"><ele>58.50000000000001</ele><time>2026-04-09T11:18:50.904Z</time></trkpt><trkpt lat="43.2238017" lon="10.6083133"><ele>58.0</ele><time>2026-04-09T11:18:51.904Z</time></trkpt><trkpt lat="43.22386" lon="10.608235"><ele>57.5</ele><time>2026-04-09T11:18:52.904Z</time></trkpt><trkpt lat="43.223935" lon="10.6081983"><ele>57.0</ele><time>2026-04-09T11:18:53.904Z</time></trkpt><trkpt lat="43.2240333" lon="10.60824"><ele>56.50000000000001</ele><time>2026-04-09T11:18:54.904Z</time></trkpt><trkpt lat="43.2241167" lon="10.608255"><ele>56.0</ele><time>2026-04-09T11:18:55.904Z</time></trkpt><trkpt lat="43.2242033" lon="10.6082233"><ele>56.0</ele><time>2026-04-09T11:18:56.904Z</time></trkpt><trkpt lat="43.2242833" lon="10.6081333"><ele>56.0</ele><time>2026-04-09T11:18:57.903Z</time></trkpt><trkpt lat="43.224365" lon="10.6079967"><ele>56.0</ele><time>2026-04-09T11:18:58.904Z</time></trkpt><trkpt lat="43.224465" lon="10.6077883"><ele>56.0</ele><time>2026-04-09T11:18:59.904Z</time></trkpt><trkpt lat="43.22457" lon="10.60758"><ele>55.66666666666667</ele><time>2026-04-09T11:19:00.904Z</time></trkpt><trkpt lat="43.2246817" lon="10.60738"><ele>55.33333333333333</ele><time>2026-04-09T11:19:01.904Z</time></trkpt><trkpt lat="43.2248067" lon="10.6071917"><ele>55.0</ele><time>2026-04-09T11:19:02.903Z</time></trkpt><trkpt lat="43.224915" lon="10.60702"><ele>54.666666666666664</ele><time>2026-04-09T11:19:03.903Z</time></trkpt><trkpt lat="43.2250017" lon="10.6068383"><ele>54.33333333333333</ele><time>2026-04-09T11:19:04.904Z</time></trkpt><trkpt lat="43.2250583" lon="10.6066283"><ele>54.0</ele><time>2026-04-09T11:19:05.904Z</time></trkpt><trkpt lat="43.2251033" lon="10.60639"><ele>54.0</ele><time>2026-04-09T11:19:06.904Z</time></trkpt><trkpt lat="43.22511" lon="10.6061367"><ele>54.0</ele><time>2026-04-09T11:19:07.904Z</time></trkpt><trkpt lat="43.2250967" lon="10.6058567"><ele>54.0</ele><time>2026-04-09T11:19:08.903Z</time></trkpt><trkpt lat="43.2250733" lon="10.605555"><ele>53.66666666666667</ele><time>2026-04-09T11:19:09.904Z</time></trkpt><trkpt lat="43.2250533" lon="10.605255"><ele>53.333333333333336</ele><time>2026-04-09T11:19:10.904Z</time></trkpt><trkpt lat="43.2250367" lon="10.6049717"><ele>53.0</ele><time>2026-04-09T11:19:11.903Z</time></trkpt><trkpt lat="43.2250267" lon="10.6047033"><ele>52.0</ele><time>2026-04-09T11:19:12.904Z</time></trkpt><trkpt lat="43.2250183" lon="10.6044517"><ele>51.0</ele><time>2026-04-09T11:19:13.903Z</time></trkpt><trkpt lat="43.22502" lon="10.6042233"><ele>50.0</ele><time>2026-04-09T11:19:14.904Z</time></trkpt><trkpt lat="43.22504" lon="10.6039933"><ele>50.0</ele><time>2026-04-09T11:19:15.903Z</time></trkpt><trkpt lat="43.2250817" lon="10.6037583"><ele>50.0</ele><time>2026-04-09T11:19:16.904Z</time></trkpt><trkpt lat="43.22513" lon="10.60352"><ele>50.0</ele><time>2026-04-09T11:19:17.903Z</time></trkpt><trkpt lat="43.225175" lon="10.6032933"><ele>49.75</ele><time>2026-04-09T11:19:18.904Z</time></trkpt><trkpt lat="43.2252283" lon="10.6030917"><ele>49.5</ele><time>2026-04-09T11:19:19.904Z</time></trkpt><trkpt lat="43.2252783" lon="10.6029067"><ele>49.25</ele><time>2026-04-09T11:19:20.903Z</time></trkpt><trkpt lat="43.225355" lon="10.602745"><ele>49.0</ele><time>2026-04-09T11:19:21.903Z</time></trkpt><trkpt lat="43.2254417" lon="10.6026033"><ele>49.0</ele><time>2026-04-09T11:19:22.904Z</time></trkpt><trkpt lat="43.225565" lon="10.6025133"><ele>49.0</ele><time>2026-04-09T11:19:23.904Z</time></trkpt><trkpt lat="43.2257217" lon="10.60244"><ele>49.0</ele><time>2026-04-09T11:19:24.904Z</time></trkpt><trkpt lat="43.22588" lon="10.6023783"><ele>49.0</ele><time>2026-04-09T11:19:25.904Z</time></trkpt><trkpt lat="43.226025" lon="10.6023117"><ele>49.0</ele><time>2026-04-09T11:19:26.904Z</time></trkpt><trkpt lat="43.22615" lon="10.6022233"><ele>49.0</ele><time>2026-04-09T11:19:27.904Z</time></trkpt><trkpt lat="43.2262217" lon="10.6021083"><ele>49.0</ele><time>2026-04-09T11:19:28.904Z</time></trkpt><trkpt lat="43.22627" lon="10.6019467"><ele>48.75</ele><time>2026-04-09T11:19:29.904Z</time></trkpt><trkpt lat="43.2262917" lon="10.60175"><ele>48.5</ele><time>2026-04-09T11:19:30.904Z</time></trkpt><trkpt lat="43.2262967" lon="10.6015483"><ele>48.25</ele><time>2026-04-09T11:19:31.904Z</time></trkpt><trkpt lat="43.22628" lon="10.6013433"><ele>48.0</ele><time>2026-04-09T11:19:32.904Z</time></trkpt><trkpt lat="43.2262183" lon="10.601135"><ele>48.0</ele><time>2026-04-09T11:19:33.904Z</time></trkpt><trkpt lat="43.2261283" lon="10.6009133"><ele>48.0</ele><time>2026-04-09T11:19:34.904Z</time></trkpt><trkpt lat="43.2260367" lon="10.6007167"><ele>48.0</ele><time>2026-04-09T11:19:35.903Z</time></trkpt><trkpt lat="43.2259717" lon="10.6005417"><ele>48.0</ele><time>2026-04-09T11:19:36.904Z</time></trkpt><trkpt lat="43.2259367" lon="10.6003733"><ele>48.0</ele><time>2026-04-09T11:19:37.903Z</time></trkpt><trkpt lat="43.2259317" lon="10.6002033"><ele>48.0</ele><time>2026-04-09T11:19:38.904Z</time></trkpt><trkpt lat="43.2259617" lon="10.6000167"><ele>48.0</ele><time>2026-04-09T11:19:39.903Z</time></trkpt><trkpt lat="43.2260083" lon="10.5998367"><ele>48.0</ele><time>2026-04-09T11:19:40.904Z</time></trkpt><trkpt lat="43.22606" lon="10.599665"><ele>48.0</ele><time>2026-04-09T11:19:41.904Z</time></trkpt><trkpt lat="43.22613" lon="10.5995167"><ele>48.0</ele><time>2026-04-09T11:19:42.904Z</time></trkpt><trkpt lat="43.22623" lon="10.599385"><ele>48.0</ele><time>2026-04-09T11:19:43.904Z</time></trkpt><trkpt lat="43.226345" lon="10.5992917"><ele>47.666666666666664</ele><time>2026-04-09T11:19:44.904Z</time></trkpt><trkpt lat="43.2264833" lon="10.5992383"><ele>47.33333333333333</ele><time>2026-04-09T11:19:45.904Z</time></trkpt><trkpt lat="43.2266433" lon="10.59921"><ele>47.0</ele><time>2026-04-09T11:19:46.904Z</time></trkpt><trkpt lat="43.2268233" lon="10.59919"><ele>47.0</ele><time>2026-04-09T11:19:47.904Z</time></trkpt><trkpt lat="43.227015" lon="10.59917"><ele>47.0</ele><time>2026-04-09T11:19:48.904Z</time></trkpt><trkpt lat="43.2271983" lon="10.5991533"><ele>47.0</ele><time>2026-04-09T11:19:49.903Z</time></trkpt><trkpt lat="43.2274017" lon="10.5991467"><ele>47.0</ele><time>2026-04-09T11:19:50.904Z</time></trkpt><trkpt lat="43.2276133" lon="10.5991333"><ele>47.0</ele><time>2026-04-09T11:19:51.903Z</time></trkpt><trkpt lat="43.2278333" lon="10.5991167"><ele>47.0</ele><time>2026-04-09T11:19:52.904Z</time></trkpt><trkpt lat="43.2280333" lon="10.599095"><ele>47.0</ele><time>2026-04-09T11:19:53.904Z</time></trkpt><trkpt lat="43.2282083" lon="10.59907"><ele>47.0</ele><time>2026-04-09T11:19:54.904Z</time></trkpt><trkpt lat="43.2283733" lon="10.59905"><ele>47.0</ele><time>2026-04-09T11:19:55.903Z</time></trkpt><trkpt lat="43.228515" lon="10.5990617"><ele>47.0</ele><time>2026-04-09T11:19:56.903Z</time></trkpt><trkpt lat="43.2286333" lon="10.5991233"><ele>47.0</ele><time>2026-04-09T11:19:57.903Z</time></trkpt><trkpt lat="43.228755" lon="10.5992433"><ele>47.0</ele><time>2026-04-09T11:19:58.904Z</time></trkpt><trkpt lat="43.2288633" lon="10.59941"><ele>47.0</ele><time>2026-04-09T11:19:59.904Z</time></trkpt><trkpt lat="43.228975" lon="10.59961"><ele>47.33333333333333</ele><time>2026-04-09T11:20:00.903Z</time></trkpt><trkpt lat="43.229085" lon="10.5998183"><ele>47.666666666666664</ele><time>2026-04-09T11:20:01.904Z</time></trkpt><trkpt lat="43.2292017" lon="10.6000383"><ele>48.0</ele><time>2026-04-09T11:20:02.904Z</time></trkpt><trkpt lat="43.2293283" lon="10.6002783"><ele>49.0</ele><time>2026-04-09T11:20:03.903Z</time></trkpt><trkpt lat="43.22945" lon="10.6005"><ele>50.0</ele><time>2026-04-09T11:20:04.904Z</time></trkpt><trkpt lat="43.2295583" lon="10.60069"><ele>51.0</ele><time>2026-04-09T11:20:05.904Z</time></trkpt><trkpt lat="43.229655" lon="10.6008483"><ele>51.0</ele><time>2026-04-09T11:20:06.904Z</time></trkpt><trkpt lat="43.2297483" lon="10.60097"><ele>51.0</ele><time>2026-04-09T11:20:07.903Z</time></trkpt><trkpt lat="43.229865" lon="10.60105"><ele>51.0</ele><time>2026-04-09T11:20:08.904Z</time></trkpt><trkpt lat="43.2299833" lon="10.6010983"><ele>51.0</ele><time>2026-04-09T11:20:09.904Z</time></trkpt><trkpt lat="43.2301283" lon="10.6010917"><ele>51.33333333333333</ele><time>2026-04-09T11:20:10.903Z</time></trkpt><trkpt lat="43.23029" lon="10.60104"><ele>51.666666666666664</ele><time>2026-04-09T11:20:11.904Z</time></trkpt><trkpt lat="43.2304567" lon="10.6009817"><ele>52.0</ele><time>2026-04-09T11:20:12.904Z</time></trkpt><trkpt lat="43.23064" lon="10.6009217"><ele>52.666666666666664</ele><time>2026-04-09T11:20:13.904Z</time></trkpt><trkpt lat="43.2308283" lon="10.6008533"><ele>53.33333333333333</ele><time>2026-04-09T11:20:14.904Z</time></trkpt><trkpt lat="43.23101" lon="10.6007867"><ele>54.0</ele><time>2026-04-09T11:20:15.903Z</time></trkpt><trkpt lat="43.2311817" lon="10.6007333"><ele>54.0</ele><time>2026-04-09T11:20:16.904Z</time></trkpt><trkpt lat="43.2313317" lon="10.60068"><ele>54.0</ele><time>2026-04-09T11:20:17.904Z</time></trkpt><trkpt lat="43.2314533" lon="10.6006433"><ele>54.0</ele><time>2026-04-09T11:20:18.904Z</time></trkpt><trkpt lat="43.231555" lon="10.600615"><ele>54.0</ele><time>2026-04-09T11:20:19.903Z</time></trkpt><trkpt lat="43.2316283" lon="10.6005883"><ele>54.666666666666664</ele><time>2026-04-09T11:20:20.904Z</time></trkpt><trkpt lat="43.2317067" lon="10.6005633"><ele>55.33333333333333</ele><time>2026-04-09T11:20:22.903Z</time></trkpt><trkpt lat="43.231755" lon="10.60063"><ele>56.0</ele><time>2026-04-09T11:20:25.903Z</time></trkpt><trkpt lat="43.2317867" lon="10.60075"><ele>56.666666666666664</ele><time>2026-04-09T11:20:27.903Z</time></trkpt><trkpt lat="43.2318017" lon="10.600855"><ele>57.33333333333333</ele><time>2026-04-09T11:20:28.904Z</time></trkpt><trkpt lat="43.2318183" lon="10.6009933"><ele>58.0</ele><time>2026-04-09T11:20:29.904Z</time></trkpt><trkpt lat="43.23184" lon="10.6011467"><ele>57.0</ele><time>2026-04-09T11:20:30.904Z</time></trkpt><trkpt lat="43.2318633" lon="10.6013217"><ele>56.0</ele><time>2026-04-09T11:20:31.904Z</time></trkpt><trkpt lat="43.2318933" lon="10.6015133"><ele>55.0</ele><time>2026-04-09T11:20:32.904Z</time></trkpt><trkpt lat="43.231925" lon="10.601725"><ele>54.0</ele><time>2026-04-09T11:20:33.904Z</time></trkpt><trkpt lat="43.231955" lon="10.6019433"><ele>54.33333333333333</ele><time>2026-04-09T11:20:34.903Z</time></trkpt><trkpt lat="43.2319883" lon="10.60218"><ele>54.666666666666664</ele><time>2026-04-09T11:20:35.904Z</time></trkpt><trkpt lat="43.2320217" lon="10.6024317"><ele>55.0</ele><time>2026-04-09T11:20:36.904Z</time></trkpt><trkpt lat="43.2320617" lon="10.6027117"><ele>55.33333333333333</ele><time>2026-04-09T11:20:37.904Z</time></trkpt><trkpt lat="43.2321033" lon="10.6029917"><ele>55.66666666666667</ele><time>2026-04-09T11:20:38.903Z</time></trkpt><trkpt lat="43.2321433" lon="10.6032733"><ele>56.0</ele><time>2026-04-09T11:20:39.904Z</time></trkpt><trkpt lat="43.2321967" lon="10.6035533"><ele>56.66666666666667</ele><time>2026-04-09T11:20:40.904Z</time></trkpt><trkpt lat="43.2322467" lon="10.6038483"><ele>57.33333333333333</ele><time>2026-04-09T11:20:41.903Z</time></trkpt><trkpt lat="43.2322783" lon="10.604155"><ele>58.0</ele><time>2026-04-09T11:20:42.903Z</time></trkpt><trkpt lat="43.2323133" lon="10.60447"><ele>59.5</ele><time>2026-04-09T11:20:43.904Z</time></trkpt><trkpt lat="43.2323567" lon="10.6047767"><ele>61.0</ele><time>2026-04-09T11:20:44.904Z</time></trkpt><trkpt lat="43.2324033" lon="10.6050833"><ele>62.0</ele><time>2026-04-09T11:20:45.904Z</time></trkpt><trkpt lat="43.2324483" lon="10.6054017"><ele>63.0</ele><time>2026-04-09T11:20:46.904Z</time></trkpt><trkpt lat="43.232495" lon="10.60572"><ele>63.0</ele><time>2026-04-09T11:20:47.904Z</time></trkpt><trkpt lat="43.232545" lon="10.606045"><ele>63.0</ele><time>2026-04-09T11:20:48.904Z</time></trkpt><trkpt lat="43.2325933" lon="10.6063733"><ele>63.5</ele><time>2026-04-09T11:20:49.903Z</time></trkpt><trkpt lat="43.232645" lon="10.606705"><ele>64.0</ele><time>2026-04-09T11:20:50.904Z</time></trkpt><trkpt lat="43.2326967" lon="10.60704"><ele>64.5</ele><time>2026-04-09T11:20:51.903Z</time></trkpt><trkpt lat="43.2327383" lon="10.6073767"><ele>65.0</ele><time>2026-04-09T11:20:52.904Z</time></trkpt><trkpt lat="43.2327867" lon="10.60772"><ele>68.0</ele><time>2026-04-09T11:20:53.904Z</time></trkpt><trkpt lat="43.2328383" lon="10.6080583"><ele>71.0</ele><time>2026-04-09T11:20:54.903Z</time></trkpt><trkpt lat="43.23289" lon="10.6084017"><ele>73.0</ele><time>2026-04-09T11:20:55.904Z</time></trkpt><trkpt lat="43.2329417" lon="10.60874"><ele>75.0</ele><time>2026-04-09T11:20:56.904Z</time></trkpt><trkpt lat="43.2329917" lon="10.6090567"><ele>75.0</ele><time>2026-04-09T11:20:57.904Z</time></trkpt><trkpt lat="43.23303" lon="10.6093367"><ele>75.0</ele><time>2026-04-09T11:20:58.904Z</time></trkpt><trkpt lat="43.2330633" lon="10.609575"><ele>75.0</ele><time>2026-04-09T11:20:59.903Z</time></trkpt><trkpt lat="43.23309" lon="10.60979"><ele>75.8</ele><time>2026-04-09T11:21:00.904Z</time></trkpt><trkpt lat="43.233115" lon="10.6099733"><ele>76.6</ele><time>2026-04-09T11:21:01.904Z</time></trkpt><trkpt lat="43.2331433" lon="10.6101283"><ele>77.4</ele><time>2026-04-09T11:21:02.903Z</time></trkpt><trkpt lat="43.2331617" lon="10.6102567"><ele>78.2</ele><time>2026-04-09T11:21:03.904Z</time></trkpt><trkpt lat="43.2331767" lon="10.6103417"><ele>79.0</ele><time>2026-04-09T11:21:04.904Z</time></trkpt><trkpt lat="43.2331883" lon="10.6104433"><ele>79.83333333333333</ele><time>2026-04-09T11:21:06.904Z</time></trkpt><trkpt lat="43.2332283" lon="10.6105233"><ele>80.66666666666666</ele><time>2026-04-09T11:21:09.904Z</time></trkpt><trkpt lat="43.2332967" lon="10.6105167"><ele>81.5</ele><time>2026-04-09T11:21:12.904Z</time></trkpt><trkpt lat="43.233365" lon="10.6104567"><ele>82.33333333333333</ele><time>2026-04-09T11:21:14.904Z</time></trkpt><trkpt lat="43.2334217" lon="10.6104167"><ele>83.16666666666667</ele><time>2026-04-09T11:21:15.903Z</time></trkpt><trkpt lat="43.2334833" lon="10.6103883"><ele>84.0</ele><time>2026-04-09T11:21:16.904Z</time></trkpt><trkpt lat="43.2335883" lon="10.6103883"><ele>84.0</ele><time>2026-04-09T11:21:17.904Z</time></trkpt><trkpt lat="43.2337067" lon="10.6104083"><ele>84.0</ele><time>2026-04-09T11:21:18.904Z</time></trkpt><trkpt lat="43.233835" lon="10.6104433"><ele>84.0</ele><time>2026-04-09T11:21:19.903Z</time></trkpt><trkpt lat="43.2339833" lon="10.6104717"><ele>84.0</ele><time>2026-04-09T11:21:20.904Z</time></trkpt><trkpt lat="43.2341433" lon="10.6105183"><ele>83.66666666666667</ele><time>2026-04-09T11:21:21.904Z</time></trkpt><trkpt lat="43.23431" lon="10.610545"><ele>83.33333333333334</ele><time>2026-04-09T11:21:22.904Z</time></trkpt><trkpt lat="43.2344867" lon="10.610575"><ele>83.0</ele><time>2026-04-09T11:21:23.904Z</time></trkpt><trkpt lat="43.2346683" lon="10.6106017"><ele>81.0</ele><time>2026-04-09T11:21:24.904Z</time></trkpt><trkpt lat="43.234855" lon="10.6106267"><ele>79.0</ele><time>2026-04-09T11:21:25.904Z</time></trkpt><trkpt lat="43.2350383" lon="10.610665"><ele>77.0</ele><time>2026-04-09T11:21:26.904Z</time></trkpt><trkpt lat="43.23521" lon="10.61071"><ele>77.0</ele><time>2026-04-09T11:21:27.904Z</time></trkpt><trkpt lat="43.2353583" lon="10.610735"><ele>77.0</ele><time>2026-04-09T11:21:28.904Z</time></trkpt><trkpt lat="43.2354967" lon="10.6107533"><ele>77.0</ele><time>2026-04-09T11:21:29.903Z</time></trkpt><trkpt lat="43.235615" lon="10.61075"><ele>77.0</ele><time>2026-04-09T11:21:30.904Z</time></trkpt><trkpt lat="43.2357183" lon="10.6107217"><ele>75.25</ele><time>2026-04-09T11:21:31.904Z</time></trkpt><trkpt lat="43.2358117" lon="10.61065"><ele>73.5</ele><time>2026-04-09T11:21:32.903Z</time></trkpt><trkpt lat="43.2358933" lon="10.6105417"><ele>71.75</ele><time>2026-04-09T11:21:33.903Z</time></trkpt><trkpt lat="43.235965" lon="10.6103933"><ele>70.0</ele><time>2026-04-09T11:21:34.904Z</time></trkpt><trkpt lat="43.236085" lon="10.610235"><ele>69.66666666666666</ele><time>2026-04-09T11:21:35.904Z</time></trkpt><trkpt lat="43.2362183" lon="10.6100833"><ele>69.33333333333333</ele><time>2026-04-09T11:21:36.904Z</time></trkpt><trkpt lat="43.236365" lon="10.609935"><ele>69.0</ele><time>2026-04-09T11:21:37.904Z</time></trkpt><trkpt lat="43.2364983" lon="10.6097467"><ele>68.66666666666667</ele><time>2026-04-09T11:21:38.904Z</time></trkpt><trkpt lat="43.2366317" lon="10.6095283"><ele>68.33333333333334</ele><time>2026-04-09T11:21:39.903Z</time></trkpt><trkpt lat="43.2367767" lon="10.6093267"><ele>68.0</ele><time>2026-04-09T11:21:40.903Z</time></trkpt><trkpt lat="43.2369333" lon="10.6091483"><ele>68.66666666666667</ele><time>2026-04-09T11:21:41.903Z</time></trkpt><trkpt lat="43.2370983" lon="10.608995"><ele>69.33333333333333</ele><time>2026-04-09T11:21:42.904Z</time></trkpt><trkpt lat="43.23727" lon="10.6088767"><ele>70.0</ele><time>2026-04-09T11:21:43.903Z</time></trkpt><trkpt lat="43.2374383" lon="10.6087667"><ele>70.0</ele><time>2026-04-09T11:21:44.904Z</time></trkpt><trkpt lat="43.2376233" lon="10.60867"><ele>70.0</ele><time>2026-04-09T11:21:45.904Z</time></trkpt><trkpt lat="43.2378" lon="10.608575"><ele>70.0</ele><time>2026-04-09T11:21:46.904Z</time></trkpt><trkpt lat="43.2379867" lon="10.6085133"><ele>72.0</ele><time>2026-04-09T11:21:47.904Z</time></trkpt><trkpt lat="43.2381817" lon="10.60847"><ele>74.0</ele><time>2026-04-09T11:21:48.903Z</time></trkpt><trkpt lat="43.2383833" lon="10.6084183"><ele>76.0</ele><time>2026-04-09T11:21:49.904Z</time></trkpt><trkpt lat="43.2385867" lon="10.6083667"><ele>76.0</ele><time>2026-04-09T11:21:50.904Z</time></trkpt><trkpt lat="43.2387833" lon="10.6083233"><ele>76.0</ele><time>2026-04-09T11:21:51.904Z</time></trkpt><trkpt lat="43.2389717" lon="10.60828"><ele>76.0</ele><time>2026-04-09T11:21:52.904Z</time></trkpt><trkpt lat="43.2391417" lon="10.6082267"><ele>77.33333333333333</ele><time>2026-04-09T11:21:53.903Z</time></trkpt><trkpt lat="43.2392883" lon="10.608145"><ele>78.66666666666667</ele><time>2026-04-09T11:21:54.903Z</time></trkpt><trkpt lat="43.239425" lon="10.6080183"><ele>80.0</ele><time>2026-04-09T11:21:55.904Z</time></trkpt><trkpt lat="43.2395717" lon="10.6078683"><ele>79.66666666666667</ele><time>2026-04-09T11:21:56.903Z</time></trkpt><trkpt lat="43.2397267" lon="10.6076983"><ele>79.33333333333333</ele><time>2026-04-09T11:21:57.904Z</time></trkpt><trkpt lat="43.239895" lon="10.6075117"><ele>79.0</ele><time>2026-04-09T11:21:58.904Z</time></trkpt><trkpt lat="43.2400733" lon="10.6073167"><ele>76.0</ele><time>2026-04-09T11:21:59.904Z</time></trkpt><trkpt lat="43.240255" lon="10.6071167"><ele>73.0</ele><time>2026-04-09T11:22:00.904Z</time></trkpt><trkpt lat="43.2404417" lon="10.60691"><ele>69.5</ele><time>2026-04-09T11:22:01.904Z</time></trkpt><trkpt lat="43.2406333" lon="10.6067017"><ele>66.0</ele><time>2026-04-09T11:22:02.903Z</time></trkpt><trkpt lat="43.2408133" lon="10.6065017"><ele>66.0</ele><time>2026-04-09T11:22:03.903Z</time></trkpt><trkpt lat="43.2409883" lon="10.6063133"><ele>66.0</ele><time>2026-04-09T11:22:04.904Z</time></trkpt><trkpt lat="43.2411567" lon="10.60614"><ele>66.0</ele><time>2026-04-09T11:22:05.904Z</time></trkpt><trkpt lat="43.2413" lon="10.6059567"><ele>66.33333333333333</ele><time>2026-04-09T11:22:06.904Z</time></trkpt><trkpt lat="43.2414233" lon="10.605745"><ele>66.66666666666666</ele><time>2026-04-09T11:22:07.904Z</time></trkpt><trkpt lat="43.241525" lon="10.6055033"><ele>67.0</ele><time>2026-04-09T11:22:08.903Z</time></trkpt><trkpt lat="43.2416133" lon="10.605265"><ele>67.0</ele><time>2026-04-09T11:22:09.904Z</time></trkpt><trkpt lat="43.2417183" lon="10.60506"><ele>67.0</ele><time>2026-04-09T11:22:10.903Z</time></trkpt><trkpt lat="43.241835" lon="10.604895"><ele>67.0</ele><time>2026-04-09T11:22:11.904Z</time></trkpt><trkpt lat="43.241985" lon="10.604775"><ele>67.0</ele><time>2026-04-09T11:22:12.904Z</time></trkpt><trkpt lat="43.2421467" lon="10.6046567"><ele>67.0</ele><time>2026-04-09T11:22:13.904Z</time></trkpt><trkpt lat="43.2423067" lon="10.60451"><ele>67.0</ele><time>2026-04-09T11:22:14.903Z</time></trkpt><trkpt lat="43.24247" lon="10.6043283"><ele>68.0</ele><time>2026-04-09T11:22:15.904Z</time></trkpt><trkpt lat="43.24264" lon="10.6041217"><ele>69.0</ele><time>2026-04-09T11:22:16.904Z</time></trkpt><trkpt lat="43.24281" lon="10.6039083"><ele>69.0</ele><time>2026-04-09T11:22:17.903Z</time></trkpt><trkpt lat="43.2429883" lon="10.6036967"><ele>69.0</ele><time>2026-04-09T11:22:18.903Z</time></trkpt><trkpt lat="43.2431583" lon="10.6034983"><ele>66.33333333333333</ele><time>2026-04-09T11:22:19.904Z</time></trkpt><trkpt lat="43.2433167" lon="10.6033033"><ele>63.666666666666664</ele><time>2026-04-09T11:22:20.903Z</time></trkpt><trkpt lat="43.243445" lon="10.6031033"><ele>61.0</ele><time>2026-04-09T11:22:21.904Z</time></trkpt><trkpt lat="43.24356" lon="10.602915"><ele>61.33333333333333</ele><time>2026-04-09T11:22:22.904Z</time></trkpt><trkpt lat="43.2436733" lon="10.6027183"><ele>61.66666666666667</ele><time>2026-04-09T11:22:23.903Z</time></trkpt><trkpt lat="43.2437967" lon="10.6025417"><ele>62.0</ele><time>2026-04-09T11:22:24.904Z</time></trkpt><trkpt lat="43.2439517" lon="10.6023817"><ele>57.66666666666667</ele><time>2026-04-09T11:22:25.904Z</time></trkpt><trkpt lat="43.244125" lon="10.602255"><ele>53.33333333333333</ele><time>2026-04-09T11:22:26.904Z</time></trkpt><trkpt lat="43.2443167" lon="10.602145"><ele>49.0</ele><time>2026-04-09T11:22:27.903Z</time></trkpt><trkpt lat="43.244495" lon="10.6020017"><ele>49.0</ele><time>2026-04-09T11:22:28.904Z</time></trkpt><trkpt lat="43.244675" lon="10.6018167"><ele>49.0</ele><time>2026-04-09T11:22:29.903Z</time></trkpt><trkpt lat="43.2448333" lon="10.6016117"><ele>49.0</ele><time>2026-04-09T11:22:30.904Z</time></trkpt><trkpt lat="43.2449633" lon="10.6014017"><ele>48.0</ele><time>2026-04-09T11:22:31.904Z</time></trkpt><trkpt lat="43.2450767" lon="10.60119"><ele>47.0</ele><time>2026-04-09T11:22:32.903Z</time></trkpt><trkpt lat="43.2451617" lon="10.6009483"><ele>46.0</ele><time>2026-04-09T11:22:33.903Z</time></trkpt><trkpt lat="43.2452217" lon="10.6006867"><ele>45.0</ele><time>2026-04-09T11:22:34.903Z</time></trkpt><trkpt lat="43.24526" lon="10.6004067"><ele>44.0</ele><time>2026-04-09T11:22:35.904Z</time></trkpt><trkpt lat="43.2452883" lon="10.6001033"><ele>43.0</ele><time>2026-04-09T11:22:36.904Z</time></trkpt><trkpt lat="43.2453083" lon="10.599815"><ele>43.0</ele><time>2026-04-09T11:22:37.903Z</time></trkpt><trkpt lat="43.245335" lon="10.59956"><ele>43.0</ele><time>2026-04-09T11:22:38.903Z</time></trkpt><trkpt lat="43.2453767" lon="10.599325"><ele>43.0</ele><time>2026-04-09T11:22:39.904Z</time></trkpt><trkpt lat="43.2454067" lon="10.5990917"><ele>43.0</ele><time>2026-04-09T11:22:40.904Z</time></trkpt><trkpt lat="43.245425" lon="10.598855"><ele>43.0</ele><time>2026-04-09T11:22:41.904Z</time></trkpt><trkpt lat="43.2454217" lon="10.5986383"><ele>43.0</ele><time>2026-04-09T11:22:42.904Z</time></trkpt><trkpt lat="43.24544" lon="10.5984217"><ele>43.0</ele><time>2026-04-09T11:22:43.904Z</time></trkpt><trkpt lat="43.2454883" lon="10.598205"><ele>43.0</ele><time>2026-04-09T11:22:44.904Z</time></trkpt><trkpt lat="43.2455517" lon="10.5979833"><ele>43.0</ele><time>2026-04-09T11:22:45.903Z</time></trkpt><trkpt lat="43.2456167" lon="10.5977467"><ele>42.0</ele><time>2026-04-09T11:22:46.904Z</time></trkpt><trkpt lat="43.245685" lon="10.5974967"><ele>41.0</ele><time>2026-04-09T11:22:47.904Z</time></trkpt><trkpt lat="43.2457533" lon="10.5972383"><ele>40.0</ele><time>2026-04-09T11:22:48.904Z</time></trkpt><trkpt lat="43.2458167" lon="10.596985"><ele>40.0</ele><time>2026-04-09T11:22:49.903Z</time></trkpt><trkpt lat="43.245855" lon="10.5967383"><ele>40.0</ele><time>2026-04-09T11:22:50.904Z</time></trkpt><trkpt lat="43.24587" lon="10.5964867"><ele>40.0</ele><time>2026-04-09T11:22:51.904Z</time></trkpt><trkpt lat="43.245845" lon="10.5962283"><ele>40.333333333333336</ele><time>2026-04-09T11:22:52.903Z</time></trkpt><trkpt lat="43.24581" lon="10.59596"><ele>40.666666666666664</ele><time>2026-04-09T11:22:53.904Z</time></trkpt><trkpt lat="43.245765" lon="10.595695"><ele>41.0</ele><time>2026-04-09T11:22:54.904Z</time></trkpt><trkpt lat="43.24573" lon="10.5954633"><ele>40.75</ele><time>2026-04-09T11:22:55.904Z</time></trkpt><trkpt lat="43.2456983" lon="10.5952717"><ele>40.5</ele><time>2026-04-09T11:22:56.904Z</time></trkpt><trkpt lat="43.2456817" lon="10.5951"><ele>40.25</ele><time>2026-04-09T11:22:57.904Z</time></trkpt><trkpt lat="43.2456867" lon="10.59496"><ele>40.0</ele><time>2026-04-09T11:22:58.904Z</time></trkpt><trkpt lat="43.24573" lon="10.5948383"><ele>40.0</ele><time>2026-04-09T11:22:59.903Z</time></trkpt><trkpt lat="43.2458167" lon="10.5947317"><ele>40.0</ele><time>2026-04-09T11:23:00.904Z</time></trkpt><trkpt lat="43.2459483" lon="10.59469"><ele>40.0</ele><time>2026-04-09T11:23:01.904Z</time></trkpt><trkpt lat="43.24612" lon="10.594695"><ele>40.0</ele><time>2026-04-09T11:23:02.904Z</time></trkpt><trkpt lat="43.2463167" lon="10.5947367"><ele>39.66666666666667</ele><time>2026-04-09T11:23:03.904Z</time></trkpt><trkpt lat="43.246515" lon="10.5947733"><ele>39.333333333333336</ele><time>2026-04-09T11:23:04.904Z</time></trkpt><trkpt lat="43.246725" lon="10.5947917"><ele>39.0</ele><time>2026-04-09T11:23:05.904Z</time></trkpt><trkpt lat="43.24692" lon="10.5948183"><ele>39.0</ele><time>2026-04-09T11:23:06.904Z</time></trkpt><trkpt lat="43.2471067" lon="10.59487"><ele>39.0</ele><time>2026-04-09T11:23:07.903Z</time></trkpt><trkpt lat="43.2472867" lon="10.5949583"><ele>39.0</ele><time>2026-04-09T11:23:08.904Z</time></trkpt><trkpt lat="43.247445" lon="10.5950733"><ele>40.333333333333336</ele><time>2026-04-09T11:23:09.903Z</time></trkpt><trkpt lat="43.2475733" lon="10.5952133"><ele>41.66666666666667</ele><time>2026-04-09T11:23:10.904Z</time></trkpt><trkpt lat="43.247695" lon="10.5953817"><ele>43.0</ele><time>2026-04-09T11:23:11.904Z</time></trkpt><trkpt lat="43.2478267" lon="10.59553"><ele>44.333333333333336</ele><time>2026-04-09T11:23:12.903Z</time></trkpt><trkpt lat="43.2479717" lon="10.5956633"><ele>45.666666666666664</ele><time>2026-04-09T11:23:13.904Z</time></trkpt><trkpt lat="43.2481033" lon="10.5957967"><ele>47.0</ele><time>2026-04-09T11:23:14.904Z</time></trkpt><trkpt lat="43.2481983" lon="10.59595"><ele>48.25</ele><time>2026-04-09T11:23:15.904Z</time></trkpt><trkpt lat="43.2482783" lon="10.5960867"><ele>49.5</ele><time>2026-04-09T11:23:16.904Z</time></trkpt><trkpt lat="43.248375" lon="10.5961883"><ele>50.75</ele><time>2026-04-09T11:23:17.904Z</time></trkpt><trkpt lat="43.2485033" lon="10.5962483"><ele>52.0</ele><time>2026-04-09T11:23:18.903Z</time></trkpt><trkpt lat="43.2486533" lon="10.59627"><ele>53.33333333333333</ele><time>2026-04-09T11:23:19.904Z</time></trkpt><trkpt lat="43.2488283" lon="10.5962667"><ele>54.66666666666667</ele><time>2026-04-09T11:23:20.904Z</time></trkpt><trkpt lat="43.2490217" lon="10.596245"><ele>56.0</ele><time>2026-04-09T11:23:21.904Z</time></trkpt><trkpt lat="43.2492167" lon="10.5962233"><ele>56.333333333333336</ele><time>2026-04-09T11:23:22.904Z</time></trkpt><trkpt lat="43.249415" lon="10.5962083"><ele>56.66666666666667</ele><time>2026-04-09T11:23:23.904Z</time></trkpt><trkpt lat="43.2496083" lon="10.5962"><ele>57.0</ele><time>2026-04-09T11:23:24.904Z</time></trkpt><trkpt lat="43.24979" lon="10.5961933"><ele>56.66666666666667</ele><time>2026-04-09T11:23:25.904Z</time></trkpt><trkpt lat="43.24997" lon="10.5962017"><ele>56.333333333333336</ele><time>2026-04-09T11:23:26.903Z</time></trkpt><trkpt lat="43.250155" lon="10.5962267"><ele>56.0</ele><time>2026-04-09T11:23:27.903Z</time></trkpt><trkpt lat="43.2503433" lon="10.5962567"><ele>56.0</ele><time>2026-04-09T11:23:28.904Z</time></trkpt><trkpt lat="43.2505217" lon="10.596265"><ele>56.0</ele><time>2026-04-09T11:23:29.904Z</time></trkpt><trkpt lat="43.2507017" lon="10.5962167"><ele>56.0</ele><time>2026-04-09T11:23:30.904Z</time></trkpt><trkpt lat="43.2508883" lon="10.59615"><ele>55.333333333333336</ele><time>2026-04-09T11:23:31.904Z</time></trkpt><trkpt lat="43.2510967" lon="10.5960833"><ele>54.66666666666667</ele><time>2026-04-09T11:23:32.904Z</time></trkpt><trkpt lat="43.2513083" lon="10.59604"><ele>54.0</ele><time>2026-04-09T11:23:33.904Z</time></trkpt><trkpt lat="43.2515333" lon="10.59599"><ele>53.0</ele><time>2026-04-09T11:23:34.904Z</time></trkpt><trkpt lat="43.2517567" lon="10.5959367"><ele>52.0</ele><time>2026-04-09T11:23:35.904Z</time></trkpt><trkpt lat="43.2519567" lon="10.5958833"><ele>51.0</ele><time>2026-04-09T11:23:36.904Z</time></trkpt><trkpt lat="43.252145" lon="10.595845"><ele>50.66666666666667</ele><time>2026-04-09T11:23:37.904Z</time></trkpt><trkpt lat="43.252315" lon="10.5958067"><ele>50.333333333333336</ele><time>2026-04-09T11:23:38.903Z</time></trkpt><trkpt lat="43.2524683" lon="10.595795"><ele>50.0</ele><time>2026-04-09T11:23:39.904Z</time></trkpt><trkpt lat="43.2526" lon="10.5958017"><ele>50.0</ele><time>2026-04-09T11:23:40.903Z</time></trkpt><trkpt lat="43.2527283" lon="10.59581"><ele>50.0</ele><time>2026-04-09T11:23:41.903Z</time></trkpt><trkpt lat="43.252855" lon="10.5957733"><ele>50.0</ele><time>2026-04-09T11:23:42.903Z</time></trkpt><trkpt lat="43.25299" lon="10.5956667"><ele>50.0</ele><time>2026-04-09T11:23:43.904Z</time></trkpt><trkpt lat="43.253125" lon="10.5954967"><ele>48.0</ele><time>2026-04-09T11:23:44.904Z</time></trkpt><trkpt lat="43.253265" lon="10.5953083"><ele>46.0</ele><time>2026-04-09T11:23:45.904Z</time></trkpt><trkpt lat="43.25342" lon="10.5951417"><ele>44.0</ele><time>2026-04-09T11:23:46.904Z</time></trkpt><trkpt lat="43.2535867" lon="10.59502"><ele>44.0</ele><time>2026-04-09T11:23:47.904Z</time></trkpt><trkpt lat="43.25377" lon="10.594925"><ele>44.0</ele><time>2026-04-09T11:23:48.903Z</time></trkpt><trkpt lat="43.25397" lon="10.59485"><ele>44.0</ele><time>2026-04-09T11:23:49.904Z</time></trkpt><trkpt lat="43.2541683" lon="10.5947667"><ele>43.0</ele><time>2026-04-09T11:23:50.904Z</time></trkpt><trkpt lat="43.2543683" lon="10.5947033"><ele>42.0</ele><time>2026-04-09T11:23:51.904Z</time></trkpt><trkpt lat="43.254575" lon="10.5946417"><ele>41.0</ele><time>2026-04-09T11:23:52.904Z</time></trkpt><trkpt lat="43.2547767" lon="10.59459"><ele>41.0</ele><time>2026-04-09T11:23:53.904Z</time></trkpt><trkpt lat="43.2549533" lon="10.5945417"><ele>41.0</ele><time>2026-04-09T11:23:54.904Z</time></trkpt><trkpt lat="43.2551183" lon="10.59451"><ele>41.0</ele><time>2026-04-09T11:23:55.904Z</time></trkpt><trkpt lat="43.2552667" lon="10.5944917"><ele>40.199999999999996</ele><time>2026-04-09T11:23:56.903Z</time></trkpt><trkpt lat="43.25539" lon="10.5944783"><ele>39.4</ele><time>2026-04-09T11:23:57.904Z</time></trkpt><trkpt lat="43.25549" lon="10.594455"><ele>38.6</ele><time>2026-04-09T11:23:58.904Z</time></trkpt><trkpt lat="43.25557" lon="10.5944383"><ele>37.8</ele><time>2026-04-09T11:23:59.903Z</time></trkpt><trkpt lat="43.255675" lon="10.5944"><ele>37.0</ele><time>2026-04-09T11:24:01.904Z</time></trkpt><trkpt lat="43.25575" lon="10.594445"><ele>37.66666666666667</ele><time>2026-04-09T11:24:04.904Z</time></trkpt><trkpt lat="43.2557433" lon="10.5945733"><ele>38.333333333333336</ele><time>2026-04-09T11:24:06.904Z</time></trkpt><trkpt lat="43.2557217" lon="10.5946717"><ele>39.0</ele><time>2026-04-09T11:24:07.903Z</time></trkpt><trkpt lat="43.255695" lon="10.5947817"><ele>39.666666666666664</ele><time>2026-04-09T11:24:08.904Z</time></trkpt><trkpt lat="43.2556617" lon="10.5948883"><ele>40.33333333333333</ele><time>2026-04-09T11:24:09.903Z</time></trkpt><trkpt lat="43.2556183" lon="10.5949883"><ele>41.0</ele><time>2026-04-09T11:24:10.903Z</time></trkpt><trkpt lat="43.255565" lon="10.5950817"><ele>41.0</ele><time>2026-04-09T11:24:11.904Z</time></trkpt><trkpt lat="43.2555033" lon="10.5951883"><ele>41.0</ele><time>2026-04-09T11:24:12.904Z</time></trkpt><trkpt lat="43.2554483" lon="10.595295"><ele>41.0</ele><time>2026-04-09T11:24:13.904Z</time></trkpt><trkpt lat="43.255395" lon="10.5954083"><ele>41.0</ele><time>2026-04-09T11:24:14.903Z</time></trkpt><trkpt lat="43.255365" lon="10.5955317"><ele>41.0</ele><time>2026-04-09T11:24:15.903Z</time></trkpt><trkpt lat="43.2553433" lon="10.5956483"><ele>42.0</ele><time>2026-04-09T11:24:16.904Z</time></trkpt><trkpt lat="43.25532" lon="10.5957533"><ele>43.0</ele><time>2026-04-09T11:24:17.904Z</time></trkpt><trkpt lat="43.2552883" lon="10.59586"><ele>44.0</ele><time>2026-04-09T11:24:18.903Z</time></trkpt><trkpt lat="43.2552383" lon="10.5959583"><ele>45.0</ele><time>2026-04-09T11:24:19.904Z</time></trkpt><trkpt lat="43.25517" lon="10.5960517"><ele>46.0</ele><time>2026-04-09T11:24:20.904Z</time></trkpt><trkpt lat="43.2550933" lon="10.59616"><ele>46.5</ele><time>2026-04-09T11:24:21.903Z</time></trkpt><trkpt lat="43.2550067" lon="10.5962817"><ele>47.0</ele><time>2026-04-09T11:24:22.904Z</time></trkpt><trkpt lat="43.254915" lon="10.5964333"><ele>47.5</ele><time>2026-04-09T11:24:23.904Z</time></trkpt><trkpt lat="43.2548233" lon="10.5965983"><ele>48.0</ele><time>2026-04-09T11:24:24.904Z</time></trkpt><trkpt lat="43.2547417" lon="10.596755"><ele>48.0</ele><time>2026-04-09T11:24:25.904Z</time></trkpt><trkpt lat="43.2546733" lon="10.5968917"><ele>48.0</ele><time>2026-04-09T11:24:26.904Z</time></trkpt><trkpt lat="43.254605" lon="10.5970417"><ele>48.0</ele><time>2026-04-09T11:24:27.904Z</time></trkpt><trkpt lat="43.2545417" lon="10.5972"><ele>48.0</ele><time>2026-04-09T11:24:28.904Z</time></trkpt><trkpt lat="43.25449" lon="10.5973533"><ele>48.5</ele><time>2026-04-09T11:24:29.904Z</time></trkpt><trkpt lat="43.2544433" lon="10.5975033"><ele>49.0</ele><time>2026-04-09T11:24:30.904Z</time></trkpt><trkpt lat="43.2544067" lon="10.597655"><ele>49.5</ele><time>2026-04-09T11:24:31.904Z</time></trkpt><trkpt lat="43.2543833" lon="10.597805"><ele>50.0</ele><time>2026-04-09T11:24:32.904Z</time></trkpt><trkpt lat="43.25436" lon="10.59795"><ele>50.5</ele><time>2026-04-09T11:24:33.903Z</time></trkpt><trkpt lat="43.2543167" lon="10.59808"><ele>51.0</ele><time>2026-04-09T11:24:34.904Z</time></trkpt><trkpt lat="43.25425" lon="10.5982017"><ele>51.5</ele><time>2026-04-09T11:24:35.903Z</time></trkpt><trkpt lat="43.2541817" lon="10.598345"><ele>52.0</ele><time>2026-04-09T11:24:36.904Z</time></trkpt><trkpt lat="43.2541433" lon="10.598495"><ele>52.0</ele><time>2026-04-09T11:24:37.904Z</time></trkpt><trkpt lat="43.2541267" lon="10.598655"><ele>52.0</ele><time>2026-04-09T11:24:38.903Z</time></trkpt><trkpt lat="43.2541367" lon="10.5988183"><ele>52.0</ele><time>2026-04-09T11:24:39.904Z</time></trkpt><trkpt lat="43.25414" lon="10.5989683"><ele>52.0</ele><time>2026-04-09T11:24:40.904Z</time></trkpt><trkpt lat="43.2541383" lon="10.5991133"><ele>52.8</ele><time>2026-04-09T11:24:41.904Z</time></trkpt><trkpt lat="43.2541233" lon="10.5992567"><ele>53.6</ele><time>2026-04-09T11:24:42.904Z</time></trkpt><trkpt lat="43.2541" lon="10.5994"><ele>54.39999999999999</ele><time>2026-04-09T11:24:43.904Z</time></trkpt><trkpt lat="43.2540783" lon="10.5995533"><ele>55.199999999999996</ele><time>2026-04-09T11:24:44.904Z</time></trkpt><trkpt lat="43.2540633" lon="10.5996917"><ele>56.0</ele><time>2026-04-09T11:24:45.903Z</time></trkpt><trkpt lat="43.2540433" lon="10.5998067"><ele>56.66666666666667</ele><time>2026-04-09T11:24:46.904Z</time></trkpt><trkpt lat="43.25402" lon="10.5999033"><ele>57.333333333333336</ele><time>2026-04-09T11:24:47.904Z</time></trkpt><trkpt lat="43.2539833" lon="10.5999783"><ele>58.0</ele><time>2026-04-09T11:24:48.903Z</time></trkpt><trkpt lat="43.253925" lon="10.600055"><ele>58.66666666666667</ele><time>2026-04-09T11:24:49.904Z</time></trkpt><trkpt lat="43.253855" lon="10.6001217"><ele>59.333333333333336</ele><time>2026-04-09T11:24:50.904Z</time></trkpt><trkpt lat="43.25379" lon="10.600205"><ele>60.0</ele><time>2026-04-09T11:24:51.904Z</time></trkpt><trkpt lat="43.2537417" lon="10.6002983"><ele>62.25</ele><time>2026-04-09T11:24:52.904Z</time></trkpt><trkpt lat="43.2537017" lon="10.6004117"><ele>64.5</ele><time>2026-04-09T11:24:53.904Z</time></trkpt><trkpt lat="43.25368" lon="10.60057"><ele>66.75</ele><time>2026-04-09T11:24:54.903Z</time></trkpt><trkpt lat="43.2536633" lon="10.6007367"><ele>69.0</ele><time>2026-04-09T11:24:55.903Z</time></trkpt><trkpt lat="43.2536417" lon="10.6008983"><ele>69.0</ele><time>2026-04-09T11:24:56.904Z</time></trkpt><trkpt lat="43.2536283" lon="10.6010333"><ele>69.0</ele><time>2026-04-09T11:24:57.903Z</time></trkpt><trkpt lat="43.2536017" lon="10.60114"><ele>69.0</ele><time>2026-04-09T11:24:58.903Z</time></trkpt><trkpt lat="43.2535533" lon="10.6012367"><ele>69.0</ele><time>2026-04-09T11:24:59.904Z</time></trkpt><trkpt lat="43.253505" lon="10.6013367"><ele>69.0</ele><time>2026-04-09T11:25:00.904Z</time></trkpt><trkpt lat="43.2534533" lon="10.60146"><ele>69.2</ele><time>2026-04-09T11:25:01.904Z</time></trkpt><trkpt lat="43.253405" lon="10.6015883"><ele>69.4</ele><time>2026-04-09T11:25:02.904Z</time></trkpt><trkpt lat="43.253355" lon="10.60172"><ele>69.6</ele><time>2026-04-09T11:25:03.903Z</time></trkpt><trkpt lat="43.25332" lon="10.6018317"><ele>69.8</ele><time>2026-04-09T11:25:04.904Z</time></trkpt><trkpt lat="43.253295" lon="10.6019367"><ele>70.0</ele><time>2026-04-09T11:25:05.904Z</time></trkpt><trkpt lat="43.2532867" lon="10.60203"><ele>70.2</ele><time>2026-04-09T11:25:06.903Z</time></trkpt><trkpt lat="43.253305" lon="10.602135"><ele>70.4</ele><time>2026-04-09T11:25:07.904Z</time></trkpt><trkpt lat="43.2533383" lon="10.6022583"><ele>70.6</ele><time>2026-04-09T11:25:08.904Z</time></trkpt><trkpt lat="43.253395" lon="10.60239"><ele>70.8</ele><time>2026-04-09T11:25:09.904Z</time></trkpt><trkpt lat="43.253445" lon="10.6025167"><ele>71.0</ele><time>2026-04-09T11:25:10.903Z</time></trkpt><trkpt lat="43.25348" lon="10.6026283"><ele>71.0</ele><time>2026-04-09T11:25:11.904Z</time></trkpt><trkpt lat="43.2535083" lon="10.6027283"><ele>71.0</ele><time>2026-04-09T11:25:12.903Z</time></trkpt><trkpt lat="43.2535283" lon="10.6028417"><ele>71.0</ele><time>2026-04-09T11:25:13.904Z</time></trkpt><trkpt lat="43.2535333" lon="10.6029667"><ele>71.0</ele><time>2026-04-09T11:25:14.904Z</time></trkpt><trkpt lat="43.25352" lon="10.6031117"><ele>71.0</ele><time>2026-04-09T11:25:15.903Z</time></trkpt><trkpt lat="43.2534817" lon="10.60328"><ele>71.2</ele><time>2026-04-09T11:25:16.903Z</time></trkpt><trkpt lat="43.253445" lon="10.6034383"><ele>71.39999999999999</ele><time>2026-04-09T11:25:17.903Z</time></trkpt><trkpt lat="43.2534217" lon="10.6035617"><ele>71.6</ele><time>2026-04-09T11:25:18.904Z</time></trkpt><trkpt lat="43.2533917" lon="10.6036717"><ele>71.8</ele><time>2026-04-09T11:25:19.904Z</time></trkpt><trkpt lat="43.2533517" lon="10.6037783"><ele>72.0</ele><time>2026-04-09T11:25:20.904Z</time></trkpt><trkpt lat="43.253315" lon="10.603905"><ele>72.5</ele><time>2026-04-09T11:25:21.903Z</time></trkpt><trkpt lat="43.2532983" lon="10.6040833"><ele>73.0</ele><time>2026-04-09T11:25:22.903Z</time></trkpt><trkpt lat="43.2532833" lon="10.6042917"><ele>73.5</ele><time>2026-04-09T11:25:23.904Z</time></trkpt><trkpt lat="43.2532717" lon="10.6045183"><ele>74.0</ele><time>2026-04-09T11:25:24.903Z</time></trkpt><trkpt lat="43.2532667" lon="10.60476"><ele>75.0</ele><time>2026-04-09T11:25:25.903Z</time></trkpt><trkpt lat="43.2532683" lon="10.605005"><ele>76.0</ele><time>2026-04-09T11:25:26.903Z</time></trkpt><trkpt lat="43.25327" lon="10.6052267"><ele>77.0</ele><time>2026-04-09T11:25:27.904Z</time></trkpt><trkpt lat="43.2532767" lon="10.605435"><ele>78.33333333333334</ele><time>2026-04-09T11:25:28.904Z</time></trkpt><trkpt lat="43.25328" lon="10.6056533"><ele>79.66666666666667</ele><time>2026-04-09T11:25:29.904Z</time></trkpt><trkpt lat="43.2532767" lon="10.6058717"><ele>81.0</ele><time>2026-04-09T11:25:30.904Z</time></trkpt><trkpt lat="43.2532667" lon="10.6060717"><ele>82.0</ele><time>2026-04-09T11:25:31.903Z</time></trkpt><trkpt lat="43.253265" lon="10.6062783"><ele>83.0</ele><time>2026-04-09T11:25:32.903Z</time></trkpt><trkpt lat="43.2532633" lon="10.6065083"><ele>84.0</ele><time>2026-04-09T11:25:33.904Z</time></trkpt><trkpt lat="43.25326" lon="10.6067567"><ele>85.0</ele><time>2026-04-09T11:25:34.904Z</time></trkpt><trkpt lat="43.2532583" lon="10.6069967"><ele>86.0</ele><time>2026-04-09T11:25:35.904Z</time></trkpt><trkpt lat="43.2532533" lon="10.6072367"><ele>87.0</ele><time>2026-04-09T11:25:36.903Z</time></trkpt><trkpt lat="43.25325" lon="10.60746"><ele>87.0</ele><time>2026-04-09T11:25:37.904Z</time></trkpt><trkpt lat="43.25325" lon="10.6076667"><ele>87.0</ele><time>2026-04-09T11:25:38.903Z</time></trkpt><trkpt lat="43.2532467" lon="10.60786"><ele>87.0</ele><time>2026-04-09T11:25:39.904Z</time></trkpt><trkpt lat="43.25325" lon="10.6080433"><ele>87.0</ele><time>2026-04-09T11:25:40.904Z</time></trkpt><trkpt lat="43.2532483" lon="10.6082117"><ele>88.0</ele><time>2026-04-09T11:25:41.903Z</time></trkpt><trkpt lat="43.2532433" lon="10.6083667"><ele>89.0</ele><time>2026-04-09T11:25:42.904Z</time></trkpt><trkpt lat="43.2532433" lon="10.6085183"><ele>90.0</ele><time>2026-04-09T11:25:43.903Z</time></trkpt><trkpt lat="43.253235" lon="10.60868"><ele>91.0</ele><time>2026-04-09T11:25:44.904Z</time></trkpt><trkpt lat="43.25323" lon="10.6088483"><ele>92.0</ele><time>2026-04-09T11:25:45.904Z</time></trkpt><trkpt lat="43.2532267" lon="10.6090333"><ele>93.0</ele><time>2026-04-09T11:25:46.904Z</time></trkpt><trkpt lat="43.2532283" lon="10.6092467"><ele>94.0</ele><time>2026-04-09T11:25:47.904Z</time></trkpt><trkpt lat="43.25323" lon="10.6094633"><ele>95.0</ele><time>2026-04-09T11:25:48.904Z</time></trkpt><trkpt lat="43.253225" lon="10.6096667"><ele>95.75</ele><time>2026-04-09T11:25:49.903Z</time></trkpt><trkpt lat="43.2532283" lon="10.6098517"><ele>96.5</ele><time>2026-04-09T11:25:50.903Z</time></trkpt><trkpt lat="43.253235" lon="10.6100417"><ele>97.25</ele><time>2026-04-09T11:25:51.903Z</time></trkpt><trkpt lat="43.2532383" lon="10.61024"><ele>98.0</ele><time>2026-04-09T11:25:52.903Z</time></trkpt><trkpt lat="43.2532417" lon="10.61045"><ele>98.25</ele><time>2026-04-09T11:25:53.904Z</time></trkpt><trkpt lat="43.2532433" lon="10.6106633"><ele>98.5</ele><time>2026-04-09T11:25:54.904Z</time></trkpt><trkpt lat="43.2532433" lon="10.610855"><ele>98.75</ele><time>2026-04-09T11:25:55.904Z</time></trkpt><trkpt lat="43.253235" lon="10.61105"><ele>99.0</ele><time>2026-04-09T11:25:56.904Z</time></trkpt><trkpt lat="43.2532333" lon="10.6112333"><ele>99.0</ele><time>2026-04-09T11:25:57.904Z</time></trkpt><trkpt lat="43.2532317" lon="10.6114167"><ele>99.0</ele><time>2026-04-09T11:25:58.903Z</time></trkpt><trkpt lat="43.2532233" lon="10.61159"><ele>99.0</ele><time>2026-04-09T11:25:59.903Z</time></trkpt><trkpt lat="43.2532183" lon="10.6117717"><ele>99.0</ele><time>2026-04-09T11:26:00.904Z</time></trkpt><trkpt lat="43.2532133" lon="10.6119517"><ele>99.75</ele><time>2026-04-09T11:26:01.903Z</time></trkpt><trkpt lat="43.25321" lon="10.6121317"><ele>100.5</ele><time>2026-04-09T11:26:02.903Z</time></trkpt><trkpt lat="43.253205" lon="10.6123133"><ele>101.25</ele><time>2026-04-09T11:26:03.904Z</time></trkpt><trkpt lat="43.253195" lon="10.6124983"><ele>102.0</ele><time>2026-04-09T11:26:04.903Z</time></trkpt><trkpt lat="43.2531967" lon="10.6126667"><ele>103.25</ele><time>2026-04-09T11:26:05.903Z</time></trkpt><trkpt lat="43.2531933" lon="10.61286"><ele>104.5</ele><time>2026-04-09T11:26:06.904Z</time></trkpt><trkpt lat="43.2531917" lon="10.613045"><ele>105.75</ele><time>2026-04-09T11:26:07.904Z</time></trkpt><trkpt lat="43.2531883" lon="10.6132283"><ele>107.0</ele><time>2026-04-09T11:26:08.904Z</time></trkpt><trkpt lat="43.25318" lon="10.613405"><ele>107.0</ele><time>2026-04-09T11:26:09.904Z</time></trkpt><trkpt lat="43.2531767" lon="10.61359"><ele>107.0</ele><time>2026-04-09T11:26:10.904Z</time></trkpt><trkpt lat="43.2531733" lon="10.6137733"><ele>107.0</ele><time>2026-04-09T11:26:11.903Z</time></trkpt><trkpt lat="43.253175" lon="10.61396"><ele>107.0</ele><time>2026-04-09T11:26:12.904Z</time></trkpt><trkpt lat="43.253185" lon="10.6141433"><ele>108.25</ele><time>2026-04-09T11:26:13.904Z</time></trkpt><trkpt lat="43.253205" lon="10.6143283"><ele>109.5</ele><time>2026-04-09T11:26:14.904Z</time></trkpt><trkpt lat="43.2532217" lon="10.6145283"><ele>110.75</ele><time>2026-04-09T11:26:15.904Z</time></trkpt><trkpt lat="43.2532383" lon="10.6147383"><ele>112.0</ele><time>2026-04-09T11:26:16.904Z</time></trkpt><trkpt lat="43.2532517" lon="10.614935"><ele>112.75</ele><time>2026-04-09T11:26:17.904Z</time></trkpt><trkpt lat="43.25327" lon="10.61513"><ele>113.5</ele><time>2026-04-09T11:26:18.904Z</time></trkpt><trkpt lat="43.25329" lon="10.6153167"><ele>114.25</ele><time>2026-04-09T11:26:19.903Z</time></trkpt><trkpt lat="43.25331" lon="10.61551"><ele>115.0</ele><time>2026-04-09T11:26:20.904Z</time></trkpt><trkpt lat="43.2533283" lon="10.6156833"><ele>115.75</ele><time>2026-04-09T11:26:21.903Z</time></trkpt><trkpt lat="43.253345" lon="10.6158483"><ele>116.5</ele><time>2026-04-09T11:26:22.904Z</time></trkpt><trkpt lat="43.2533583" lon="10.6160117"><ele>117.25</ele><time>2026-04-09T11:26:23.903Z</time></trkpt><trkpt lat="43.2533717" lon="10.6161733"><ele>118.0</ele><time>2026-04-09T11:26:24.903Z</time></trkpt><trkpt lat="43.2533867" lon="10.6163217"><ele>118.33333333333334</ele><time>2026-04-09T11:26:25.904Z</time></trkpt><trkpt lat="43.2533983" lon="10.6164567"><ele>118.66666666666667</ele><time>2026-04-09T11:26:26.904Z</time></trkpt><trkpt lat="43.2534033" lon="10.6165717"><ele>119.0</ele><time>2026-04-09T11:26:27.904Z</time></trkpt><trkpt lat="43.2534217" lon="10.6166767"><ele>119.33333333333334</ele><time>2026-04-09T11:26:28.903Z</time></trkpt><trkpt lat="43.2534233" lon="10.6167983"><ele>119.66666666666667</ele><time>2026-04-09T11:26:29.903Z</time></trkpt><trkpt lat="43.25342" lon="10.61692"><ele>120.0</ele><time>2026-04-09T11:26:30.904Z</time></trkpt><trkpt lat="43.2534267" lon="10.6170367"><ele>120.2</ele><time>2026-04-09T11:26:31.904Z</time></trkpt><trkpt lat="43.2534383" lon="10.61716"><ele>120.4</ele><time>2026-04-09T11:26:32.904Z</time></trkpt><trkpt lat="43.2534467" lon="10.617295"><ele>120.6</ele><time>2026-04-09T11:26:33.904Z</time></trkpt><trkpt lat="43.25346" lon="10.617425"><ele>120.8</ele><time>2026-04-09T11:26:34.904Z</time></trkpt><trkpt lat="43.2534667" lon="10.6175617"><ele>121.0</ele><time>2026-04-09T11:26:35.904Z</time></trkpt><trkpt lat="43.253475" lon="10.6176967"><ele>121.8</ele><time>2026-04-09T11:26:36.903Z</time></trkpt><trkpt lat="43.2534867" lon="10.6178383"><ele>122.6</ele><time>2026-04-09T11:26:37.904Z</time></trkpt><trkpt lat="43.2535" lon="10.617985"><ele>123.4</ele><time>2026-04-09T11:26:38.903Z</time></trkpt><trkpt lat="43.25351" lon="10.6181267"><ele>124.2</ele><time>2026-04-09T11:26:39.904Z</time></trkpt><trkpt lat="43.2535267" lon="10.6182717"><ele>125.0</ele><time>2026-04-09T11:26:40.903Z</time></trkpt><trkpt lat="43.2535417" lon="10.6184083"><ele>125.0</ele><time>2026-04-09T11:26:41.903Z</time></trkpt><trkpt lat="43.25356" lon="10.6185533"><ele>125.0</ele><time>2026-04-09T11:26:42.903Z</time></trkpt><trkpt lat="43.25357" lon="10.6186983"><ele>125.0</ele><time>2026-04-09T11:26:43.904Z</time></trkpt><trkpt lat="43.25358" lon="10.618835"><ele>125.0</ele><time>2026-04-09T11:26:44.904Z</time></trkpt><trkpt lat="43.253595" lon="10.6189783"><ele>125.0</ele><time>2026-04-09T11:26:45.903Z</time></trkpt><trkpt lat="43.2536083" lon="10.6191133"><ele>125.33333333333333</ele><time>2026-04-09T11:26:46.903Z</time></trkpt><trkpt lat="43.2536167" lon="10.619225"><ele>125.66666666666666</ele><time>2026-04-09T11:26:47.904Z</time></trkpt><trkpt lat="43.253625" lon="10.6193267"><ele>126.0</ele><time>2026-04-09T11:26:48.904Z</time></trkpt><trkpt lat="43.2536317" lon="10.6194217"><ele>126.33333333333334</ele><time>2026-04-09T11:26:49.904Z</time></trkpt><trkpt lat="43.253645" lon="10.6195067"><ele>126.66666666666667</ele><time>2026-04-09T11:26:50.903Z</time></trkpt><trkpt lat="43.253665" lon="10.6196533"><ele>127.0</ele><time>2026-04-09T11:26:52.903Z</time></trkpt><trkpt lat="43.2537083" lon="10.6197583"><ele>127.0</ele><time>2026-04-09T11:26:54.904Z</time></trkpt><trkpt lat="43.2537917" lon="10.61982"><ele>126.99999999999999</ele><time>2026-04-09T11:26:56.903Z</time></trkpt><trkpt lat="43.2538683" lon="10.6198267"><ele>126.99999999999999</ele><time>2026-04-09T11:26:57.904Z</time></trkpt><trkpt lat="43.2539633" lon="10.6198167"><ele>127.0</ele><time>2026-04-09T11:26:58.903Z</time></trkpt><trkpt lat="43.2540633" lon="10.6198083"><ele>127.0</ele><time>2026-04-09T11:26:59.903Z</time></trkpt><trkpt lat="43.2541617" lon="10.619795"><ele>128.0</ele><time>2026-04-09T11:27:00.903Z</time></trkpt><trkpt lat="43.2542717" lon="10.61979"><ele>129.0</ele><time>2026-04-09T11:27:01.904Z</time></trkpt><trkpt lat="43.2543883" lon="10.6197867"><ele>130.0</ele><time>2026-04-09T11:27:02.904Z</time></trkpt><trkpt lat="43.2545033" lon="10.619775"><ele>131.0</ele><time>2026-04-09T11:27:03.903Z</time></trkpt><trkpt lat="43.2546217" lon="10.6197583"><ele>131.0</ele><time>2026-04-09T11:27:04.904Z</time></trkpt><trkpt lat="43.25473" lon="10.619735"><ele>131.0</ele><time>2026-04-09T11:27:05.904Z</time></trkpt><trkpt lat="43.2548433" lon="10.6197217"><ele>131.0</ele><time>2026-04-09T11:27:06.904Z</time></trkpt><trkpt lat="43.25495" lon="10.6197133"><ele>131.0</ele><time>2026-04-09T11:27:07.904Z</time></trkpt><trkpt lat="43.2550333" lon="10.6197067"><ele>131.0</ele><time>2026-04-09T11:27:08.904Z</time></trkpt><trkpt lat="43.255105" lon="10.6197"><ele>131.2</ele><time>2026-04-09T11:27:09.904Z</time></trkpt><trkpt lat="43.2551717" lon="10.6197033"><ele>131.39999999999998</ele><time>2026-04-09T11:27:10.903Z</time></trkpt><trkpt lat="43.2552733" lon="10.6197383"><ele>131.6</ele><time>2026-04-09T11:27:12.903Z</time></trkpt><trkpt lat="43.2553267" lon="10.6198383"><ele>131.79999999999998</ele><time>2026-04-09T11:27:14.904Z</time></trkpt><trkpt lat="43.25534" lon="10.6200383"><ele>132.0</ele><time>2026-04-09T11:27:16.904Z</time></trkpt><trkpt lat="43.2553333" lon="10.620175"><ele>132.5</ele><time>2026-04-09T11:27:17.904Z</time></trkpt><trkpt lat="43.2553367" lon="10.6203333"><ele>133.0</ele><time>2026-04-09T11:27:18.904Z</time></trkpt><trkpt lat="43.255345" lon="10.620505"><ele>133.5</ele><time>2026-04-09T11:27:19.903Z</time></trkpt><trkpt lat="43.2553517" lon="10.6206667"><ele>134.0</ele><time>2026-04-09T11:27:20.904Z</time></trkpt><trkpt lat="43.255355" lon="10.6207967"><ele>134.0</ele><time>2026-04-09T11:27:21.903Z</time></trkpt><trkpt lat="43.25536" lon="10.6208933"><ele>134.0</ele><time>2026-04-09T11:27:22.904Z</time></trkpt><trkpt lat="43.25539" lon="10.6210033"><ele>134.0</ele><time>2026-04-09T11:27:24.904Z</time></trkpt><trkpt lat="43.2554733" lon="10.620955"><ele>134.0</ele><time>2026-04-09T11:27:27.904Z</time></trkpt><trkpt lat="43.2555233" lon="10.6208633"><ele>134.0</ele><time>2026-04-09T11:27:28.903Z</time></trkpt><trkpt lat="43.25559" lon="10.6207417"><ele>134.0</ele><time>2026-04-09T11:27:29.904Z</time></trkpt><trkpt lat="43.25565" lon="10.62062"><ele>133.33333333333331</ele><time>2026-04-09T11:27:30.904Z</time></trkpt><trkpt lat="43.2557117" lon="10.6205067"><ele>132.66666666666666</ele><time>2026-04-09T11:27:31.904Z</time></trkpt><trkpt lat="43.2557633" lon="10.6204117"><ele>132.0</ele><time>2026-04-09T11:27:32.904Z</time></trkpt><trkpt lat="43.2558083" lon="10.620315"><ele>131.33333333333334</ele><time>2026-04-09T11:27:33.904Z</time></trkpt><trkpt lat="43.2558517" lon="10.620215"><ele>130.66666666666669</ele><time>2026-04-09T11:27:34.904Z</time></trkpt><trkpt lat="43.2558767" lon="10.6201067"><ele>130.0</ele><time>2026-04-09T11:27:35.904Z</time></trkpt><trkpt lat="43.2558967" lon="10.6200133"><ele>130.0</ele><time>2026-04-09T11:27:36.904Z</time></trkpt><trkpt lat="43.2559" lon="10.6198867"><ele>130.0</ele><time>2026-04-09T11:27:37.903Z</time></trkpt><trkpt lat="43.2558867" lon="10.6197483"><ele>130.0</ele><time>2026-04-09T11:27:38.903Z</time></trkpt><trkpt lat="43.255865" lon="10.6195983"><ele>130.0</ele><time>2026-04-09T11:27:39.903Z</time></trkpt><trkpt lat="43.2558583" lon="10.6194467"><ele>130.0</ele><time>2026-04-09T11:27:40.904Z</time></trkpt><trkpt lat="43.2558583" lon="10.6192933"><ele>128.8</ele><time>2026-04-09T11:27:41.904Z</time></trkpt><trkpt lat="43.25586" lon="10.6191667"><ele>127.6</ele><time>2026-04-09T11:27:42.904Z</time></trkpt><trkpt lat="43.2558767" lon="10.6190667"><ele>126.4</ele><time>2026-04-09T11:27:43.904Z</time></trkpt><trkpt lat="43.2559383" lon="10.6188983"><ele>125.2</ele><time>2026-04-09T11:27:45.903Z</time></trkpt><trkpt lat="43.2559883" lon="10.6188183"><ele>124.0</ele><time>2026-04-09T11:27:46.903Z</time></trkpt><trkpt lat="43.2560567" lon="10.6187683"><ele>124.00000000000001</ele><time>2026-04-09T11:27:47.903Z</time></trkpt><trkpt lat="43.256135" lon="10.61872"><ele>124.0</ele><time>2026-04-09T11:27:48.904Z</time></trkpt><trkpt lat="43.256215" lon="10.618685"><ele>124.0</ele><time>2026-04-09T11:27:49.904Z</time></trkpt><trkpt lat="43.2562883" lon="10.6186683"><ele>124.0</ele><time>2026-04-09T11:27:50.904Z</time></trkpt><trkpt lat="43.25636" lon="10.6186767"><ele>124.00000000000001</ele><time>2026-04-09T11:27:51.904Z</time></trkpt><trkpt lat="43.2564283" lon="10.618695"><ele>124.0</ele><time>2026-04-09T11:27:52.904Z</time></trkpt><trkpt lat="43.2564883" lon="10.618735"><ele>120.4</ele><time>2026-04-09T11:27:53.904Z</time></trkpt><trkpt lat="43.2565433" lon="10.6187883"><ele>116.80000000000001</ele><time>2026-04-09T11:27:54.904Z</time></trkpt><trkpt lat="43.256605" lon="10.6188617"><ele>113.19999999999999</ele><time>2026-04-09T11:27:55.903Z</time></trkpt><trkpt lat="43.25667" lon="10.6189783"><ele>109.6</ele><time>2026-04-09T11:27:56.904Z</time></trkpt><trkpt lat="43.256735" lon="10.6191383"><ele>106.0</ele><time>2026-04-09T11:27:57.904Z</time></trkpt><trkpt lat="43.256795" lon="10.619295"><ele>106.0</ele><time>2026-04-09T11:27:58.904Z</time></trkpt><trkpt lat="43.2568633" lon="10.6194433"><ele>106.0</ele><time>2026-04-09T11:27:59.903Z</time></trkpt><trkpt lat="43.2569217" lon="10.61957"><ele>106.0</ele><time>2026-04-09T11:28:00.904Z</time></trkpt><trkpt lat="43.256985" lon="10.6197"><ele>106.0</ele><time>2026-04-09T11:28:01.904Z</time></trkpt><trkpt lat="43.2570383" lon="10.6198183"><ele>106.6</ele><time>2026-04-09T11:28:02.903Z</time></trkpt><trkpt lat="43.2570917" lon="10.61995"><ele>107.19999999999999</ele><time>2026-04-09T11:28:03.903Z</time></trkpt><trkpt lat="43.25713" lon="10.6200817"><ele>107.80000000000001</ele><time>2026-04-09T11:28:04.904Z</time></trkpt><trkpt lat="43.2571617" lon="10.6202167"><ele>108.4</ele><time>2026-04-09T11:28:05.904Z</time></trkpt><trkpt lat="43.2571833" lon="10.62033"><ele>109.0</ele><time>2026-04-09T11:28:06.904Z</time></trkpt><trkpt lat="43.2572017" lon="10.6204367"><ele>109.66666666666667</ele><time>2026-04-09T11:28:07.904Z</time></trkpt><trkpt lat="43.2572267" lon="10.6205383"><ele>110.33333333333334</ele><time>2026-04-09T11:28:08.903Z</time></trkpt><trkpt lat="43.2572483" lon="10.6206433"><ele>111.0</ele><time>2026-04-09T11:28:09.903Z</time></trkpt><trkpt lat="43.2572867" lon="10.620765"><ele>111.66666666666666</ele><time>2026-04-09T11:28:10.903Z</time></trkpt><trkpt lat="43.2573333" lon="10.62087"><ele>112.33333333333333</ele><time>2026-04-09T11:28:11.904Z</time></trkpt><trkpt lat="43.2573783" lon="10.6209617"><ele>113.0</ele><time>2026-04-09T11:28:12.904Z</time></trkpt><trkpt lat="43.2574283" lon="10.6210367"><ele>109.99999999999999</ele><time>2026-04-09T11:28:13.904Z</time></trkpt><trkpt lat="43.257485" lon="10.6211"><ele>107.0</ele><time>2026-04-09T11:28:14.904Z</time></trkpt><trkpt lat="43.2575483" lon="10.6211267"><ele>104.0</ele><time>2026-04-09T11:28:15.904Z</time></trkpt><trkpt lat="43.257615" lon="10.6211333"><ele>101.0</ele><time>2026-04-09T11:28:16.904Z</time></trkpt><trkpt lat="43.2576883" lon="10.6211"><ele>98.0</ele><time>2026-04-09T11:28:17.903Z</time></trkpt><trkpt lat="43.25774" lon="10.62102"><ele>95.0</ele><time>2026-04-09T11:28:18.903Z</time></trkpt><trkpt lat="43.2577767" lon="10.6209083"><ele>95.0</ele><time>2026-04-09T11:28:19.904Z</time></trkpt><trkpt lat="43.2577983" lon="10.620775"><ele>95.0</ele><time>2026-04-09T11:28:20.904Z</time></trkpt><trkpt lat="43.2577933" lon="10.6206017"><ele>95.0</ele><time>2026-04-09T11:28:21.904Z</time></trkpt><trkpt lat="43.2577967" lon="10.6204467"><ele>95.0</ele><time>2026-04-09T11:28:22.903Z</time></trkpt><trkpt lat="43.2578217" lon="10.6202883"><ele>94.25</ele><time>2026-04-09T11:28:23.904Z</time></trkpt><trkpt lat="43.2578533" lon="10.6201417"><ele>93.5</ele><time>2026-04-09T11:28:24.904Z</time></trkpt><trkpt lat="43.2579" lon="10.6199833"><ele>92.75</ele><time>2026-04-09T11:28:25.903Z</time></trkpt><trkpt lat="43.2579583" lon="10.619825"><ele>92.0</ele><time>2026-04-09T11:28:26.904Z</time></trkpt><trkpt lat="43.2580317" lon="10.6196717"><ele>92.0</ele><time>2026-04-09T11:28:27.904Z</time></trkpt><trkpt lat="43.258105" lon="10.61952"><ele>92.0</ele><time>2026-04-09T11:28:28.903Z</time></trkpt><trkpt lat="43.2581883" lon="10.6193717"><ele>92.0</ele><time>2026-04-09T11:28:29.904Z</time></trkpt><trkpt lat="43.258265" lon="10.6192383"><ele>92.0</ele><time>2026-04-09T11:28:30.904Z</time></trkpt><trkpt lat="43.2583383" lon="10.6191083"><ele>90.19999999999999</ele><time>2026-04-09T11:28:31.903Z</time></trkpt><trkpt lat="43.2584133" lon="10.6189883"><ele>88.4</ele><time>2026-04-09T11:28:32.904Z</time></trkpt><trkpt lat="43.25849" lon="10.618885"><ele>86.6</ele><time>2026-04-09T11:28:33.904Z</time></trkpt><trkpt lat="43.2585683" lon="10.6187883"><ele>84.80000000000001</ele><time>2026-04-09T11:28:34.903Z</time></trkpt><trkpt lat="43.258655" lon="10.6187133"><ele>83.0</ele><time>2026-04-09T11:28:35.904Z</time></trkpt><trkpt lat="43.2587467" lon="10.6186467"><ele>82.2</ele><time>2026-04-09T11:28:36.904Z</time></trkpt><trkpt lat="43.25884" lon="10.61858"><ele>81.4</ele><time>2026-04-09T11:28:37.904Z</time></trkpt><trkpt lat="43.25894" lon="10.6185033"><ele>80.60000000000001</ele><time>2026-04-09T11:28:38.904Z</time></trkpt><trkpt lat="43.259035" lon="10.61843"><ele>79.80000000000001</ele><time>2026-04-09T11:28:39.904Z</time></trkpt><trkpt lat="43.25912" lon="10.6183617"><ele>79.0</ele><time>2026-04-09T11:28:40.904Z</time></trkpt><trkpt lat="43.2592117" lon="10.618295"><ele>79.0</ele><time>2026-04-09T11:28:41.904Z</time></trkpt><trkpt lat="43.2593117" lon="10.618235"><ele>79.0</ele><time>2026-04-09T11:28:42.904Z</time></trkpt><trkpt lat="43.2594183" lon="10.6181967"><ele>79.0</ele><time>2026-04-09T11:28:43.904Z</time></trkpt><trkpt lat="43.2595317" lon="10.6181733"><ele>79.0</ele><time>2026-04-09T11:28:44.904Z</time></trkpt><trkpt lat="43.259645" lon="10.6181667"><ele>79.0</ele><time>2026-04-09T11:28:45.904Z</time></trkpt><trkpt lat="43.259755" lon="10.618155"><ele>79.0</ele><time>2026-04-09T11:28:46.904Z</time></trkpt><trkpt lat="43.2598583" lon="10.6181217"><ele>79.0</ele><time>2026-04-09T11:28:47.904Z</time></trkpt><trkpt lat="43.25995" lon="10.61807"><ele>79.0</ele><time>2026-04-09T11:28:48.904Z</time></trkpt><trkpt lat="43.2600467" lon="10.61798"><ele>79.0</ele><time>2026-04-09T11:28:49.904Z</time></trkpt><trkpt lat="43.2601417" lon="10.6178783"><ele>79.0</ele><time>2026-04-09T11:28:50.904Z</time></trkpt><trkpt lat="43.26025" lon="10.6177683"><ele>79.0</ele><time>2026-04-09T11:28:51.903Z</time></trkpt><trkpt lat="43.26038" lon="10.6176767"><ele>79.0</ele><time>2026-04-09T11:28:52.904Z</time></trkpt><trkpt lat="43.2605117" lon="10.61757"><ele>79.0</ele><time>2026-04-09T11:28:53.904Z</time></trkpt><trkpt lat="43.260645" lon="10.61744"><ele>79.0</ele><time>2026-04-09T11:28:54.904Z</time></trkpt><trkpt lat="43.2607717" lon="10.6173"><ele>79.0</ele><time>2026-04-09T11:28:55.903Z</time></trkpt><trkpt lat="43.2608833" lon="10.6171617"><ele>79.0</ele><time>2026-04-09T11:28:56.904Z</time></trkpt><trkpt lat="43.2609817" lon="10.617025"><ele>78.75</ele><time>2026-04-09T11:28:57.904Z</time></trkpt><trkpt lat="43.26107" lon="10.6168883"><ele>78.5</ele><time>2026-04-09T11:28:58.904Z</time></trkpt><trkpt lat="43.26114" lon="10.6167567"><ele>78.25</ele><time>2026-04-09T11:28:59.903Z</time></trkpt><trkpt lat="43.261205" lon="10.6166233"><ele>78.0</ele><time>2026-04-09T11:29:00.904Z</time></trkpt><trkpt lat="43.2612617" lon="10.6164967"><ele>78.0</ele><time>2026-04-09T11:29:01.903Z</time></trkpt><trkpt lat="43.26132" lon="10.6163817"><ele>78.0</ele><time>2026-04-09T11:29:02.904Z</time></trkpt><trkpt lat="43.2613733" lon="10.61628"><ele>78.0</ele><time>2026-04-09T11:29:03.904Z</time></trkpt><trkpt lat="43.26143" lon="10.6161983"><ele>78.0</ele><time>2026-04-09T11:29:04.904Z</time></trkpt><trkpt lat="43.2615033" lon="10.616155"><ele>78.0</ele><time>2026-04-09T11:29:05.904Z</time></trkpt><trkpt lat="43.2615867" lon="10.6161533"><ele>78.0</ele><time>2026-04-09T11:29:06.904Z</time></trkpt><trkpt lat="43.2616733" lon="10.61621"><ele>76.0</ele><time>2026-04-09T11:29:07.904Z</time></trkpt><trkpt lat="43.2617717" lon="10.6163233"><ele>74.0</ele><time>2026-04-09T11:29:08.904Z</time></trkpt><trkpt lat="43.26189" lon="10.6164583"><ele>72.0</ele><time>2026-04-09T11:29:09.904Z</time></trkpt><trkpt lat="43.2620033" lon="10.61658"><ele>70.0</ele><time>2026-04-09T11:29:10.904Z</time></trkpt><trkpt lat="43.2621017" lon="10.6166817"><ele>70.0</ele><time>2026-04-09T11:29:11.904Z</time></trkpt><trkpt lat="43.2621833" lon="10.61675"><ele>70.0</ele><time>2026-04-09T11:29:12.904Z</time></trkpt><trkpt lat="43.2622633" lon="10.616785"><ele>70.0</ele><time>2026-04-09T11:29:13.904Z</time></trkpt><trkpt lat="43.262345" lon="10.6167733"><ele>70.0</ele><time>2026-04-09T11:29:14.903Z</time></trkpt><trkpt lat="43.2624433" lon="10.6166933"><ele>70.0</ele><time>2026-04-09T11:29:15.904Z</time></trkpt><trkpt lat="43.2625433" lon="10.6165417"><ele>69.25</ele><time>2026-04-09T11:29:16.903Z</time></trkpt><trkpt lat="43.2626383" lon="10.616365"><ele>68.5</ele><time>2026-04-09T11:29:17.904Z</time></trkpt><trkpt lat="43.26272" lon="10.6162017"><ele>67.75</ele><time>2026-04-09T11:29:18.904Z</time></trkpt><trkpt lat="43.2627783" lon="10.6160633"><ele>67.0</ele><time>2026-04-09T11:29:19.904Z</time></trkpt><trkpt lat="43.2628133" lon="10.6159267"><ele>66.4</ele><time>2026-04-09T11:29:20.903Z</time></trkpt><trkpt lat="43.2628117" lon="10.6157983"><ele>65.80000000000001</ele><time>2026-04-09T11:29:21.904Z</time></trkpt><trkpt lat="43.2627867" lon="10.615675"><ele>65.2</ele><time>2026-04-09T11:29:22.903Z</time></trkpt><trkpt lat="43.2627583" lon="10.6155767"><ele>64.60000000000001</ele><time>2026-04-09T11:29:23.904Z</time></trkpt><trkpt lat="43.2628067" lon="10.6154267"><ele>64.0</ele><time>2026-04-09T11:29:25.904Z</time></trkpt><trkpt lat="43.2628917" lon="10.6153733"><ele>64.0</ele><time>2026-04-09T11:29:26.903Z</time></trkpt><trkpt lat="43.2629833" lon="10.6153"><ele>64.0</ele><time>2026-04-09T11:29:27.904Z</time></trkpt><trkpt lat="43.263055" lon="10.6151583"><ele>64.0</ele><time>2026-04-09T11:29:28.904Z</time></trkpt><trkpt lat="43.2631267" lon="10.6149783"><ele>64.0</ele><time>2026-04-09T11:29:29.904Z</time></trkpt><trkpt lat="43.26321" lon="10.614775"><ele>64.0</ele><time>2026-04-09T11:29:30.903Z</time></trkpt><trkpt lat="43.2632983" lon="10.61457"><ele>64.0</ele><time>2026-04-09T11:29:31.904Z</time></trkpt><trkpt lat="43.2634" lon="10.6143783"><ele>64.0</ele><time>2026-04-09T11:29:32.903Z</time></trkpt><trkpt lat="43.2635083" lon="10.6141917"><ele>64.33333333333333</ele><time>2026-04-09T11:29:33.904Z</time></trkpt><trkpt lat="43.2636433" lon="10.6140283"><ele>64.66666666666667</ele><time>2026-04-09T11:29:34.903Z</time></trkpt><trkpt lat="43.263775" lon="10.613875"><ele>65.0</ele><time>2026-04-09T11:29:35.904Z</time></trkpt><trkpt lat="43.2639183" lon="10.6137517"><ele>66.25</ele><time>2026-04-09T11:29:36.904Z</time></trkpt><trkpt lat="43.2640583" lon="10.6136517"><ele>67.5</ele><time>2026-04-09T11:29:37.904Z</time></trkpt><trkpt lat="43.2641883" lon="10.6135683"><ele>68.75</ele><time>2026-04-09T11:29:38.904Z</time></trkpt><trkpt lat="43.2643183" lon="10.6134967"><ele>70.0</ele><time>2026-04-09T11:29:39.904Z</time></trkpt><trkpt lat="43.2644483" lon="10.61343"><ele>70.0</ele><time>2026-04-09T11:29:40.903Z</time></trkpt><trkpt lat="43.264585" lon="10.6133783"><ele>70.0</ele><time>2026-04-09T11:29:41.904Z</time></trkpt><trkpt lat="43.26472" lon="10.6133483"><ele>70.0</ele><time>2026-04-09T11:29:42.904Z</time></trkpt><trkpt lat="43.26485" lon="10.6133"><ele>70.0</ele><time>2026-04-09T11:29:43.904Z</time></trkpt><trkpt lat="43.264975" lon="10.6132333"><ele>70.5</ele><time>2026-04-09T11:29:44.903Z</time></trkpt><trkpt lat="43.265105" lon="10.6131517"><ele>71.0</ele><time>2026-04-09T11:29:45.904Z</time></trkpt><trkpt lat="43.26523" lon="10.61306"><ele>71.5</ele><time>2026-04-09T11:29:46.904Z</time></trkpt><trkpt lat="43.2653583" lon="10.612965"><ele>72.0</ele><time>2026-04-09T11:29:47.904Z</time></trkpt><trkpt lat="43.265485" lon="10.6128633"><ele>71.66666666666667</ele><time>2026-04-09T11:29:48.904Z</time></trkpt><trkpt lat="43.26561" lon="10.6127633"><ele>71.33333333333334</ele><time>2026-04-09T11:29:49.903Z</time></trkpt><trkpt lat="43.265745" lon="10.6126667"><ele>71.0</ele><time>2026-04-09T11:29:50.904Z</time></trkpt><trkpt lat="43.2658833" lon="10.6125633"><ele>71.0</ele><time>2026-04-09T11:29:51.904Z</time></trkpt><trkpt lat="43.26602" lon="10.6124517"><ele>71.0</ele><time>2026-04-09T11:29:52.903Z</time></trkpt><trkpt lat="43.266165" lon="10.612345"><ele>71.0</ele><time>2026-04-09T11:29:53.904Z</time></trkpt><trkpt lat="43.2663083" lon="10.61224"><ele>71.0</ele><time>2026-04-09T11:29:54.903Z</time></trkpt><trkpt lat="43.2664333" lon="10.6121433"><ele>71.0</ele><time>2026-04-09T11:29:55.904Z</time></trkpt><trkpt lat="43.266545" lon="10.6120517"><ele>71.0</ele><time>2026-04-09T11:29:56.903Z</time></trkpt><trkpt lat="43.2666417" lon="10.6119483"><ele>71.0</ele><time>2026-04-09T11:29:57.904Z</time></trkpt><trkpt lat="43.2667267" lon="10.6118267"><ele>69.66666666666667</ele><time>2026-04-09T11:29:58.904Z</time></trkpt><trkpt lat="43.2667967" lon="10.6116633"><ele>68.33333333333333</ele><time>2026-04-09T11:29:59.904Z</time></trkpt><trkpt lat="43.2668517" lon="10.6114667"><ele>67.0</ele><time>2026-04-09T11:30:00.904Z</time></trkpt><trkpt lat="43.2669067" lon="10.6112517"><ele>66.0</ele><time>2026-04-09T11:30:01.904Z</time></trkpt><trkpt lat="43.266965" lon="10.61104"><ele>65.0</ele><time>2026-04-09T11:30:02.903Z</time></trkpt><trkpt lat="43.267035" lon="10.610845"><ele>64.0</ele><time>2026-04-09T11:30:03.904Z</time></trkpt><trkpt lat="43.2671233" lon="10.61065"><ele>64.0</ele><time>2026-04-09T11:30:04.904Z</time></trkpt><trkpt lat="43.2672267" lon="10.6104617"><ele>64.0</ele><time>2026-04-09T11:30:05.904Z</time></trkpt><trkpt lat="43.267325" lon="10.6102767"><ele>64.0</ele><time>2026-04-09T11:30:06.903Z</time></trkpt><trkpt lat="43.2674117" lon="10.610085"><ele>64.33333333333333</ele><time>2026-04-09T11:30:07.904Z</time></trkpt><trkpt lat="43.2674817" lon="10.60987"><ele>64.66666666666667</ele><time>2026-04-09T11:30:08.903Z</time></trkpt><trkpt lat="43.2675183" lon="10.6096417"><ele>65.0</ele><time>2026-04-09T11:30:09.903Z</time></trkpt><trkpt lat="43.2675517" lon="10.6094"><ele>65.0</ele><time>2026-04-09T11:30:10.904Z</time></trkpt><trkpt lat="43.2675867" lon="10.609165"><ele>65.0</ele><time>2026-04-09T11:30:11.904Z</time></trkpt><trkpt lat="43.2676333" lon="10.6089417"><ele>65.0</ele><time>2026-04-09T11:30:12.903Z</time></trkpt><trkpt lat="43.2676883" lon="10.6087317"><ele>66.25</ele><time>2026-04-09T11:30:13.904Z</time></trkpt><trkpt lat="43.2677633" lon="10.6085367"><ele>67.5</ele><time>2026-04-09T11:30:14.903Z</time></trkpt><trkpt lat="43.2678483" lon="10.6083733"><ele>68.75</ele><time>2026-04-09T11:30:15.904Z</time></trkpt><trkpt lat="43.2679267" lon="10.6082367"><ele>70.0</ele><time>2026-04-09T11:30:16.904Z</time></trkpt><trkpt lat="43.2680017" lon="10.6081283"><ele>70.0</ele><time>2026-04-09T11:30:17.904Z</time></trkpt><trkpt lat="43.2680833" lon="10.6080367"><ele>70.0</ele><time>2026-04-09T11:30:18.904Z</time></trkpt><trkpt lat="43.26817" lon="10.60796"><ele>70.0</ele><time>2026-04-09T11:30:19.904Z</time></trkpt><trkpt lat="43.26825" lon="10.607875"><ele>70.0</ele><time>2026-04-09T11:30:20.904Z</time></trkpt><trkpt lat="43.268335" lon="10.607795"><ele>70.0</ele><time>2026-04-09T11:30:21.904Z</time></trkpt><trkpt lat="43.268405" lon="10.6077017"><ele>70.83333333333333</ele><time>2026-04-09T11:30:22.904Z</time></trkpt><trkpt lat="43.2684683" lon="10.6076067"><ele>71.66666666666666</ele><time>2026-04-09T11:30:23.903Z</time></trkpt><trkpt lat="43.2685133" lon="10.607535"><ele>72.5</ele><time>2026-04-09T11:30:24.904Z</time></trkpt><trkpt lat="43.2685517" lon="10.6074217"><ele>73.33333333333333</ele><time>2026-04-09T11:30:26.904Z</time></trkpt><trkpt lat="43.2684983" lon="10.607335"><ele>74.16666666666667</ele><time>2026-04-09T11:30:28.904Z</time></trkpt><trkpt lat="43.2684383" lon="10.6073"><ele>75.0</ele><time>2026-04-09T11:30:29.903Z</time></trkpt><trkpt lat="43.268355" lon="10.6072633"><ele>75.0</ele><time>2026-04-09T11:30:30.904Z</time></trkpt><trkpt lat="43.2682533" lon="10.6072233"><ele>75.0</ele><time>2026-04-09T11:30:31.904Z</time></trkpt><trkpt lat="43.2681167" lon="10.6071567"><ele>75.0</ele><time>2026-04-09T11:30:32.904Z</time></trkpt><trkpt lat="43.26799" lon="10.6070783"><ele>75.0</ele><time>2026-04-09T11:30:33.903Z</time></trkpt><trkpt lat="43.2678883" lon="10.6069867"><ele>77.0</ele><time>2026-04-09T11:30:34.904Z</time></trkpt><trkpt lat="43.2677883" lon="10.6068817"><ele>79.0</ele><time>2026-04-09T11:30:35.904Z</time></trkpt><trkpt lat="43.2677033" lon="10.60678"><ele>81.0</ele><time>2026-04-09T11:30:36.903Z</time></trkpt><trkpt lat="43.2676367" lon="10.60668"><ele>83.0</ele><time>2026-04-09T11:30:37.904Z</time></trkpt><trkpt lat="43.2675817" lon="10.606555"><ele>85.0</ele><time>2026-04-09T11:30:38.903Z</time></trkpt><trkpt lat="43.267555" lon="10.60641"><ele>85.0</ele><time>2026-04-09T11:30:39.903Z</time></trkpt><trkpt lat="43.267525" lon="10.60624"><ele>85.0</ele><time>2026-04-09T11:30:40.904Z</time></trkpt><trkpt lat="43.26749" lon="10.6060867"><ele>85.0</ele><time>2026-04-09T11:30:41.904Z</time></trkpt><trkpt lat="43.2674683" lon="10.6059567"><ele>85.0</ele><time>2026-04-09T11:30:42.903Z</time></trkpt><trkpt lat="43.2674467" lon="10.60584"><ele>85.0</ele><time>2026-04-09T11:30:43.903Z</time></trkpt><trkpt lat="43.267405" lon="10.60572"><ele>86.0</ele><time>2026-04-09T11:30:44.903Z</time></trkpt><trkpt lat="43.267335" lon="10.6055933"><ele>87.0</ele><time>2026-04-09T11:30:45.904Z</time></trkpt><trkpt lat="43.267265" lon="10.605455"><ele>88.0</ele><time>2026-04-09T11:30:46.904Z</time></trkpt><trkpt lat="43.26721" lon="10.6053183"><ele>89.0</ele><time>2026-04-09T11:30:47.904Z</time></trkpt><trkpt lat="43.26716" lon="10.6051767"><ele>90.25</ele><time>2026-04-09T11:30:48.904Z</time></trkpt><trkpt lat="43.2670933" lon="10.6050533"><ele>91.5</ele><time>2026-04-09T11:30:49.903Z</time></trkpt><trkpt lat="43.2670367" lon="10.60494"><ele>92.75</ele><time>2026-04-09T11:30:50.903Z</time></trkpt><trkpt lat="43.2669667" lon="10.6048"><ele>94.0</ele><time>2026-04-09T11:30:51.904Z</time></trkpt><trkpt lat="43.266905" lon="10.604635"><ele>93.6</ele><time>2026-04-09T11:30:52.904Z</time></trkpt><trkpt lat="43.2668417" lon="10.6044667"><ele>93.2</ele><time>2026-04-09T11:30:53.903Z</time></trkpt><trkpt lat="43.266785" lon="10.6043233"><ele>92.8</ele><time>2026-04-09T11:30:54.903Z</time></trkpt><trkpt lat="43.2667383" lon="10.6042033"><ele>92.39999999999999</ele><time>2026-04-09T11:30:55.903Z</time></trkpt><trkpt lat="43.2666967" lon="10.6041233"><ele>92.0</ele><time>2026-04-09T11:30:56.903Z</time></trkpt><trkpt lat="43.2666417" lon="10.604075"><ele>92.0</ele><time>2026-04-09T11:30:57.904Z</time></trkpt><trkpt lat="43.2665533" lon="10.6040683"><ele>92.0</ele><time>2026-04-09T11:30:58.904Z</time></trkpt><trkpt lat="43.26644" lon="10.6040733"><ele>92.0</ele><time>2026-04-09T11:30:59.904Z</time></trkpt><trkpt lat="43.26632" lon="10.6040617"><ele>92.0</ele><time>2026-04-09T11:31:00.904Z</time></trkpt><trkpt lat="43.2662167" lon="10.6040367"><ele>92.0</ele><time>2026-04-09T11:31:01.904Z</time></trkpt><trkpt lat="43.2661317" lon="10.6039983"><ele>92.19999999999999</ele><time>2026-04-09T11:31:02.903Z</time></trkpt><trkpt lat="43.26606" lon="10.6039433"><ele>92.4</ele><time>2026-04-09T11:31:03.904Z</time></trkpt><trkpt lat="43.2659983" lon="10.6038583"><ele>92.6</ele><time>2026-04-09T11:31:04.903Z</time></trkpt><trkpt lat="43.265935" lon="10.603755"><ele>92.80000000000001</ele><time>2026-04-09T11:31:05.903Z</time></trkpt><trkpt lat="43.2658783" lon="10.6036317"><ele>93.0</ele><time>2026-04-09T11:31:06.903Z</time></trkpt><trkpt lat="43.265835" lon="10.6035067"><ele>93.0</ele><time>2026-04-09T11:31:07.903Z</time></trkpt><trkpt lat="43.2657933" lon="10.6033683"><ele>93.0</ele><time>2026-04-09T11:31:08.903Z</time></trkpt><trkpt lat="43.2657633" lon="10.60322"><ele>93.0</ele><time>2026-04-09T11:31:09.903Z</time></trkpt><trkpt lat="43.2657467" lon="10.6030683"><ele>93.0</ele><time>2026-04-09T11:31:10.904Z</time></trkpt><trkpt lat="43.2657283" lon="10.6029083"><ele>92.25</ele><time>2026-04-09T11:31:11.904Z</time></trkpt><trkpt lat="43.2657067" lon="10.60273"><ele>91.5</ele><time>2026-04-09T11:31:12.904Z</time></trkpt><trkpt lat="43.2656717" lon="10.60254"><ele>90.75</ele><time>2026-04-09T11:31:13.904Z</time></trkpt><trkpt lat="43.2656267" lon="10.602335"><ele>90.0</ele><time>2026-04-09T11:31:14.904Z</time></trkpt><trkpt lat="43.2655883" lon="10.6021467"><ele>90.0</ele><time>2026-04-09T11:31:15.904Z</time></trkpt><trkpt lat="43.2655583" lon="10.60199"><ele>90.0</ele><time>2026-04-09T11:31:16.904Z</time></trkpt><trkpt lat="43.2655333" lon="10.6018583"><ele>90.0</ele><time>2026-04-09T11:31:17.904Z</time></trkpt><trkpt lat="43.2655183" lon="10.601745"><ele>90.0</ele><time>2026-04-09T11:31:18.904Z</time></trkpt><trkpt lat="43.2655083" lon="10.601635"><ele>90.0</ele><time>2026-04-09T11:31:19.903Z</time></trkpt><trkpt lat="43.2655033" lon="10.6015367"><ele>90.0</ele><time>2026-04-09T11:31:20.903Z</time></trkpt><trkpt lat="43.2655317" lon="10.6014383"><ele>90.0</ele><time>2026-04-09T11:31:21.904Z</time></trkpt><trkpt lat="43.26558" lon="10.6013417"><ele>90.0</ele><time>2026-04-09T11:31:22.904Z</time></trkpt><trkpt lat="43.2656517" lon="10.6012433"><ele>90.0</ele><time>2026-04-09T11:31:23.904Z</time></trkpt><trkpt lat="43.2657167" lon="10.6011683"><ele>90.0</ele><time>2026-04-09T11:31:24.903Z</time></trkpt><trkpt lat="43.26578" lon="10.601125"><ele>90.0</ele><time>2026-04-09T11:31:25.904Z</time></trkpt><trkpt lat="43.2658517" lon="10.6011133"><ele>89.6</ele><time>2026-04-09T11:31:26.904Z</time></trkpt><trkpt lat="43.2659483" lon="10.60113"><ele>89.2</ele><time>2026-04-09T11:31:27.904Z</time></trkpt><trkpt lat="43.2660333" lon="10.6011633"><ele>88.80000000000001</ele><time>2026-04-09T11:31:28.903Z</time></trkpt><trkpt lat="43.2661117" lon="10.601185"><ele>88.4</ele><time>2026-04-09T11:31:29.904Z</time></trkpt><trkpt lat="43.26623" lon="10.6011483"><ele>88.0</ele><time>2026-04-09T11:31:31.904Z</time></trkpt><trkpt lat="43.2662917" lon="10.601"><ele>88.0</ele><time>2026-04-09T11:31:33.903Z</time></trkpt><trkpt lat="43.2662883" lon="10.6008717"><ele>88.0</ele><time>2026-04-09T11:31:34.903Z</time></trkpt><trkpt lat="43.266275" lon="10.6007117"><ele>88.0</ele><time>2026-04-09T11:31:35.904Z</time></trkpt><trkpt lat="43.2662583" lon="10.6005467"><ele>88.0</ele><time>2026-04-09T11:31:36.904Z</time></trkpt><trkpt lat="43.26625" lon="10.60038"><ele>87.4</ele><time>2026-04-09T11:31:37.904Z</time></trkpt><trkpt lat="43.266255" lon="10.60023"><ele>86.80000000000001</ele><time>2026-04-09T11:31:38.904Z</time></trkpt><trkpt lat="43.26626" lon="10.6000783"><ele>86.2</ele><time>2026-04-09T11:31:39.904Z</time></trkpt><trkpt lat="43.2662733" lon="10.5999467"><ele>85.6</ele><time>2026-04-09T11:31:40.904Z</time></trkpt><trkpt lat="43.2662967" lon="10.5998383"><ele>85.0</ele><time>2026-04-09T11:31:41.904Z</time></trkpt><trkpt lat="43.2663283" lon="10.59973"><ele>85.0</ele><time>2026-04-09T11:31:42.904Z</time></trkpt><trkpt lat="43.2663767" lon="10.5996333"><ele>85.0</ele><time>2026-04-09T11:31:43.904Z</time></trkpt><trkpt lat="43.26645" lon="10.599525"><ele>85.0</ele><time>2026-04-09T11:31:44.903Z</time></trkpt><trkpt lat="43.266505" lon="10.5994083"><ele>85.0</ele><time>2026-04-09T11:31:45.903Z</time></trkpt><trkpt lat="43.2665433" lon="10.59928"><ele>85.0</ele><time>2026-04-09T11:31:46.903Z</time></trkpt><trkpt lat="43.26656" lon="10.599135"><ele>84.66666666666666</ele><time>2026-04-09T11:31:47.904Z</time></trkpt><trkpt lat="43.2665417" lon="10.5990233"><ele>84.33333333333333</ele><time>2026-04-09T11:31:48.904Z</time></trkpt><trkpt lat="43.2665033" lon="10.598935"><ele>84.0</ele><time>2026-04-09T11:31:49.904Z</time></trkpt><trkpt lat="43.2664583" lon="10.5988683"><ele>83.66666666666667</ele><time>2026-04-09T11:31:50.904Z</time></trkpt><trkpt lat="43.2663883" lon="10.5988167"><ele>83.33333333333334</ele><time>2026-04-09T11:31:51.904Z</time></trkpt><trkpt lat="43.266285" lon="10.598795"><ele>83.0</ele><time>2026-04-09T11:31:52.903Z</time></trkpt><trkpt lat="43.2661733" lon="10.5987867"><ele>83.0</ele><time>2026-04-09T11:31:53.904Z</time></trkpt><trkpt lat="43.2660567" lon="10.598775"><ele>83.0</ele><time>2026-04-09T11:31:54.903Z</time></trkpt><trkpt lat="43.2659617" lon="10.5987817"><ele>83.0</ele><time>2026-04-09T11:31:55.904Z</time></trkpt><trkpt lat="43.265865" lon="10.5987667"><ele>83.0</ele><time>2026-04-09T11:31:56.904Z</time></trkpt><trkpt lat="43.265755" lon="10.5987067"><ele>83.0</ele><time>2026-04-09T11:31:58.904Z</time></trkpt><trkpt lat="43.2656683" lon="10.5985717"><ele>82.4</ele><time>2026-04-09T11:32:00.904Z</time></trkpt><trkpt lat="43.26563" lon="10.5984617"><ele>81.80000000000001</ele><time>2026-04-09T11:32:01.903Z</time></trkpt><trkpt lat="43.26559" lon="10.598345"><ele>81.2</ele><time>2026-04-09T11:32:02.903Z</time></trkpt><trkpt lat="43.26554" lon="10.598225"><ele>80.6</ele><time>2026-04-09T11:32:03.903Z</time></trkpt><trkpt lat="43.2654867" lon="10.598115"><ele>80.0</ele><time>2026-04-09T11:32:04.903Z</time></trkpt><trkpt lat="43.2654433" lon="10.59799"><ele>79.0</ele><time>2026-04-09T11:32:05.904Z</time></trkpt><trkpt lat="43.2654067" lon="10.5978567"><ele>78.0</ele><time>2026-04-09T11:32:06.903Z</time></trkpt><trkpt lat="43.26538" lon="10.5977217"><ele>77.0</ele><time>2026-04-09T11:32:07.903Z</time></trkpt><trkpt lat="43.2653533" lon="10.5975867"><ele>76.0</ele><time>2026-04-09T11:32:08.904Z</time></trkpt><trkpt lat="43.2653267" lon="10.597435"><ele>75.0</ele><time>2026-04-09T11:32:09.903Z</time></trkpt><trkpt lat="43.2653" lon="10.5972767"><ele>75.0</ele><time>2026-04-09T11:32:10.904Z</time></trkpt><trkpt lat="43.2652733" lon="10.59711"><ele>75.0</ele><time>2026-04-09T11:32:11.904Z</time></trkpt><trkpt lat="43.2652483" lon="10.5969517"><ele>75.0</ele><time>2026-04-09T11:32:12.904Z</time></trkpt><trkpt lat="43.26522" lon="10.596785"><ele>75.0</ele><time>2026-04-09T11:32:13.904Z</time></trkpt><trkpt lat="43.2651917" lon="10.5966117"><ele>74.5</ele><time>2026-04-09T11:32:14.904Z</time></trkpt><trkpt lat="43.2651617" lon="10.59643"><ele>74.0</ele><time>2026-04-09T11:32:15.904Z</time></trkpt><trkpt lat="43.2651283" lon="10.5962517"><ele>73.5</ele><time>2026-04-09T11:32:16.903Z</time></trkpt><trkpt lat="43.265095" lon="10.5960767"><ele>73.0</ele><time>2026-04-09T11:32:17.903Z</time></trkpt><trkpt lat="43.2650583" lon="10.5959"><ele>73.0</ele><time>2026-04-09T11:32:18.904Z</time></trkpt><trkpt lat="43.2650267" lon="10.595715"><ele>73.0</ele><time>2026-04-09T11:32:19.904Z</time></trkpt><trkpt lat="43.2649983" lon="10.5955367"><ele>73.0</ele><time>2026-04-09T11:32:20.903Z</time></trkpt><trkpt lat="43.2649733" lon="10.5953683"><ele>73.0</ele><time>2026-04-09T11:32:21.904Z</time></trkpt><trkpt lat="43.2649517" lon="10.5952117"><ele>72.8</ele><time>2026-04-09T11:32:22.903Z</time></trkpt><trkpt lat="43.2649267" lon="10.5950733"><ele>72.6</ele><time>2026-04-09T11:32:23.903Z</time></trkpt><trkpt lat="43.2649083" lon="10.59494"><ele>72.4</ele><time>2026-04-09T11:32:24.904Z</time></trkpt><trkpt lat="43.26489" lon="10.59482"><ele>72.2</ele><time>2026-04-09T11:32:25.904Z</time></trkpt><trkpt lat="43.264875" lon="10.5947067"><ele>72.0</ele><time>2026-04-09T11:32:26.904Z</time></trkpt><trkpt lat="43.2648833" lon="10.5946033"><ele>71.5</ele><time>2026-04-09T11:32:27.904Z</time></trkpt><trkpt lat="43.2649067" lon="10.5945033"><ele>71.0</ele><time>2026-04-09T11:32:28.904Z</time></trkpt><trkpt lat="43.264955" lon="10.5944217"><ele>70.5</ele><time>2026-04-09T11:32:29.904Z</time></trkpt><trkpt lat="43.2650267" lon="10.5943567"><ele>70.0</ele><time>2026-04-09T11:32:30.904Z</time></trkpt><trkpt lat="43.2651217" lon="10.5943233"><ele>69.5</ele><time>2026-04-09T11:32:31.904Z</time></trkpt><trkpt lat="43.2652317" lon="10.5943183"><ele>69.0</ele><time>2026-04-09T11:32:32.904Z</time></trkpt><trkpt lat="43.265345" lon="10.59432"><ele>69.0</ele><time>2026-04-09T11:32:33.904Z</time></trkpt><trkpt lat="43.2654583" lon="10.594335"><ele>69.0</ele><time>2026-04-09T11:32:34.904Z</time></trkpt><trkpt lat="43.265575" lon="10.5943433"><ele>69.0</ele><time>2026-04-09T11:32:35.903Z</time></trkpt><trkpt lat="43.2656933" lon="10.5943383"><ele>69.0</ele><time>2026-04-09T11:32:36.903Z</time></trkpt><trkpt lat="43.26581" lon="10.5943367"><ele>68.66666666666667</ele><time>2026-04-09T11:32:37.904Z</time></trkpt><trkpt lat="43.265915" lon="10.5943217"><ele>68.33333333333333</ele><time>2026-04-09T11:32:38.904Z</time></trkpt><trkpt lat="43.26601" lon="10.594305"><ele>68.0</ele><time>2026-04-09T11:32:39.904Z</time></trkpt><trkpt lat="43.2660983" lon="10.5942767"><ele>67.66666666666666</ele><time>2026-04-09T11:32:40.904Z</time></trkpt><trkpt lat="43.26618" lon="10.5942467"><ele>67.33333333333333</ele><time>2026-04-09T11:32:41.904Z</time></trkpt><trkpt lat="43.26625" lon="10.5942217"><ele>67.0</ele><time>2026-04-09T11:32:42.903Z</time></trkpt><trkpt lat="43.2663467" lon="10.59416"><ele>67.0</ele><time>2026-04-09T11:32:44.904Z</time></trkpt><trkpt lat="43.2663917" lon="10.5940483"><ele>67.0</ele><time>2026-04-09T11:32:46.903Z</time></trkpt><trkpt lat="43.2663767" lon="10.593945"><ele>67.0</ele><time>2026-04-09T11:32:47.904Z</time></trkpt><trkpt lat="43.266345" lon="10.59382"><ele>67.0</ele><time>2026-04-09T11:32:48.903Z</time></trkpt><trkpt lat="43.2663183" lon="10.5936767"><ele>67.0</ele><time>2026-04-09T11:32:49.904Z</time></trkpt><trkpt lat="43.2663117" lon="10.5935267"><ele>66.25</ele><time>2026-04-09T11:32:50.903Z</time></trkpt><trkpt lat="43.266325" lon="10.5933683"><ele>65.5</ele><time>2026-04-09T11:32:51.903Z</time></trkpt><trkpt lat="43.2663433" lon="10.5932067"><ele>64.75</ele><time>2026-04-09T11:32:52.902Z</time></trkpt><trkpt lat="43.2663633" lon="10.5930417"><ele>64.0</ele><time>2026-04-09T11:32:53.903Z</time></trkpt><trkpt lat="43.2663783" lon="10.5928933"><ele>64.0</ele><time>2026-04-09T11:32:54.903Z</time></trkpt><trkpt lat="43.2663933" lon="10.592755"><ele>64.0</ele><time>2026-04-09T11:32:55.903Z</time></trkpt><trkpt lat="43.266415" lon="10.5926383"><ele>64.0</ele><time>2026-04-09T11:32:56.902Z</time></trkpt><trkpt lat="43.26643" lon="10.5925283"><ele>64.0</ele><time>2026-04-09T11:32:57.902Z</time></trkpt><trkpt lat="43.2664283" lon="10.5924083"><ele>64.0</ele><time>2026-04-09T11:32:58.902Z</time></trkpt><trkpt lat="43.2664117" lon="10.5922817"><ele>64.0</ele><time>2026-04-09T11:32:59.903Z</time></trkpt><trkpt lat="43.2663933" lon="10.5921433"><ele>64.0</ele><time>2026-04-09T11:33:00.902Z</time></trkpt><trkpt lat="43.2663683" lon="10.5919817"><ele>64.0</ele><time>2026-04-09T11:33:01.902Z</time></trkpt><trkpt lat="43.2663367" lon="10.5917917"><ele>64.0</ele><time>2026-04-09T11:33:02.903Z</time></trkpt><trkpt lat="43.266305" lon="10.5915783"><ele>63.5</ele><time>2026-04-09T11:33:03.903Z</time></trkpt><trkpt lat="43.2662783" lon="10.591385"><ele>63.0</ele><time>2026-04-09T11:33:04.903Z</time></trkpt><trkpt lat="43.2662483" lon="10.5912167"><ele>62.5</ele><time>2026-04-09T11:33:05.902Z</time></trkpt><trkpt lat="43.2662217" lon="10.5910617"><ele>62.0</ele><time>2026-04-09T11:33:06.903Z</time></trkpt><trkpt lat="43.2662" lon="10.5909333"><ele>61.333333333333336</ele><time>2026-04-09T11:33:07.902Z</time></trkpt><trkpt lat="43.2661817" lon="10.5908267"><ele>60.66666666666667</ele><time>2026-04-09T11:33:08.903Z</time></trkpt><trkpt lat="43.266165" lon="10.5907283"><ele>60.0</ele><time>2026-04-09T11:33:09.903Z</time></trkpt><trkpt lat="43.266175" lon="10.5906"><ele>59.33333333333333</ele><time>2026-04-09T11:33:11.903Z</time></trkpt><trkpt lat="43.266245" lon="10.590535"><ele>58.666666666666664</ele><time>2026-04-09T11:33:13.902Z</time></trkpt><trkpt lat="43.266315" lon="10.5905233"><ele>58.0</ele><time>2026-04-09T11:33:14.903Z</time></trkpt><trkpt lat="43.2664133" lon="10.590525"><ele>59.0</ele><time>2026-04-09T11:33:15.903Z</time></trkpt><trkpt lat="43.2665417" lon="10.5905383"><ele>60.0</ele><time>2026-04-09T11:33:16.903Z</time></trkpt><trkpt lat="43.266695" lon="10.5905567"><ele>61.0</ele><time>2026-04-09T11:33:17.903Z</time></trkpt><trkpt lat="43.26688" lon="10.5905767"><ele>61.0</ele><time>2026-04-09T11:33:18.902Z</time></trkpt><trkpt lat="43.2670617" lon="10.59059"><ele>61.0</ele><time>2026-04-09T11:33:19.903Z</time></trkpt><trkpt lat="43.2672233" lon="10.5905983"><ele>61.0</ele><time>2026-04-09T11:33:20.903Z</time></trkpt><trkpt lat="43.2673667" lon="10.5906017"><ele>60.83333333333333</ele><time>2026-04-09T11:33:21.903Z</time></trkpt><trkpt lat="43.267485" lon="10.5905983"><ele>60.666666666666664</ele><time>2026-04-09T11:33:22.903Z</time></trkpt><trkpt lat="43.26758" lon="10.5905917"><ele>60.5</ele><time>2026-04-09T11:33:23.902Z</time></trkpt><trkpt lat="43.26765" lon="10.5905633"><ele>60.33333333333333</ele><time>2026-04-09T11:33:24.902Z</time></trkpt><trkpt lat="43.2677067" lon="10.590505"><ele>60.166666666666664</ele><time>2026-04-09T11:33:25.903Z</time></trkpt><trkpt lat="43.2677433" lon="10.59042"><ele>60.0</ele><time>2026-04-09T11:33:26.903Z</time></trkpt><trkpt lat="43.26775" lon="10.5902917"><ele>59.75</ele><time>2026-04-09T11:33:27.903Z</time></trkpt><trkpt lat="43.2677283" lon="10.59012"><ele>59.5</ele><time>2026-04-09T11:33:28.903Z</time></trkpt><trkpt lat="43.2676967" lon="10.58992"><ele>59.25</ele><time>2026-04-09T11:33:29.903Z</time></trkpt><trkpt lat="43.267665" lon="10.5897017"><ele>59.0</ele><time>2026-04-09T11:33:30.903Z</time></trkpt><trkpt lat="43.267645" lon="10.5894983"><ele>58.800000000000004</ele><time>2026-04-09T11:33:31.902Z</time></trkpt><trkpt lat="43.2676283" lon="10.589325"><ele>58.60000000000001</ele><time>2026-04-09T11:33:32.903Z</time></trkpt><trkpt lat="43.2676233" lon="10.589185"><ele>58.4</ele><time>2026-04-09T11:33:33.902Z</time></trkpt><trkpt lat="43.26762" lon="10.5890733"><ele>58.2</ele><time>2026-04-09T11:33:34.903Z</time></trkpt><trkpt lat="43.2676183" lon="10.5889267"><ele>58.0</ele><time>2026-04-09T11:33:36.902Z</time></trkpt><trkpt lat="43.2676367" lon="10.5888417"><ele>58.0</ele><time>2026-04-09T11:33:38.902Z</time></trkpt><trkpt lat="43.2676267" lon="10.58903"><ele>58.0</ele><time>2026-04-09T11:33:44.902Z</time></trkpt><trkpt lat="43.2676317" lon="10.5891867"><ele>58.0</ele><time>2026-04-09T11:33:45.903Z</time></trkpt><trkpt lat="43.267635" lon="10.58936"><ele>58.0</ele><time>2026-04-09T11:33:46.903Z</time></trkpt><trkpt lat="43.2676383" lon="10.5895067"><ele>58.14285714285715</ele><time>2026-04-09T11:33:47.903Z</time></trkpt><trkpt lat="43.2676483" lon="10.5896283"><ele>58.28571428571429</ele><time>2026-04-09T11:33:48.902Z</time></trkpt><trkpt lat="43.2676533" lon="10.589735"><ele>58.42857142857143</ele><time>2026-04-09T11:33:49.903Z</time></trkpt><trkpt lat="43.2676617" lon="10.5898317"><ele>58.57142857142858</ele><time>2026-04-09T11:33:50.903Z</time></trkpt><trkpt lat="43.26767" lon="10.5899283"><ele>58.71428571428572</ele><time>2026-04-09T11:33:51.903Z</time></trkpt><trkpt lat="43.2676833" lon="10.5900217"><ele>58.857142857142854</ele><time>2026-04-09T11:33:52.903Z</time></trkpt><trkpt lat="43.2677" lon="10.5901167"><ele>59.0</ele><time>2026-04-09T11:33:53.902Z</time></trkpt><trkpt lat="43.2677117" lon="10.5902133"><ele>59.0</ele><time>2026-04-09T11:33:54.902Z</time></trkpt><trkpt lat="43.2677217" lon="10.5903017"><ele>59.0</ele><time>2026-04-09T11:33:55.903Z</time></trkpt><trkpt lat="43.26773" lon="10.5904517"><ele>59.0</ele><time>2026-04-09T11:33:57.903Z</time></trkpt><trkpt lat="43.26773" lon="10.5902433"><ele>59.0</ele><time>2026-04-09T11:34:03.902Z</time></trkpt><trkpt lat="43.2676983" lon="10.5900733"><ele>59.0</ele><time>2026-04-09T11:34:04.903Z</time></trkpt><trkpt lat="43.267665" lon="10.5898833"><ele>59.0</ele><time>2026-04-09T11:34:05.903Z</time></trkpt><trkpt lat="43.26764" lon="10.5896967"><ele>59.0</ele><time>2026-04-09T11:34:06.902Z</time></trkpt><trkpt lat="43.26763" lon="10.5895233"><ele>59.0</ele><time>2026-04-09T11:34:07.903Z</time></trkpt><trkpt lat="43.26762" lon="10.5893617"><ele>58.800000000000004</ele><time>2026-04-09T11:34:08.903Z</time></trkpt><trkpt lat="43.267615" lon="10.5892117"><ele>58.60000000000001</ele><time>2026-04-09T11:34:09.903Z</time></trkpt><trkpt lat="43.2676167" lon="10.5890717"><ele>58.4</ele><time>2026-04-09T11:34:10.903Z</time></trkpt><trkpt lat="43.2676217" lon="10.5889533"><ele>58.2</ele><time>2026-04-09T11:34:11.903Z</time></trkpt><trkpt lat="43.26764" lon="10.588835"><ele>58.0</ele><time>2026-04-09T11:34:12.903Z</time></trkpt><trkpt lat="43.2676783" lon="10.5887117"><ele>57.25</ele><time>2026-04-09T11:34:13.903Z</time></trkpt><trkpt lat="43.2677417" lon="10.5885833"><ele>56.5</ele><time>2026-04-09T11:34:14.903Z</time></trkpt><trkpt lat="43.2678333" lon="10.5884617"><ele>55.75</ele><time>2026-04-09T11:34:15.903Z</time></trkpt><trkpt lat="43.2679233" lon="10.588345"><ele>55.0</ele><time>2026-04-09T11:34:16.903Z</time></trkpt><trkpt lat="43.26801" lon="10.5882283"><ele>55.0</ele><time>2026-04-09T11:34:17.903Z</time></trkpt><trkpt lat="43.268085" lon="10.5881117"><ele>55.0</ele><time>2026-04-09T11:34:18.903Z</time></trkpt><trkpt lat="43.2681383" lon="10.5879933"><ele>55.0</ele><time>2026-04-09T11:34:19.902Z</time></trkpt><trkpt lat="43.26818" lon="10.587865"><ele>55.0</ele><time>2026-04-09T11:34:20.902Z</time></trkpt><trkpt lat="43.268205" lon="10.5877133"><ele>55.0</ele><time>2026-04-09T11:34:21.902Z</time></trkpt><trkpt lat="43.2682083" lon="10.58754"><ele>54.25</ele><time>2026-04-09T11:34:22.902Z</time></trkpt><trkpt lat="43.268215" lon="10.58737"><ele>53.5</ele><time>2026-04-09T11:34:23.902Z</time></trkpt><trkpt lat="43.2682267" lon="10.5872083"><ele>52.75</ele><time>2026-04-09T11:34:24.902Z</time></trkpt><trkpt lat="43.2682517" lon="10.587055"><ele>52.0</ele><time>2026-04-09T11:34:25.902Z</time></trkpt><trkpt lat="43.2682817" lon="10.58691"><ele>52.0</ele><time>2026-04-09T11:34:26.902Z</time></trkpt><trkpt lat="43.268305" lon="10.586775"><ele>52.0</ele><time>2026-04-09T11:34:27.902Z</time></trkpt><trkpt lat="43.26832" lon="10.58663"><ele>52.0</ele><time>2026-04-09T11:34:28.903Z</time></trkpt><trkpt lat="43.2683217" lon="10.5864733"><ele>52.0</ele><time>2026-04-09T11:34:29.903Z</time></trkpt><trkpt lat="43.2683117" lon="10.5863117"><ele>52.0</ele><time>2026-04-09T11:34:30.902Z</time></trkpt><trkpt lat="43.2683" lon="10.5861467"><ele>52.0</ele><time>2026-04-09T11:34:31.902Z</time></trkpt><trkpt lat="43.268285" lon="10.5859867"><ele>52.0</ele><time>2026-04-09T11:34:32.903Z</time></trkpt><trkpt lat="43.2682733" lon="10.58583"><ele>52.0</ele><time>2026-04-09T11:34:33.903Z</time></trkpt><trkpt lat="43.268255" lon="10.5856783"><ele>52.0</ele><time>2026-04-09T11:34:34.903Z</time></trkpt><trkpt lat="43.26824" lon="10.5855283"><ele>52.0</ele><time>2026-04-09T11:34:35.903Z</time></trkpt><trkpt lat="43.2682383" lon="10.5853817"><ele>52.0</ele><time>2026-04-09T11:34:36.903Z</time></trkpt><trkpt lat="43.2682483" lon="10.5852467"><ele>52.0</ele><time>2026-04-09T11:34:37.903Z</time></trkpt><trkpt lat="43.2682633" lon="10.5851067"><ele>52.0</ele><time>2026-04-09T11:34:38.902Z</time></trkpt><trkpt lat="43.26827" lon="10.58497"><ele>52.0</ele><time>2026-04-09T11:34:39.903Z</time></trkpt><trkpt lat="43.2682617" lon="10.5848383"><ele>51.8</ele><time>2026-04-09T11:34:40.902Z</time></trkpt><trkpt lat="43.268245" lon="10.5847033"><ele>51.6</ele><time>2026-04-09T11:34:41.903Z</time></trkpt><trkpt lat="43.2682117" lon="10.5845633"><ele>51.4</ele><time>2026-04-09T11:34:42.902Z</time></trkpt><trkpt lat="43.268175" lon="10.5844333"><ele>51.199999999999996</ele><time>2026-04-09T11:34:43.902Z</time></trkpt><trkpt lat="43.26814" lon="10.5843067"><ele>51.0</ele><time>2026-04-09T11:34:44.903Z</time></trkpt><trkpt lat="43.2681017" lon="10.58418"><ele>50.599999999999994</ele><time>2026-04-09T11:34:45.902Z</time></trkpt><trkpt lat="43.2680833" lon="10.5840483"><ele>50.2</ele><time>2026-04-09T11:34:46.903Z</time></trkpt><trkpt lat="43.2680667" lon="10.5839133"><ele>49.8</ele><time>2026-04-09T11:34:47.903Z</time></trkpt><trkpt lat="43.2680567" lon="10.5837767"><ele>49.400000000000006</ele><time>2026-04-09T11:34:48.903Z</time></trkpt><trkpt lat="43.268045" lon="10.5836417"><ele>49.0</ele><time>2026-04-09T11:34:49.903Z</time></trkpt><trkpt lat="43.2680317" lon="10.5835133"><ele>48.6</ele><time>2026-04-09T11:34:50.903Z</time></trkpt><trkpt lat="43.26802" lon="10.5833883"><ele>48.2</ele><time>2026-04-09T11:34:51.902Z</time></trkpt><trkpt lat="43.2680067" lon="10.5832667"><ele>47.800000000000004</ele><time>2026-04-09T11:34:52.903Z</time></trkpt><trkpt lat="43.2679867" lon="10.583135"><ele>47.400000000000006</ele><time>2026-04-09T11:34:53.903Z</time></trkpt><trkpt lat="43.26796" lon="10.583"><ele>47.0</ele><time>2026-04-09T11:34:54.903Z</time></trkpt><trkpt lat="43.2679333" lon="10.5828617"><ele>46.8</ele><time>2026-04-09T11:34:55.903Z</time></trkpt><trkpt lat="43.2679033" lon="10.58273"><ele>46.6</ele><time>2026-04-09T11:34:56.902Z</time></trkpt><trkpt lat="43.2678767" lon="10.582605"><ele>46.4</ele><time>2026-04-09T11:34:57.903Z</time></trkpt><trkpt lat="43.2678467" lon="10.5824967"><ele>46.199999999999996</ele><time>2026-04-09T11:34:58.902Z</time></trkpt><trkpt lat="43.2678067" lon="10.5824017"><ele>46.0</ele><time>2026-04-09T11:34:59.903Z</time></trkpt><trkpt lat="43.2677167" lon="10.5822633"><ele>46.0</ele><time>2026-04-09T11:35:01.903Z</time></trkpt><trkpt lat="43.26765" lon="10.582195"><ele>46.0</ele><time>2026-04-09T11:35:02.903Z</time></trkpt><trkpt lat="43.267585" lon="10.5821233"><ele>46.0</ele><time>2026-04-09T11:35:03.903Z</time></trkpt><trkpt lat="43.2675167" lon="10.58204"><ele>46.0</ele><time>2026-04-09T11:35:04.903Z</time></trkpt><trkpt lat="43.2674483" lon="10.5819317"><ele>46.0</ele><time>2026-04-09T11:35:05.903Z</time></trkpt><trkpt lat="43.2673817" lon="10.58182"><ele>45.4</ele><time>2026-04-09T11:35:06.902Z</time></trkpt><trkpt lat="43.2673233" lon="10.58171"><ele>44.8</ele><time>2026-04-09T11:35:07.902Z</time></trkpt><trkpt lat="43.26728" lon="10.581595"><ele>44.199999999999996</ele><time>2026-04-09T11:35:08.903Z</time></trkpt><trkpt lat="43.2672467" lon="10.58147"><ele>43.599999999999994</ele><time>2026-04-09T11:35:09.902Z</time></trkpt><trkpt lat="43.267225" lon="10.5813333"><ele>43.0</ele><time>2026-04-09T11:35:10.903Z</time></trkpt><trkpt lat="43.26721" lon="10.5812"><ele>42.0</ele><time>2026-04-09T11:35:11.902Z</time></trkpt><trkpt lat="43.2671983" lon="10.5810717"><ele>41.0</ele><time>2026-04-09T11:35:12.902Z</time></trkpt><trkpt lat="43.2671783" lon="10.5809683"><ele>40.0</ele><time>2026-04-09T11:35:13.903Z</time></trkpt><trkpt lat="43.267145" lon="10.58087"><ele>39.0</ele><time>2026-04-09T11:35:14.902Z</time></trkpt><trkpt lat="43.2670817" lon="10.580765"><ele>38.0</ele><time>2026-04-09T11:35:15.903Z</time></trkpt><trkpt lat="43.267005" lon="10.5806583"><ele>38.0</ele><time>2026-04-09T11:35:16.903Z</time></trkpt><trkpt lat="43.2669183" lon="10.5805567"><ele>38.0</ele><time>2026-04-09T11:35:17.903Z</time></trkpt><trkpt lat="43.2668217" lon="10.580455"><ele>38.0</ele><time>2026-04-09T11:35:18.903Z</time></trkpt><trkpt lat="43.2667183" lon="10.5803667"><ele>38.0</ele><time>2026-04-09T11:35:19.903Z</time></trkpt><trkpt lat="43.26661" lon="10.58028"><ele>38.199999999999996</ele><time>2026-04-09T11:35:20.903Z</time></trkpt><trkpt lat="43.2665133" lon="10.5802017"><ele>38.4</ele><time>2026-04-09T11:35:21.902Z</time></trkpt><trkpt lat="43.2664267" lon="10.5801283"><ele>38.599999999999994</ele><time>2026-04-09T11:35:22.902Z</time></trkpt><trkpt lat="43.2663567" lon="10.5800283"><ele>38.8</ele><time>2026-04-09T11:35:23.903Z</time></trkpt><trkpt lat="43.2662917" lon="10.5798767"><ele>39.0</ele><time>2026-04-09T11:35:24.903Z</time></trkpt><trkpt lat="43.26622" lon="10.5797067"><ele>38.0</ele><time>2026-04-09T11:35:25.903Z</time></trkpt><trkpt lat="43.2661467" lon="10.5795633"><ele>37.0</ele><time>2026-04-09T11:35:26.903Z</time></trkpt><trkpt lat="43.26608" lon="10.579435"><ele>36.0</ele><time>2026-04-09T11:35:27.903Z</time></trkpt><trkpt lat="43.2660083" lon="10.579315"><ele>35.0</ele><time>2026-04-09T11:35:28.903Z</time></trkpt><trkpt lat="43.2659083" lon="10.579195"><ele>35.0</ele><time>2026-04-09T11:35:29.903Z</time></trkpt><trkpt lat="43.2657733" lon="10.5790817"><ele>35.0</ele><time>2026-04-09T11:35:30.903Z</time></trkpt><trkpt lat="43.26564" lon="10.5789817"><ele>35.0</ele><time>2026-04-09T11:35:31.903Z</time></trkpt><trkpt lat="43.2655367" lon="10.578875"><ele>35.0</ele><time>2026-04-09T11:35:32.902Z</time></trkpt><trkpt lat="43.2654517" lon="10.5787733"><ele>34.33333333333333</ele><time>2026-04-09T11:35:33.903Z</time></trkpt><trkpt lat="43.2653883" lon="10.5786817"><ele>33.666666666666664</ele><time>2026-04-09T11:35:34.903Z</time></trkpt><trkpt lat="43.2653417" lon="10.5786067"><ele>33.0</ele><time>2026-04-09T11:35:35.903Z</time></trkpt><trkpt lat="43.2653117" lon="10.578455"><ele>32.333333333333336</ele><time>2026-04-09T11:35:37.903Z</time></trkpt><trkpt lat="43.265325" lon="10.578365"><ele>31.666666666666668</ele><time>2026-04-09T11:35:38.903Z</time></trkpt><trkpt lat="43.2653667" lon="10.5782767"><ele>31.0</ele><time>2026-04-09T11:35:39.903Z</time></trkpt><trkpt lat="43.2654467" lon="10.578165"><ele>31.0</ele><time>2026-04-09T11:35:40.902Z</time></trkpt><trkpt lat="43.2655217" lon="10.5780567"><ele>31.0</ele><time>2026-04-09T11:35:41.902Z</time></trkpt><trkpt lat="43.2655733" lon="10.577975"><ele>31.0</ele><time>2026-04-09T11:35:42.902Z</time></trkpt><trkpt lat="43.26556" lon="10.5777767"><ele>31.0</ele><time>2026-04-09T11:35:44.903Z</time></trkpt><trkpt lat="43.265495" lon="10.5776333"><ele>31.25</ele><time>2026-04-09T11:35:45.902Z</time></trkpt><trkpt lat="43.265415" lon="10.5774633"><ele>31.5</ele><time>2026-04-09T11:35:46.902Z</time></trkpt><trkpt lat="43.265335" lon="10.577275"><ele>31.75</ele><time>2026-04-09T11:35:47.903Z</time></trkpt><trkpt lat="43.265265" lon="10.5771167"><ele>32.0</ele><time>2026-04-09T11:35:48.903Z</time></trkpt><trkpt lat="43.265205" lon="10.5769683"><ele>31.5</ele><time>2026-04-09T11:35:49.903Z</time></trkpt><trkpt lat="43.265155" lon="10.5768283"><ele>31.0</ele><time>2026-04-09T11:35:50.903Z</time></trkpt><trkpt lat="43.2651033" lon="10.57669"><ele>30.5</ele><time>2026-04-09T11:35:51.903Z</time></trkpt><trkpt lat="43.2650467" lon="10.57655"><ele>30.0</ele><time>2026-04-09T11:35:52.903Z</time></trkpt><trkpt lat="43.2649917" lon="10.576415"><ele>30.0</ele><time>2026-04-09T11:35:53.902Z</time></trkpt><trkpt lat="43.2649317" lon="10.5762767"><ele>30.0</ele><time>2026-04-09T11:35:54.903Z</time></trkpt><trkpt lat="43.2648617" lon="10.5761367"><ele>30.0</ele><time>2026-04-09T11:35:55.903Z</time></trkpt><trkpt lat="43.2647967" lon="10.57599"><ele>30.0</ele><time>2026-04-09T11:35:56.903Z</time></trkpt><trkpt lat="43.264725" lon="10.57584"><ele>29.75</ele><time>2026-04-09T11:35:57.902Z</time></trkpt><trkpt lat="43.2646567" lon="10.5756867"><ele>29.5</ele><time>2026-04-09T11:35:58.903Z</time></trkpt><trkpt lat="43.264585" lon="10.575545"><ele>29.25</ele><time>2026-04-09T11:35:59.902Z</time></trkpt><trkpt lat="43.2644967" lon="10.5753867"><ele>29.0</ele><time>2026-04-09T11:36:00.902Z</time></trkpt><trkpt lat="43.2644167" lon="10.5752217"><ele>29.0</ele><time>2026-04-09T11:36:01.903Z</time></trkpt><trkpt lat="43.2643417" lon="10.575055"><ele>29.0</ele><time>2026-04-09T11:36:02.902Z</time></trkpt><trkpt lat="43.2642667" lon="10.5748933"><ele>29.0</ele><time>2026-04-09T11:36:03.903Z</time></trkpt><trkpt lat="43.2641917" lon="10.5747267"><ele>29.0</ele><time>2026-04-09T11:36:04.902Z</time></trkpt><trkpt lat="43.2641183" lon="10.5745717"><ele>28.25</ele><time>2026-04-09T11:36:05.903Z</time></trkpt><trkpt lat="43.2640333" lon="10.5744067"><ele>27.5</ele><time>2026-04-09T11:36:06.902Z</time></trkpt><trkpt lat="43.26395" lon="10.57423"><ele>26.75</ele><time>2026-04-09T11:36:07.902Z</time></trkpt><trkpt lat="43.26387" lon="10.5740667"><ele>26.0</ele><time>2026-04-09T11:36:08.903Z</time></trkpt><trkpt lat="43.263795" lon="10.5739133"><ele>26.0</ele><time>2026-04-09T11:36:09.903Z</time></trkpt><trkpt lat="43.2637267" lon="10.573775"><ele>26.0</ele><time>2026-04-09T11:36:10.903Z</time></trkpt><trkpt lat="43.2636683" lon="10.573635"><ele>26.0</ele><time>2026-04-09T11:36:11.902Z</time></trkpt><trkpt lat="43.2636133" lon="10.5734917"><ele>26.0</ele><time>2026-04-09T11:36:12.903Z</time></trkpt><trkpt lat="43.2635517" lon="10.5733467"><ele>25.75</ele><time>2026-04-09T11:36:13.903Z</time></trkpt><trkpt lat="43.2634883" lon="10.573205"><ele>25.5</ele><time>2026-04-09T11:36:14.902Z</time></trkpt><trkpt lat="43.2634183" lon="10.5730633"><ele>25.25</ele><time>2026-04-09T11:36:15.903Z</time></trkpt><trkpt lat="43.2633583" lon="10.57292"><ele>25.0</ele><time>2026-04-09T11:36:16.903Z</time></trkpt><trkpt lat="43.2632933" lon="10.5727767"><ele>24.75</ele><time>2026-04-09T11:36:17.903Z</time></trkpt><trkpt lat="43.2632233" lon="10.5726333"><ele>24.5</ele><time>2026-04-09T11:36:18.903Z</time></trkpt><trkpt lat="43.2631517" lon="10.5724967"><ele>24.25</ele><time>2026-04-09T11:36:19.902Z</time></trkpt><trkpt lat="43.26308" lon="10.5723583"><ele>24.0</ele><time>2026-04-09T11:36:20.903Z</time></trkpt><trkpt lat="43.2630133" lon="10.572225"><ele>23.75</ele><time>2026-04-09T11:36:21.902Z</time></trkpt><trkpt lat="43.2629417" lon="10.5720833"><ele>23.5</ele><time>2026-04-09T11:36:22.903Z</time></trkpt><trkpt lat="43.2628733" lon="10.571945"><ele>23.25</ele><time>2026-04-09T11:36:23.903Z</time></trkpt><trkpt lat="43.2628033" lon="10.571795"><ele>23.0</ele><time>2026-04-09T11:36:24.903Z</time></trkpt><trkpt lat="43.262715" lon="10.571635"><ele>22.666666666666668</ele><time>2026-04-09T11:36:25.903Z</time></trkpt><trkpt lat="43.2626217" lon="10.5714567"><ele>22.333333333333332</ele><time>2026-04-09T11:36:26.903Z</time></trkpt><trkpt lat="43.2625217" lon="10.571265"><ele>22.0</ele><time>2026-04-09T11:36:27.903Z</time></trkpt><trkpt lat="43.2624217" lon="10.5710483"><ele>22.0</ele><time>2026-04-09T11:36:28.903Z</time></trkpt><trkpt lat="43.262325" lon="10.570835"><ele>22.0</ele><time>2026-04-09T11:36:29.903Z</time></trkpt><trkpt lat="43.2622417" lon="10.5706567"><ele>22.0</ele><time>2026-04-09T11:36:30.903Z</time></trkpt><trkpt lat="43.2621733" lon="10.5704933"><ele>21.400000000000002</ele><time>2026-04-09T11:36:31.903Z</time></trkpt><trkpt lat="43.2621133" lon="10.570355"><ele>20.8</ele><time>2026-04-09T11:36:32.903Z</time></trkpt><trkpt lat="43.262065" lon="10.570245"><ele>20.2</ele><time>2026-04-09T11:36:33.902Z</time></trkpt><trkpt lat="43.2620317" lon="10.570155"><ele>19.6</ele><time>2026-04-09T11:36:34.903Z</time></trkpt><trkpt lat="43.262015" lon="10.5700317"><ele>19.0</ele><time>2026-04-09T11:36:36.903Z</time></trkpt><trkpt lat="43.262095" lon="10.56994"><ele>19.0</ele><time>2026-04-09T11:36:38.903Z</time></trkpt><trkpt lat="43.2621783" lon="10.56991"><ele>19.0</ele><time>2026-04-09T11:36:39.903Z</time></trkpt><trkpt lat="43.2623" lon="10.5698967"><ele>19.0</ele><time>2026-04-09T11:36:40.902Z</time></trkpt><trkpt lat="43.262435" lon="10.569875"><ele>19.0</ele><time>2026-04-09T11:36:41.903Z</time></trkpt><trkpt lat="43.26258" lon="10.5698367"><ele>19.25</ele><time>2026-04-09T11:36:42.903Z</time></trkpt><trkpt lat="43.2627317" lon="10.5698033"><ele>19.5</ele><time>2026-04-09T11:36:43.903Z</time></trkpt><trkpt lat="43.2628733" lon="10.5697717"><ele>19.75</ele><time>2026-04-09T11:36:44.903Z</time></trkpt><trkpt lat="43.263015" lon="10.5697433"><ele>20.0</ele><time>2026-04-09T11:36:45.903Z</time></trkpt><trkpt lat="43.2631567" lon="10.5697117"><ele>20.0</ele><time>2026-04-09T11:36:46.903Z</time></trkpt><trkpt lat="43.2633033" lon="10.56968"><ele>20.0</ele><time>2026-04-09T11:36:47.903Z</time></trkpt><trkpt lat="43.2634533" lon="10.569645"><ele>20.0</ele><time>2026-04-09T11:36:48.903Z</time></trkpt><trkpt lat="43.2636117" lon="10.569615"><ele>20.0</ele><time>2026-04-09T11:36:49.903Z</time></trkpt><trkpt lat="43.26378" lon="10.56958"><ele>20.0</ele><time>2026-04-09T11:36:50.903Z</time></trkpt><trkpt lat="43.2639517" lon="10.5695417"><ele>20.0</ele><time>2026-04-09T11:36:51.903Z</time></trkpt><trkpt lat="43.2641283" lon="10.5695017"><ele>19.0</ele><time>2026-04-09T11:36:52.902Z</time></trkpt><trkpt lat="43.26431" lon="10.5694617"><ele>18.0</ele><time>2026-04-09T11:36:53.903Z</time></trkpt><trkpt lat="43.264495" lon="10.56942"><ele>17.0</ele><time>2026-04-09T11:36:54.902Z</time></trkpt><trkpt lat="43.2646783" lon="10.5693783"><ele>18.0</ele><time>2026-04-09T11:36:55.903Z</time></trkpt><trkpt lat="43.2648667" lon="10.569335"><ele>19.0</ele><time>2026-04-09T11:36:56.902Z</time></trkpt><trkpt lat="43.265055" lon="10.569295"><ele>20.0</ele><time>2026-04-09T11:36:57.903Z</time></trkpt><trkpt lat="43.2652433" lon="10.5692533"><ele>20.0</ele><time>2026-04-09T11:36:58.902Z</time></trkpt><trkpt lat="43.26543" lon="10.56921"><ele>20.0</ele><time>2026-04-09T11:36:59.902Z</time></trkpt><trkpt lat="43.2656167" lon="10.5691667"><ele>20.0</ele><time>2026-04-09T11:37:00.903Z</time></trkpt><trkpt lat="43.265805" lon="10.56913"><ele>20.333333333333336</ele><time>2026-04-09T11:37:01.902Z</time></trkpt><trkpt lat="43.2659983" lon="10.5690867"><ele>20.666666666666668</ele><time>2026-04-09T11:37:02.903Z</time></trkpt><trkpt lat="43.2661867" lon="10.5690483"><ele>21.0</ele><time>2026-04-09T11:37:03.902Z</time></trkpt><trkpt lat="43.2663733" lon="10.5690067"><ele>21.333333333333332</ele><time>2026-04-09T11:37:04.903Z</time></trkpt><trkpt lat="43.26655" lon="10.5689667"><ele>21.666666666666664</ele><time>2026-04-09T11:37:05.903Z</time></trkpt><trkpt lat="43.266715" lon="10.5689283"><ele>22.0</ele><time>2026-04-09T11:37:06.902Z</time></trkpt><trkpt lat="43.26687" lon="10.568895"><ele>22.0</ele><time>2026-04-09T11:37:07.903Z</time></trkpt><trkpt lat="43.267015" lon="10.5688583"><ele>22.0</ele><time>2026-04-09T11:37:08.903Z</time></trkpt><trkpt lat="43.2671533" lon="10.568825"><ele>22.0</ele><time>2026-04-09T11:37:09.903Z</time></trkpt><trkpt lat="43.2672867" lon="10.5687983"><ele>22.0</ele><time>2026-04-09T11:37:10.903Z</time></trkpt><trkpt lat="43.267415" lon="10.5687717"><ele>22.0</ele><time>2026-04-09T11:37:11.902Z</time></trkpt><trkpt lat="43.2675417" lon="10.5687433"><ele>22.0</ele><time>2026-04-09T11:37:12.903Z</time></trkpt><trkpt lat="43.26767" lon="10.56872"><ele>22.0</ele><time>2026-04-09T11:37:13.902Z</time></trkpt><trkpt lat="43.2677983" lon="10.5686867"><ele>22.0</ele><time>2026-04-09T11:37:14.903Z</time></trkpt><trkpt lat="43.2679167" lon="10.5686283"><ele>22.0</ele><time>2026-04-09T11:37:15.902Z</time></trkpt><trkpt lat="43.2680267" lon="10.5685633"><ele>22.0</ele><time>2026-04-09T11:37:16.903Z</time></trkpt><trkpt lat="43.268125" lon="10.5684883"><ele>22.0</ele><time>2026-04-09T11:37:17.903Z</time></trkpt><trkpt lat="43.26823" lon="10.568435"><ele>22.0</ele><time>2026-04-09T11:37:18.902Z</time></trkpt><trkpt lat="43.2683383" lon="10.5683867"><ele>21.75</ele><time>2026-04-09T11:37:19.902Z</time></trkpt><trkpt lat="43.2684683" lon="10.5683617"><ele>21.5</ele><time>2026-04-09T11:37:20.903Z</time></trkpt><trkpt lat="43.2686133" lon="10.5683517"><ele>21.25</ele><time>2026-04-09T11:37:21.903Z</time></trkpt><trkpt lat="43.2687583" lon="10.56833"><ele>21.0</ele><time>2026-04-09T11:37:22.903Z</time></trkpt><trkpt lat="43.2689017" lon="10.5683067"><ele>21.0</ele><time>2026-04-09T11:37:23.902Z</time></trkpt><trkpt lat="43.2690417" lon="10.5682783"><ele>21.0</ele><time>2026-04-09T11:37:24.903Z</time></trkpt><trkpt lat="43.2691917" lon="10.568245"><ele>21.0</ele><time>2026-04-09T11:37:25.903Z</time></trkpt><trkpt lat="43.2693317" lon="10.5682117"><ele>21.0</ele><time>2026-04-09T11:37:26.903Z</time></trkpt><trkpt lat="43.26948" lon="10.56818"><ele>21.0</ele><time>2026-04-09T11:37:27.902Z</time></trkpt><trkpt lat="43.2696333" lon="10.5681467"><ele>21.0</ele><time>2026-04-09T11:37:28.903Z</time></trkpt><trkpt lat="43.269785" lon="10.5681183"><ele>21.0</ele><time>2026-04-09T11:37:29.903Z</time></trkpt><trkpt lat="43.269935" lon="10.5680867"><ele>20.666666666666668</ele><time>2026-04-09T11:37:30.902Z</time></trkpt><trkpt lat="43.270085" lon="10.568045"><ele>20.333333333333336</ele><time>2026-04-09T11:37:31.903Z</time></trkpt><trkpt lat="43.2702383" lon="10.5680067"><ele>20.0</ele><time>2026-04-09T11:37:32.902Z</time></trkpt><trkpt lat="43.27039" lon="10.5679633"><ele>20.0</ele><time>2026-04-09T11:37:33.903Z</time></trkpt><trkpt lat="43.27054" lon="10.5679317"><ele>20.0</ele><time>2026-04-09T11:37:34.902Z</time></trkpt><trkpt lat="43.270685" lon="10.5679"><ele>20.0</ele><time>2026-04-09T11:37:35.903Z</time></trkpt><trkpt lat="43.270815" lon="10.5678733"><ele>20.0</ele><time>2026-04-09T11:37:36.903Z</time></trkpt><trkpt lat="43.2709417" lon="10.567845"><ele>19.4</ele><time>2026-04-09T11:37:37.902Z</time></trkpt><trkpt lat="43.2710533" lon="10.5678183"><ele>18.8</ele><time>2026-04-09T11:37:38.903Z</time></trkpt><trkpt lat="43.2711567" lon="10.5677983"><ele>18.2</ele><time>2026-04-09T11:37:39.903Z</time></trkpt><trkpt lat="43.2712467" lon="10.5677733"><ele>17.6</ele><time>2026-04-09T11:37:40.903Z</time></trkpt><trkpt lat="43.2713283" lon="10.5677583"><ele>17.0</ele><time>2026-04-09T11:37:41.903Z</time></trkpt><trkpt lat="43.2714" lon="10.5677517"><ele>17.4</ele><time>2026-04-09T11:37:42.902Z</time></trkpt><trkpt lat="43.271505" lon="10.5677683"><ele>17.799999999999997</ele><time>2026-04-09T11:37:44.903Z</time></trkpt><trkpt lat="43.2715817" lon="10.5677617"><ele>18.2</ele><time>2026-04-09T11:37:50.902Z</time></trkpt><trkpt lat="43.2716233" lon="10.5676883"><ele>18.599999999999998</ele><time>2026-04-09T11:37:52.903Z</time></trkpt><trkpt lat="43.27166" lon="10.5674967"><ele>19.0</ele><time>2026-04-09T11:37:54.903Z</time></trkpt><trkpt lat="43.2716767" lon="10.5673667"><ele>19.0</ele><time>2026-04-09T11:37:55.903Z</time></trkpt><trkpt lat="43.2716983" lon="10.5672233"><ele>19.0</ele><time>2026-04-09T11:37:56.903Z</time></trkpt><trkpt lat="43.2717283" lon="10.5670483"><ele>19.0</ele><time>2026-04-09T11:37:57.903Z</time></trkpt><trkpt lat="43.2717567" lon="10.5668633"><ele>19.0</ele><time>2026-04-09T11:37:58.903Z</time></trkpt><trkpt lat="43.2717867" lon="10.5666683"><ele>18.666666666666664</ele><time>2026-04-09T11:37:59.902Z</time></trkpt><trkpt lat="43.2718217" lon="10.5664467"><ele>18.333333333333332</ele><time>2026-04-09T11:38:00.903Z</time></trkpt><trkpt lat="43.2718583" lon="10.566225"><ele>18.0</ele><time>2026-04-09T11:38:01.902Z</time></trkpt><trkpt lat="43.2718983" lon="10.5659817"><ele>18.0</ele><time>2026-04-09T11:38:02.902Z</time></trkpt><trkpt lat="43.2719367" lon="10.5657383"><ele>18.0</ele><time>2026-04-09T11:38:03.903Z</time></trkpt><trkpt lat="43.27197" lon="10.5654967"><ele>18.0</ele><time>2026-04-09T11:38:04.903Z</time></trkpt><trkpt lat="43.272005" lon="10.5652567"><ele>17.333333333333332</ele><time>2026-04-09T11:38:05.902Z</time></trkpt><trkpt lat="43.27203" lon="10.5650067"><ele>16.666666666666664</ele><time>2026-04-09T11:38:06.902Z</time></trkpt><trkpt lat="43.272035" lon="10.5647533"><ele>16.0</ele><time>2026-04-09T11:38:07.903Z</time></trkpt><trkpt lat="43.27202" lon="10.5645"><ele>15.666666666666666</ele><time>2026-04-09T11:38:08.903Z</time></trkpt><trkpt lat="43.2719933" lon="10.5642333"><ele>15.333333333333332</ele><time>2026-04-09T11:38:09.903Z</time></trkpt><trkpt lat="43.27196" lon="10.5639617"><ele>15.0</ele><time>2026-04-09T11:38:10.903Z</time></trkpt><trkpt lat="43.2719283" lon="10.5636883"><ele>15.333333333333332</ele><time>2026-04-09T11:38:11.903Z</time></trkpt><trkpt lat="43.2718933" lon="10.5634117"><ele>15.666666666666666</ele><time>2026-04-09T11:38:12.902Z</time></trkpt><trkpt lat="43.27186" lon="10.5631283"><ele>16.0</ele><time>2026-04-09T11:38:13.902Z</time></trkpt><trkpt lat="43.2718267" lon="10.5628367"><ele>16.0</ele><time>2026-04-09T11:38:14.903Z</time></trkpt><trkpt lat="43.2717917" lon="10.5625533"><ele>16.0</ele><time>2026-04-09T11:38:15.903Z</time></trkpt><trkpt lat="43.2717583" lon="10.5622733"><ele>16.0</ele><time>2026-04-09T11:38:16.903Z</time></trkpt><trkpt lat="43.27172" lon="10.5619917"><ele>15.666666666666666</ele><time>2026-04-09T11:38:17.903Z</time></trkpt><trkpt lat="43.271685" lon="10.5617033"><ele>15.333333333333332</ele><time>2026-04-09T11:38:18.902Z</time></trkpt><trkpt lat="43.2716533" lon="10.5614083"><ele>15.0</ele><time>2026-04-09T11:38:19.902Z</time></trkpt><trkpt lat="43.2716183" lon="10.561115"><ele>14.666666666666668</ele><time>2026-04-09T11:38:20.903Z</time></trkpt><trkpt lat="43.271575" lon="10.56082"><ele>14.333333333333334</ele><time>2026-04-09T11:38:21.902Z</time></trkpt><trkpt lat="43.2715383" lon="10.56052"><ele>14.0</ele><time>2026-04-09T11:38:22.903Z</time></trkpt><trkpt lat="43.2715" lon="10.56022"><ele>14.0</ele><time>2026-04-09T11:38:23.902Z</time></trkpt><trkpt lat="43.27146" lon="10.55992"><ele>14.0</ele><time>2026-04-09T11:38:24.903Z</time></trkpt><trkpt lat="43.2714233" lon="10.5596167"><ele>14.0</ele><time>2026-04-09T11:38:25.903Z</time></trkpt><trkpt lat="43.2713817" lon="10.559335"><ele>13.666666666666668</ele><time>2026-04-09T11:38:26.903Z</time></trkpt><trkpt lat="43.2713433" lon="10.5590683"><ele>13.333333333333332</ele><time>2026-04-09T11:38:27.902Z</time></trkpt><trkpt lat="43.271315" lon="10.5588333"><ele>13.0</ele><time>2026-04-09T11:38:28.902Z</time></trkpt><trkpt lat="43.271295" lon="10.55864"><ele>13.4</ele><time>2026-04-09T11:38:29.903Z</time></trkpt><trkpt lat="43.2712833" lon="10.5584717"><ele>13.8</ele><time>2026-04-09T11:38:30.902Z</time></trkpt><trkpt lat="43.2712633" lon="10.55833"><ele>14.2</ele><time>2026-04-09T11:38:31.902Z</time></trkpt><trkpt lat="43.2712517" lon="10.558195"><ele>14.6</ele><time>2026-04-09T11:38:32.903Z</time></trkpt><trkpt lat="43.27124" lon="10.558055"><ele>15.0</ele><time>2026-04-09T11:38:33.903Z</time></trkpt><trkpt lat="43.271225" lon="10.5579183"><ele>15.0</ele><time>2026-04-09T11:38:34.903Z</time></trkpt><trkpt lat="43.2712067" lon="10.557815"><ele>15.0</ele><time>2026-04-09T11:38:35.902Z</time></trkpt><trkpt lat="43.2711983" lon="10.5576767"><ele>15.0</ele><time>2026-04-09T11:38:37.902Z</time></trkpt><trkpt lat="43.271285" lon="10.5575967"><ele>15.0</ele><time>2026-04-09T11:38:40.903Z</time></trkpt><trkpt lat="43.2713683" lon="10.557585"><ele>15.0</ele><time>2026-04-09T11:38:41.903Z</time></trkpt><trkpt lat="43.2714767" lon="10.5575683"><ele>15.0</ele><time>2026-04-09T11:38:42.903Z</time></trkpt><trkpt lat="43.2715933" lon="10.5575533"><ele>15.0</ele><time>2026-04-09T11:38:43.903Z</time></trkpt><trkpt lat="43.2717167" lon="10.5575333"><ele>15.0</ele><time>2026-04-09T11:38:44.903Z</time></trkpt><trkpt lat="43.2718517" lon="10.55751"><ele>15.0</ele><time>2026-04-09T11:38:45.903Z</time></trkpt><trkpt lat="43.271975" lon="10.5574817"><ele>15.0</ele><time>2026-04-09T11:38:46.902Z</time></trkpt><trkpt lat="43.27208" lon="10.55746"><ele>15.0</ele><time>2026-04-09T11:38:47.902Z</time></trkpt><trkpt lat="43.27216" lon="10.5574433"><ele>15.0</ele><time>2026-04-09T11:38:48.903Z</time></trkpt><trkpt lat="43.2722467" lon="10.55738"><ele>15.0</ele><time>2026-04-09T11:38:50.902Z</time></trkpt><trkpt lat="43.27225" lon="10.5571817"><ele>15.0</ele><time>2026-04-09T11:38:52.903Z</time></trkpt><trkpt lat="43.27223" lon="10.557015"><ele>15.2</ele><time>2026-04-09T11:38:53.903Z</time></trkpt><trkpt lat="43.2722183" lon="10.5568533"><ele>15.4</ele><time>2026-04-09T11:38:54.903Z</time></trkpt><trkpt lat="43.2722083" lon="10.5567117"><ele>15.600000000000001</ele><time>2026-04-09T11:38:55.902Z</time></trkpt><trkpt lat="43.2722033" lon="10.5566133"><ele>15.8</ele><time>2026-04-09T11:38:56.903Z</time></trkpt><trkpt lat="43.27224" lon="10.55648"><ele>16.0</ele><time>2026-04-09T11:38:58.903Z</time></trkpt><trkpt lat="43.27239" lon="10.5564133"><ele>15.25</ele><time>2026-04-09T11:39:00.903Z</time></trkpt><trkpt lat="43.272515" lon="10.55638"><ele>14.5</ele><time>2026-04-09T11:39:01.902Z</time></trkpt><trkpt lat="43.272645" lon="10.5563417"><ele>13.75</ele><time>2026-04-09T11:39:02.903Z</time></trkpt><trkpt lat="43.2727733" lon="10.5562917"><ele>13.0</ele><time>2026-04-09T11:39:03.902Z</time></trkpt><trkpt lat="43.2728983" lon="10.5562417"><ele>13.0</ele><time>2026-04-09T11:39:04.903Z</time></trkpt><trkpt lat="43.2730117" lon="10.556205"><ele>13.0</ele><time>2026-04-09T11:39:05.903Z</time></trkpt><trkpt lat="43.273125" lon="10.5561617"><ele>13.0</ele><time>2026-04-09T11:39:06.902Z</time></trkpt><trkpt lat="43.2732433" lon="10.55612"><ele>13.0</ele><time>2026-04-09T11:39:07.903Z</time></trkpt><trkpt lat="43.273365" lon="10.55608"><ele>13.0</ele><time>2026-04-09T11:39:08.902Z</time></trkpt><trkpt lat="43.27348" lon="10.556045"><ele>13.0</ele><time>2026-04-09T11:39:09.903Z</time></trkpt><trkpt lat="43.2735917" lon="10.5560033"><ele>13.0</ele><time>2026-04-09T11:39:10.903Z</time></trkpt><trkpt lat="43.2736983" lon="10.5559617"><ele>13.0</ele><time>2026-04-09T11:39:11.903Z</time></trkpt><trkpt lat="43.273805" lon="10.5559217"><ele>13.0</ele><time>2026-04-09T11:39:12.903Z</time></trkpt><trkpt lat="43.2739083" lon="10.5558883"><ele>13.0</ele><time>2026-04-09T11:39:13.902Z</time></trkpt><trkpt lat="43.2740083" lon="10.5558467"><ele>13.0</ele><time>2026-04-09T11:39:14.903Z</time></trkpt><trkpt lat="43.27409" lon="10.5558133"><ele>13.0</ele><time>2026-04-09T11:39:15.903Z</time></trkpt><trkpt lat="43.2741583" lon="10.5557933"><ele>13.0</ele><time>2026-04-09T11:39:16.903Z</time></trkpt><trkpt lat="43.274255" lon="10.5557483"><ele>13.2</ele><time>2026-04-09T11:39:18.902Z</time></trkpt><trkpt lat="43.2742817" lon="10.555615"><ele>13.4</ele><time>2026-04-09T11:39:20.903Z</time></trkpt><trkpt lat="43.2742767" lon="10.5555017"><ele>13.599999999999998</ele><time>2026-04-09T11:39:21.902Z</time></trkpt><trkpt lat="43.274265" lon="10.5553683"><ele>13.799999999999999</ele><time>2026-04-09T11:39:22.902Z</time></trkpt><trkpt lat="43.274255" lon="10.55522"><ele>14.0</ele><time>2026-04-09T11:39:23.903Z</time></trkpt><trkpt lat="43.2742433" lon="10.5550533"><ele>13.5</ele><time>2026-04-09T11:39:24.903Z</time></trkpt><trkpt lat="43.27423" lon="10.55487"><ele>13.0</ele><time>2026-04-09T11:39:25.902Z</time></trkpt><trkpt lat="43.2742167" lon="10.5546733"><ele>12.5</ele><time>2026-04-09T11:39:26.902Z</time></trkpt><trkpt lat="43.2742" lon="10.5544733"><ele>12.0</ele><time>2026-04-09T11:39:27.903Z</time></trkpt><trkpt lat="43.27419" lon="10.554265"><ele>12.0</ele><time>2026-04-09T11:39:28.903Z</time></trkpt><trkpt lat="43.2741767" lon="10.5540583"><ele>12.0</ele><time>2026-04-09T11:39:29.902Z</time></trkpt><trkpt lat="43.274165" lon="10.5538567"><ele>12.0</ele><time>2026-04-09T11:39:30.903Z</time></trkpt><trkpt lat="43.274155" lon="10.5536533"><ele>12.0</ele><time>2026-04-09T11:39:31.903Z</time></trkpt><trkpt lat="43.2741417" lon="10.5534567"><ele>12.0</ele><time>2026-04-09T11:39:32.903Z</time></trkpt><trkpt lat="43.2741283" lon="10.5532617"><ele>12.0</ele><time>2026-04-09T11:39:33.903Z</time></trkpt><trkpt lat="43.2741167" lon="10.5530683"><ele>12.0</ele><time>2026-04-09T11:39:34.902Z</time></trkpt><trkpt lat="43.2741067" lon="10.55288"><ele>12.0</ele><time>2026-04-09T11:39:35.903Z</time></trkpt><trkpt lat="43.2740933" lon="10.5527117"><ele>12.0</ele><time>2026-04-09T11:39:36.903Z</time></trkpt><trkpt lat="43.274085" lon="10.5525483"><ele>12.0</ele><time>2026-04-09T11:39:37.903Z</time></trkpt><trkpt lat="43.2740783" lon="10.5523967"><ele>12.0</ele><time>2026-04-09T11:39:38.902Z</time></trkpt><trkpt lat="43.2740717" lon="10.5522583"><ele>12.0</ele><time>2026-04-09T11:39:39.903Z</time></trkpt><trkpt lat="43.2740633" lon="10.5521283"><ele>12.0</ele><time>2026-04-09T11:39:40.903Z</time></trkpt><trkpt lat="43.2740483" lon="10.5520183"><ele>12.0</ele><time>2026-04-09T11:39:41.903Z</time></trkpt><trkpt lat="43.2740267" lon="10.55192"><ele>12.0</ele><time>2026-04-09T11:39:42.902Z</time></trkpt><trkpt lat="43.2739867" lon="10.5518267"><ele>12.0</ele><time>2026-04-09T11:39:43.903Z</time></trkpt><trkpt lat="43.27395" lon="10.5517283"><ele>12.0</ele><time>2026-04-09T11:39:44.902Z</time></trkpt><trkpt lat="43.2739133" lon="10.5516233"><ele>12.0</ele><time>2026-04-09T11:39:45.903Z</time></trkpt><trkpt lat="43.2738733" lon="10.551505"><ele>12.0</ele><time>2026-04-09T11:39:46.902Z</time></trkpt><trkpt lat="43.2738333" lon="10.5513783"><ele>12.0</ele><time>2026-04-09T11:39:47.903Z</time></trkpt><trkpt lat="43.2737967" lon="10.5512467"><ele>12.0</ele><time>2026-04-09T11:39:48.903Z</time></trkpt><trkpt lat="43.2737583" lon="10.551115"><ele>12.0</ele><time>2026-04-09T11:39:49.903Z</time></trkpt><trkpt lat="43.2737233" lon="10.55098"><ele>12.0</ele><time>2026-04-09T11:39:50.902Z</time></trkpt><trkpt lat="43.2736867" lon="10.5508383"><ele>12.0</ele><time>2026-04-09T11:39:51.903Z</time></trkpt><trkpt lat="43.27365" lon="10.5506983"><ele>12.0</ele><time>2026-04-09T11:39:52.903Z</time></trkpt><trkpt lat="43.273615" lon="10.550565"><ele>12.0</ele><time>2026-04-09T11:39:53.902Z</time></trkpt><trkpt lat="43.2735783" lon="10.5504317"><ele>12.0</ele><time>2026-04-09T11:39:54.903Z</time></trkpt><trkpt lat="43.27354" lon="10.55029"><ele>12.0</ele><time>2026-04-09T11:39:55.903Z</time></trkpt><trkpt lat="43.27351" lon="10.5501483"><ele>12.0</ele><time>2026-04-09T11:39:56.903Z</time></trkpt><trkpt lat="43.2734817" lon="10.5500067"><ele>12.0</ele><time>2026-04-09T11:39:57.903Z</time></trkpt><trkpt lat="43.2734533" lon="10.5498683"><ele>12.0</ele><time>2026-04-09T11:39:58.903Z</time></trkpt><trkpt lat="43.2734317" lon="10.5497417"><ele>12.0</ele><time>2026-04-09T11:39:59.902Z</time></trkpt><trkpt lat="43.2734183" lon="10.5496283"><ele>12.0</ele><time>2026-04-09T11:40:00.903Z</time></trkpt><trkpt lat="43.2734067" lon="10.5495083"><ele>12.0</ele><time>2026-04-09T11:40:01.903Z</time></trkpt><trkpt lat="43.273395" lon="10.54939"><ele>12.0</ele><time>2026-04-09T11:40:02.903Z</time></trkpt><trkpt lat="43.2733917" lon="10.5492683"><ele>12.0</ele><time>2026-04-09T11:40:03.903Z</time></trkpt><trkpt lat="43.27338" lon="10.5491433"><ele>12.0</ele><time>2026-04-09T11:40:04.902Z</time></trkpt><trkpt lat="43.273365" lon="10.549005"><ele>12.0</ele><time>2026-04-09T11:40:05.902Z</time></trkpt><trkpt lat="43.2733517" lon="10.5488667"><ele>12.0</ele><time>2026-04-09T11:40:06.903Z</time></trkpt><trkpt lat="43.273335" lon="10.5487283"><ele>11.8</ele><time>2026-04-09T11:40:07.903Z</time></trkpt><trkpt lat="43.2733183" lon="10.5485933"><ele>11.6</ele><time>2026-04-09T11:40:08.903Z</time></trkpt><trkpt lat="43.2732983" lon="10.54847"><ele>11.4</ele><time>2026-04-09T11:40:09.903Z</time></trkpt><trkpt lat="43.2732817" lon="10.54834"><ele>11.200000000000001</ele><time>2026-04-09T11:40:10.903Z</time></trkpt><trkpt lat="43.273255" lon="10.5482217"><ele>11.0</ele><time>2026-04-09T11:40:11.902Z</time></trkpt><trkpt lat="43.2732267" lon="10.5481083"><ele>11.0</ele><time>2026-04-09T11:40:12.903Z</time></trkpt><trkpt lat="43.2732033" lon="10.5479967"><ele>11.0</ele><time>2026-04-09T11:40:13.903Z</time></trkpt><trkpt lat="43.2731883" lon="10.5478817"><ele>11.0</ele><time>2026-04-09T11:40:14.903Z</time></trkpt><trkpt lat="43.2731883" lon="10.5477567"><ele>11.0</ele><time>2026-04-09T11:40:15.903Z</time></trkpt><trkpt lat="43.2731917" lon="10.54762"><ele>11.0</ele><time>2026-04-09T11:40:16.903Z</time></trkpt><trkpt lat="43.2731933" lon="10.5474733"><ele>11.0</ele><time>2026-04-09T11:40:17.902Z</time></trkpt><trkpt lat="43.2731883" lon="10.5473267"><ele>11.0</ele><time>2026-04-09T11:40:18.903Z</time></trkpt><trkpt lat="43.2731717" lon="10.547175"><ele>11.0</ele><time>2026-04-09T11:40:19.903Z</time></trkpt><trkpt lat="43.27315" lon="10.5470167"><ele>11.0</ele><time>2026-04-09T11:40:20.903Z</time></trkpt><trkpt lat="43.273135" lon="10.5468433"><ele>10.75</ele><time>2026-04-09T11:40:21.902Z</time></trkpt><trkpt lat="43.2731167" lon="10.5466717"><ele>10.5</ele><time>2026-04-09T11:40:22.903Z</time></trkpt><trkpt lat="43.2731" lon="10.5465017"><ele>10.25</ele><time>2026-04-09T11:40:23.903Z</time></trkpt><trkpt lat="43.27308" lon="10.5463267"><ele>10.0</ele><time>2026-04-09T11:40:24.902Z</time></trkpt><trkpt lat="43.27307" lon="10.546155"><ele>10.0</ele><time>2026-04-09T11:40:25.903Z</time></trkpt><trkpt lat="43.2730533" lon="10.5459883"><ele>10.0</ele><time>2026-04-09T11:40:26.903Z</time></trkpt><trkpt lat="43.2730417" lon="10.54582"><ele>10.0</ele><time>2026-04-09T11:40:27.903Z</time></trkpt><trkpt lat="43.27302" lon="10.5456533"><ele>10.0</ele><time>2026-04-09T11:40:28.903Z</time></trkpt><trkpt lat="43.273" lon="10.545485"><ele>9.25</ele><time>2026-04-09T11:40:29.902Z</time></trkpt><trkpt lat="43.2729833" lon="10.5453183"><ele>8.5</ele><time>2026-04-09T11:40:30.902Z</time></trkpt><trkpt lat="43.27297" lon="10.545155"><ele>7.75</ele><time>2026-04-09T11:40:31.902Z</time></trkpt><trkpt lat="43.2729533" lon="10.5449767"><ele>7.0</ele><time>2026-04-09T11:40:32.902Z</time></trkpt><trkpt lat="43.27294" lon="10.5447917"><ele>7.0</ele><time>2026-04-09T11:40:33.903Z</time></trkpt><trkpt lat="43.2729183" lon="10.544605"><ele>7.0</ele><time>2026-04-09T11:40:34.903Z</time></trkpt><trkpt lat="43.2728967" lon="10.5444283"><ele>7.0</ele><time>2026-04-09T11:40:35.902Z</time></trkpt><trkpt lat="43.2728867" lon="10.5442633"><ele>7.0</ele><time>2026-04-09T11:40:36.903Z</time></trkpt><trkpt lat="43.2728683" lon="10.5441183"><ele>7.0</ele><time>2026-04-09T11:40:37.902Z</time></trkpt><trkpt lat="43.2728517" lon="10.543985"><ele>6.999999999999999</ele><time>2026-04-09T11:40:38.902Z</time></trkpt><trkpt lat="43.2728433" lon="10.5438483"><ele>6.999999999999999</ele><time>2026-04-09T11:40:39.902Z</time></trkpt><trkpt lat="43.2728283" lon="10.5437133"><ele>7.0</ele><time>2026-04-09T11:40:40.903Z</time></trkpt><trkpt lat="43.2728133" lon="10.5435667"><ele>7.0</ele><time>2026-04-09T11:40:41.903Z</time></trkpt><trkpt lat="43.2728017" lon="10.54342"><ele>6.833333333333334</ele><time>2026-04-09T11:40:42.903Z</time></trkpt><trkpt lat="43.2727917" lon="10.5432883"><ele>6.666666666666667</ele><time>2026-04-09T11:40:43.903Z</time></trkpt><trkpt lat="43.2727783" lon="10.5431667"><ele>6.5</ele><time>2026-04-09T11:40:44.902Z</time></trkpt><trkpt lat="43.27277" lon="10.5430567"><ele>6.333333333333334</ele><time>2026-04-09T11:40:45.903Z</time></trkpt><trkpt lat="43.27276" lon="10.5429567"><ele>6.166666666666667</ele><time>2026-04-09T11:40:46.903Z</time></trkpt><trkpt lat="43.2727517" lon="10.54286"><ele>6.0</ele><time>2026-04-09T11:40:47.903Z</time></trkpt><trkpt lat="43.2727433" lon="10.5427617"><ele>6.333333333333333</ele><time>2026-04-09T11:40:48.903Z</time></trkpt><trkpt lat="43.2727317" lon="10.5426633"><ele>6.666666666666666</ele><time>2026-04-09T11:40:49.903Z</time></trkpt><trkpt lat="43.272725" lon="10.54257"><ele>7.0</ele><time>2026-04-09T11:40:50.902Z</time></trkpt><trkpt lat="43.27271" lon="10.5424067"><ele>7.333333333333333</ele><time>2026-04-09T11:40:52.903Z</time></trkpt><trkpt lat="43.2726917" lon="10.5422533"><ele>7.666666666666666</ele><time>2026-04-09T11:40:54.902Z</time></trkpt><trkpt lat="43.2726967" lon="10.542155"><ele>8.0</ele><time>2026-04-09T11:40:57.903Z</time></trkpt><trkpt lat="43.2727817" lon="10.5420783"><ele>8.0</ele><time>2026-04-09T11:41:00.902Z</time></trkpt><trkpt lat="43.2728533" lon="10.5420583"><ele>8.0</ele><time>2026-04-09T11:41:01.902Z</time></trkpt><trkpt lat="43.2729483" lon="10.5420333"><ele>8.0</ele><time>2026-04-09T11:41:02.903Z</time></trkpt><trkpt lat="43.2730483" lon="10.5420017"><ele>8.0</ele><time>2026-04-09T11:41:03.903Z</time></trkpt><trkpt lat="43.2731783" lon="10.54197"><ele>8.0</ele><time>2026-04-09T11:41:04.903Z</time></trkpt><trkpt lat="43.2733083" lon="10.5419333"><ele>8.0</ele><time>2026-04-09T11:41:05.903Z</time></trkpt><trkpt lat="43.2734433" lon="10.5418833"><ele>8.0</ele><time>2026-04-09T11:41:06.902Z</time></trkpt><trkpt lat="43.2735783" lon="10.5418433"><ele>8.0</ele><time>2026-04-09T11:41:07.902Z</time></trkpt><trkpt lat="43.2737233" lon="10.5417917"><ele>8.0</ele><time>2026-04-09T11:41:08.903Z</time></trkpt><trkpt lat="43.273875" lon="10.5417383"><ele>8.0</ele><time>2026-04-09T11:41:09.902Z</time></trkpt><trkpt lat="43.27403" lon="10.54169"><ele>8.0</ele><time>2026-04-09T11:41:10.902Z</time></trkpt><trkpt lat="43.2741917" lon="10.54164"><ele>8.0</ele><time>2026-04-09T11:41:11.902Z</time></trkpt><trkpt lat="43.2743517" lon="10.5415867"><ele>8.0</ele><time>2026-04-09T11:41:12.902Z</time></trkpt><trkpt lat="43.2745167" lon="10.5415333"><ele>8.0</ele><time>2026-04-09T11:41:13.903Z</time></trkpt><trkpt lat="43.2746767" lon="10.5414783"><ele>8.0</ele><time>2026-04-09T11:41:14.902Z</time></trkpt><trkpt lat="43.27485" lon="10.5414217"><ele>8.333333333333332</ele><time>2026-04-09T11:41:15.902Z</time></trkpt><trkpt lat="43.2750233" lon="10.5413717"><ele>8.666666666666666</ele><time>2026-04-09T11:41:16.902Z</time></trkpt><trkpt lat="43.2751917" lon="10.5413083"><ele>9.0</ele><time>2026-04-09T11:41:17.903Z</time></trkpt><trkpt lat="43.2753633" lon="10.5412583"><ele>8.333333333333334</ele><time>2026-04-09T11:41:18.903Z</time></trkpt><trkpt lat="43.2755433" lon="10.5411967"><ele>7.666666666666667</ele><time>2026-04-09T11:41:19.902Z</time></trkpt><trkpt lat="43.2757317" lon="10.541135"><ele>7.0</ele><time>2026-04-09T11:41:20.903Z</time></trkpt><trkpt lat="43.275925" lon="10.5410717"><ele>6.666666666666667</ele><time>2026-04-09T11:41:21.902Z</time></trkpt><trkpt lat="43.2761133" lon="10.5409983"><ele>6.333333333333334</ele><time>2026-04-09T11:41:22.902Z</time></trkpt><trkpt lat="43.2763183" lon="10.54094"><ele>6.0</ele><time>2026-04-09T11:41:23.902Z</time></trkpt><trkpt lat="43.2765033" lon="10.5408783"><ele>5.666666666666667</ele><time>2026-04-09T11:41:24.902Z</time></trkpt><trkpt lat="43.2766833" lon="10.5408267"><ele>5.333333333333334</ele><time>2026-04-09T11:41:25.902Z</time></trkpt><trkpt lat="43.2768433" lon="10.5407733"><ele>5.0</ele><time>2026-04-09T11:41:26.903Z</time></trkpt><trkpt lat="43.2770117" lon="10.5407283"><ele>5.0</ele><time>2026-04-09T11:41:27.903Z</time></trkpt><trkpt lat="43.27718" lon="10.54068"><ele>5.0</ele><time>2026-04-09T11:41:28.903Z</time></trkpt><trkpt lat="43.27735" lon="10.5406333"><ele>5.0</ele><time>2026-04-09T11:41:29.903Z</time></trkpt><trkpt lat="43.2775217" lon="10.5405817"><ele>5.333333333333334</ele><time>2026-04-09T11:41:30.903Z</time></trkpt><trkpt lat="43.2777017" lon="10.54053"><ele>5.666666666666667</ele><time>2026-04-09T11:41:31.903Z</time></trkpt><trkpt lat="43.2778933" lon="10.5404683"><ele>6.0</ele><time>2026-04-09T11:41:32.902Z</time></trkpt><trkpt lat="43.278085" lon="10.540405"><ele>6.333333333333334</ele><time>2026-04-09T11:41:33.903Z</time></trkpt><trkpt lat="43.2782767" lon="10.5403283"><ele>6.666666666666667</ele><time>2026-04-09T11:41:34.902Z</time></trkpt><trkpt lat="43.2784683" lon="10.540225"><ele>7.0</ele><time>2026-04-09T11:41:35.903Z</time></trkpt><trkpt lat="43.27867" lon="10.5400767"><ele>7.0</ele><time>2026-04-09T11:41:36.903Z</time></trkpt><trkpt lat="43.2788633" lon="10.5399483"><ele>7.0</ele><time>2026-04-09T11:41:37.903Z</time></trkpt><trkpt lat="43.2790467" lon="10.53981"><ele>7.0</ele><time>2026-04-09T11:41:38.902Z</time></trkpt><trkpt lat="43.27921" lon="10.5396617"><ele>7.0</ele><time>2026-04-09T11:41:39.903Z</time></trkpt><trkpt lat="43.2793883" lon="10.5395067"><ele>7.0</ele><time>2026-04-09T11:41:40.902Z</time></trkpt><trkpt lat="43.279565" lon="10.5393583"><ele>7.0</ele><time>2026-04-09T11:41:41.902Z</time></trkpt><trkpt lat="43.2797433" lon="10.539195"><ele>6.666666666666667</ele><time>2026-04-09T11:41:42.903Z</time></trkpt><trkpt lat="43.279925" lon="10.5390267"><ele>6.333333333333334</ele><time>2026-04-09T11:41:43.902Z</time></trkpt><trkpt lat="43.280105" lon="10.5388533"><ele>6.0</ele><time>2026-04-09T11:41:44.903Z</time></trkpt><trkpt lat="43.2802833" lon="10.5386733"><ele>5.5</ele><time>2026-04-09T11:41:45.903Z</time></trkpt><trkpt lat="43.28045" lon="10.5384717"><ele>5.0</ele><time>2026-04-09T11:41:46.903Z</time></trkpt><trkpt lat="43.2806067" lon="10.5382417"><ele>5.0</ele><time>2026-04-09T11:41:47.903Z</time></trkpt><trkpt lat="43.2807467" lon="10.5380017"><ele>5.0</ele><time>2026-04-09T11:41:48.902Z</time></trkpt><trkpt lat="43.280875" lon="10.5377533"><ele>5.0</ele><time>2026-04-09T11:41:49.903Z</time></trkpt><trkpt lat="43.2810083" lon="10.5375"><ele>5.0</ele><time>2026-04-09T11:41:50.903Z</time></trkpt><trkpt lat="43.2811483" lon="10.5372567"><ele>5.0</ele><time>2026-04-09T11:41:51.903Z</time></trkpt><trkpt lat="43.2812967" lon="10.5370167"><ele>5.0</ele><time>2026-04-09T11:41:52.903Z</time></trkpt><trkpt lat="43.2814517" lon="10.5367967"><ele>5.0</ele><time>2026-04-09T11:41:53.903Z</time></trkpt><trkpt lat="43.2816117" lon="10.536565"><ele>5.0</ele><time>2026-04-09T11:41:54.902Z</time></trkpt><trkpt lat="43.281775" lon="10.5363367"><ele>5.0</ele><time>2026-04-09T11:41:55.903Z</time></trkpt><trkpt lat="43.2819383" lon="10.53612"><ele>5.0</ele><time>2026-04-09T11:41:56.903Z</time></trkpt><trkpt lat="43.2821" lon="10.5359017"><ele>5.0</ele><time>2026-04-09T11:41:57.903Z</time></trkpt><trkpt lat="43.2822667" lon="10.5356733"><ele>5.0</ele><time>2026-04-09T11:41:58.903Z</time></trkpt><trkpt lat="43.2824317" lon="10.5354483"><ele>5.0</ele><time>2026-04-09T11:41:59.902Z</time></trkpt><trkpt lat="43.2825933" lon="10.5352233"><ele>4.5</ele><time>2026-04-09T11:42:00.902Z</time></trkpt><trkpt lat="43.2827617" lon="10.5349817"><ele>4.0</ele><time>2026-04-09T11:42:01.902Z</time></trkpt><trkpt lat="43.282925" lon="10.53476"><ele>4.0</ele><time>2026-04-09T11:42:02.903Z</time></trkpt><trkpt lat="43.283085" lon="10.5345367"><ele>4.0</ele><time>2026-04-09T11:42:03.903Z</time></trkpt><trkpt lat="43.2832533" lon="10.53431"><ele>4.5</ele><time>2026-04-09T11:42:04.903Z</time></trkpt><trkpt lat="43.283425" lon="10.5340817"><ele>5.0</ele><time>2026-04-09T11:42:05.902Z</time></trkpt><trkpt lat="43.2835983" lon="10.5338567"><ele>4.5</ele><time>2026-04-09T11:42:06.902Z</time></trkpt><trkpt lat="43.2837733" lon="10.5336433"><ele>4.0</ele><time>2026-04-09T11:42:07.903Z</time></trkpt><trkpt lat="43.2839533" lon="10.5334417"><ele>4.666666666666666</ele><time>2026-04-09T11:42:08.903Z</time></trkpt><trkpt lat="43.2841167" lon="10.5332483"><ele>5.333333333333333</ele><time>2026-04-09T11:42:09.903Z</time></trkpt><trkpt lat="43.2842617" lon="10.5330767"><ele>6.0</ele><time>2026-04-09T11:42:10.903Z</time></trkpt><trkpt lat="43.2844133" lon="10.53291"><ele>6.333333333333334</ele><time>2026-04-09T11:42:11.903Z</time></trkpt><trkpt lat="43.2845533" lon="10.532755"><ele>6.666666666666667</ele><time>2026-04-09T11:42:12.903Z</time></trkpt><trkpt lat="43.2846767" lon="10.532595"><ele>7.0</ele><time>2026-04-09T11:42:13.902Z</time></trkpt><trkpt lat="43.2847967" lon="10.5324283"><ele>6.333333333333334</ele><time>2026-04-09T11:42:14.902Z</time></trkpt><trkpt lat="43.2849017" lon="10.5322567"><ele>5.666666666666667</ele><time>2026-04-09T11:42:15.902Z</time></trkpt><trkpt lat="43.2850067" lon="10.5320817"><ele>5.0</ele><time>2026-04-09T11:42:16.902Z</time></trkpt><trkpt lat="43.285105" lon="10.531895"><ele>5.0</ele><time>2026-04-09T11:42:17.903Z</time></trkpt><trkpt lat="43.2851983" lon="10.5316933"><ele>5.0</ele><time>2026-04-09T11:42:18.902Z</time></trkpt><trkpt lat="43.285305" lon="10.5315017"><ele>5.0</ele><time>2026-04-09T11:42:19.902Z</time></trkpt><trkpt lat="43.2854217" lon="10.53132"><ele>4.333333333333334</ele><time>2026-04-09T11:42:20.902Z</time></trkpt><trkpt lat="43.2855433" lon="10.5311417"><ele>3.666666666666667</ele><time>2026-04-09T11:42:21.902Z</time></trkpt><trkpt lat="43.285675" lon="10.5309883"><ele>3.0</ele><time>2026-04-09T11:42:22.903Z</time></trkpt><trkpt lat="43.28582" lon="10.53086"><ele>4.666666666666666</ele><time>2026-04-09T11:42:23.903Z</time></trkpt><trkpt lat="43.2859817" lon="10.5307433"><ele>6.333333333333333</ele><time>2026-04-09T11:42:24.903Z</time></trkpt><trkpt lat="43.2861567" lon="10.5306433"><ele>8.0</ele><time>2026-04-09T11:42:25.903Z</time></trkpt><trkpt lat="43.2863267" lon="10.5305567"><ele>7.666666666666666</ele><time>2026-04-09T11:42:26.902Z</time></trkpt><trkpt lat="43.286495" lon="10.5304633"><ele>7.333333333333334</ele><time>2026-04-09T11:42:27.902Z</time></trkpt><trkpt lat="43.2866483" lon="10.5303733"><ele>7.0</ele><time>2026-04-09T11:42:28.902Z</time></trkpt><trkpt lat="43.2868017" lon="10.5302917"><ele>7.0</ele><time>2026-04-09T11:42:29.903Z</time></trkpt><trkpt lat="43.2869467" lon="10.5302233"><ele>7.0</ele><time>2026-04-09T11:42:30.903Z</time></trkpt><trkpt lat="43.287095" lon="10.5301483"><ele>7.0</ele><time>2026-04-09T11:42:31.902Z</time></trkpt><trkpt lat="43.287245" lon="10.5300683"><ele>7.333333333333334</ele><time>2026-04-09T11:42:32.903Z</time></trkpt><trkpt lat="43.2873983" lon="10.529985"><ele>7.666666666666666</ele><time>2026-04-09T11:42:33.902Z</time></trkpt><trkpt lat="43.2875517" lon="10.5299083"><ele>8.0</ele><time>2026-04-09T11:42:34.903Z</time></trkpt><trkpt lat="43.2876917" lon="10.5298317"><ele>8.0</ele><time>2026-04-09T11:42:35.903Z</time></trkpt><trkpt lat="43.28783" lon="10.529765"><ele>8.0</ele><time>2026-04-09T11:42:36.903Z</time></trkpt><trkpt lat="43.287965" lon="10.5297017"><ele>8.0</ele><time>2026-04-09T11:42:37.903Z</time></trkpt><trkpt lat="43.2880883" lon="10.52963"><ele>8.0</ele><time>2026-04-09T11:42:38.903Z</time></trkpt><trkpt lat="43.28822" lon="10.52956"><ele>7.5</ele><time>2026-04-09T11:42:39.903Z</time></trkpt><trkpt lat="43.2883567" lon="10.529495"><ele>7.0</ele><time>2026-04-09T11:42:40.903Z</time></trkpt><trkpt lat="43.2884883" lon="10.5294267"><ele>6.5</ele><time>2026-04-09T11:42:41.903Z</time></trkpt><trkpt lat="43.2886283" lon="10.529345"><ele>6.0</ele><time>2026-04-09T11:42:42.903Z</time></trkpt><trkpt lat="43.2887683" lon="10.5292683"><ele>6.0</ele><time>2026-04-09T11:42:43.903Z</time></trkpt><trkpt lat="43.288915" lon="10.52919"><ele>6.0</ele><time>2026-04-09T11:42:44.903Z</time></trkpt><trkpt lat="43.2890483" lon="10.52912"><ele>6.0</ele><time>2026-04-09T11:42:45.903Z</time></trkpt><trkpt lat="43.2891867" lon="10.5290433"><ele>6.0</ele><time>2026-04-09T11:42:46.903Z</time></trkpt><trkpt lat="43.2893" lon="10.52898"><ele>6.0</ele><time>2026-04-09T11:42:47.903Z</time></trkpt><trkpt lat="43.2894217" lon="10.5289267"><ele>6.0</ele><time>2026-04-09T11:42:48.903Z</time></trkpt><trkpt lat="43.2895383" lon="10.5288683"><ele>6.0</ele><time>2026-04-09T11:42:49.902Z</time></trkpt><trkpt lat="43.2896533" lon="10.528815"><ele>6.0</ele><time>2026-04-09T11:42:50.903Z</time></trkpt><trkpt lat="43.289775" lon="10.5287517"><ele>6.5</ele><time>2026-04-09T11:42:51.903Z</time></trkpt><trkpt lat="43.2898967" lon="10.5286883"><ele>7.0</ele><time>2026-04-09T11:42:52.903Z</time></trkpt><trkpt lat="43.2900233" lon="10.528625"><ele>7.5</ele><time>2026-04-09T11:42:53.902Z</time></trkpt><trkpt lat="43.2901433" lon="10.5285583"><ele>8.0</ele><time>2026-04-09T11:42:54.902Z</time></trkpt><trkpt lat="43.2902683" lon="10.5284967"><ele>8.0</ele><time>2026-04-09T11:42:55.903Z</time></trkpt><trkpt lat="43.290385" lon="10.528435"><ele>8.0</ele><time>2026-04-09T11:42:56.903Z</time></trkpt><trkpt lat="43.290505" lon="10.528375"><ele>8.0</ele><time>2026-04-09T11:42:57.903Z</time></trkpt><trkpt lat="43.290625" lon="10.5283117"><ele>8.0</ele><time>2026-04-09T11:42:58.903Z</time></trkpt><trkpt lat="43.29074" lon="10.528245"><ele>8.25</ele><time>2026-04-09T11:42:59.903Z</time></trkpt><trkpt lat="43.29087" lon="10.52818"><ele>8.5</ele><time>2026-04-09T11:43:00.903Z</time></trkpt><trkpt lat="43.291" lon="10.5281217"><ele>8.75</ele><time>2026-04-09T11:43:01.902Z</time></trkpt><trkpt lat="43.2911217" lon="10.5280483"><ele>9.0</ele><time>2026-04-09T11:43:02.903Z</time></trkpt><trkpt lat="43.2912567" lon="10.5279683"><ele>8.75</ele><time>2026-04-09T11:43:03.903Z</time></trkpt><trkpt lat="43.2913883" lon="10.5278833"><ele>8.5</ele><time>2026-04-09T11:43:04.903Z</time></trkpt><trkpt lat="43.2915283" lon="10.527815"><ele>8.25</ele><time>2026-04-09T11:43:05.903Z</time></trkpt><trkpt lat="43.2916617" lon="10.52775"><ele>8.0</ele><time>2026-04-09T11:43:06.903Z</time></trkpt><trkpt lat="43.2917983" lon="10.5276783"><ele>8.5</ele><time>2026-04-09T11:43:07.902Z</time></trkpt><trkpt lat="43.291925" lon="10.5276167"><ele>9.0</ele><time>2026-04-09T11:43:08.903Z</time></trkpt><trkpt lat="43.2920483" lon="10.52754"><ele>9.5</ele><time>2026-04-09T11:43:09.903Z</time></trkpt><trkpt lat="43.2921867" lon="10.52749"><ele>10.0</ele><time>2026-04-09T11:43:10.903Z</time></trkpt><trkpt lat="43.29232" lon="10.527415"><ele>10.0</ele><time>2026-04-09T11:43:11.902Z</time></trkpt><trkpt lat="43.2924583" lon="10.5273417"><ele>10.0</ele><time>2026-04-09T11:43:12.903Z</time></trkpt><trkpt lat="43.2925867" lon="10.5272717"><ele>10.0</ele><time>2026-04-09T11:43:13.903Z</time></trkpt><trkpt lat="43.2927217" lon="10.5271967"><ele>10.0</ele><time>2026-04-09T11:43:14.903Z</time></trkpt><trkpt lat="43.29286" lon="10.527125"><ele>9.75</ele><time>2026-04-09T11:43:15.903Z</time></trkpt><trkpt lat="43.2929983" lon="10.5270517"><ele>9.5</ele><time>2026-04-09T11:43:16.903Z</time></trkpt><trkpt lat="43.2931317" lon="10.5269783"><ele>9.25</ele><time>2026-04-09T11:43:17.903Z</time></trkpt><trkpt lat="43.29327" lon="10.526915"><ele>9.0</ele><time>2026-04-09T11:43:18.903Z</time></trkpt><trkpt lat="43.2933983" lon="10.526845"><ele>9.0</ele><time>2026-04-09T11:43:19.903Z</time></trkpt><trkpt lat="43.293535" lon="10.5267767"><ele>9.0</ele><time>2026-04-09T11:43:20.902Z</time></trkpt><trkpt lat="43.2936633" lon="10.5266983"><ele>9.0</ele><time>2026-04-09T11:43:21.902Z</time></trkpt><trkpt lat="43.2938017" lon="10.52663"><ele>9.0</ele><time>2026-04-09T11:43:22.903Z</time></trkpt><trkpt lat="43.2939317" lon="10.52656"><ele>9.25</ele><time>2026-04-09T11:43:23.903Z</time></trkpt><trkpt lat="43.294065" lon="10.52649"><ele>9.5</ele><time>2026-04-09T11:43:24.902Z</time></trkpt><trkpt lat="43.2941883" lon="10.5264233"><ele>9.75</ele><time>2026-04-09T11:43:25.903Z</time></trkpt><trkpt lat="43.2943067" lon="10.5263617"><ele>10.0</ele><time>2026-04-09T11:43:26.903Z</time></trkpt><trkpt lat="43.294415" lon="10.526295"><ele>10.0</ele><time>2026-04-09T11:43:27.902Z</time></trkpt><trkpt lat="43.2945217" lon="10.5262367"><ele>10.0</ele><time>2026-04-09T11:43:28.902Z</time></trkpt><trkpt lat="43.2946333" lon="10.5261817"><ele>10.0</ele><time>2026-04-09T11:43:29.903Z</time></trkpt><trkpt lat="43.294745" lon="10.5261333"><ele>10.0</ele><time>2026-04-09T11:43:30.902Z</time></trkpt><trkpt lat="43.294845" lon="10.5260833"><ele>10.2</ele><time>2026-04-09T11:43:31.903Z</time></trkpt><trkpt lat="43.2949383" lon="10.5260317"><ele>10.4</ele><time>2026-04-09T11:43:32.903Z</time></trkpt><trkpt lat="43.2950333" lon="10.525995"><ele>10.600000000000001</ele><time>2026-04-09T11:43:33.903Z</time></trkpt><trkpt lat="43.295125" lon="10.5259617"><ele>10.8</ele><time>2026-04-09T11:43:34.902Z</time></trkpt><trkpt lat="43.2952167" lon="10.5259333"><ele>11.0</ele><time>2026-04-09T11:43:35.903Z</time></trkpt><trkpt lat="43.295305" lon="10.5259083"><ele>11.0</ele><time>2026-04-09T11:43:36.903Z</time></trkpt><trkpt lat="43.295405" lon="10.5258783"><ele>11.0</ele><time>2026-04-09T11:43:37.903Z</time></trkpt><trkpt lat="43.2954867" lon="10.5258917"><ele>11.0</ele><time>2026-04-09T11:43:38.903Z</time></trkpt><trkpt lat="43.295555" lon="10.5258833"><ele>11.0</ele><time>2026-04-09T11:43:39.903Z</time></trkpt><trkpt lat="43.2956233" lon="10.5258317"><ele>11.0</ele><time>2026-04-09T11:43:40.902Z</time></trkpt><trkpt lat="43.29567" lon="10.5257417"><ele>11.0</ele><time>2026-04-09T11:43:41.903Z</time></trkpt><trkpt lat="43.29573" lon="10.5256533"><ele>11.0</ele><time>2026-04-09T11:43:42.903Z</time></trkpt><trkpt lat="43.2958117" lon="10.52557"><ele>11.0</ele><time>2026-04-09T11:43:43.903Z</time></trkpt><trkpt lat="43.2959117" lon="10.5255"><ele>11.0</ele><time>2026-04-09T11:43:44.902Z</time></trkpt><trkpt lat="43.2960117" lon="10.52544"><ele>11.0</ele><time>2026-04-09T11:43:45.902Z</time></trkpt><trkpt lat="43.2961217" lon="10.525385"><ele>11.0</ele><time>2026-04-09T11:43:46.903Z</time></trkpt><trkpt lat="43.2962383" lon="10.52533"><ele>11.0</ele><time>2026-04-09T11:43:47.902Z</time></trkpt><trkpt lat="43.2963617" lon="10.52527"><ele>11.0</ele><time>2026-04-09T11:43:48.902Z</time></trkpt><trkpt lat="43.2964867" lon="10.52521"><ele>11.0</ele><time>2026-04-09T11:43:49.902Z</time></trkpt><trkpt lat="43.2966117" lon="10.5251483"><ele>11.0</ele><time>2026-04-09T11:43:50.903Z</time></trkpt><trkpt lat="43.29673" lon="10.52508"><ele>11.0</ele><time>2026-04-09T11:43:51.903Z</time></trkpt><trkpt lat="43.29684" lon="10.5250183"><ele>11.0</ele><time>2026-04-09T11:43:52.902Z</time></trkpt><trkpt lat="43.2969483" lon="10.524965"><ele>11.0</ele><time>2026-04-09T11:43:53.903Z</time></trkpt><trkpt lat="43.297045" lon="10.5249083"><ele>11.0</ele><time>2026-04-09T11:43:54.903Z</time></trkpt><trkpt lat="43.2971517" lon="10.5248583"><ele>10.8</ele><time>2026-04-09T11:43:55.903Z</time></trkpt><trkpt lat="43.2972567" lon="10.5248117"><ele>10.600000000000001</ele><time>2026-04-09T11:43:56.903Z</time></trkpt><trkpt lat="43.2973683" lon="10.5247633"><ele>10.4</ele><time>2026-04-09T11:43:57.902Z</time></trkpt><trkpt lat="43.2974733" lon="10.5247117"><ele>10.2</ele><time>2026-04-09T11:43:58.903Z</time></trkpt><trkpt lat="43.297575" lon="10.5246617"><ele>10.0</ele><time>2026-04-09T11:43:59.903Z</time></trkpt><trkpt lat="43.2976717" lon="10.5246"><ele>9.8</ele><time>2026-04-09T11:44:00.902Z</time></trkpt><trkpt lat="43.2977617" lon="10.5245383"><ele>9.6</ele><time>2026-04-09T11:44:01.902Z</time></trkpt><trkpt lat="43.29784" lon="10.5244783"><ele>9.4</ele><time>2026-04-09T11:44:02.902Z</time></trkpt><trkpt lat="43.2979267" lon="10.5244233"><ele>9.2</ele><time>2026-04-09T11:44:03.902Z</time></trkpt><trkpt lat="43.2980283" lon="10.524375"><ele>9.0</ele><time>2026-04-09T11:44:04.903Z</time></trkpt><trkpt lat="43.2981383" lon="10.5243217"><ele>8.25</ele><time>2026-04-09T11:44:05.903Z</time></trkpt><trkpt lat="43.2982567" lon="10.52427"><ele>7.5</ele><time>2026-04-09T11:44:06.903Z</time></trkpt><trkpt lat="43.2983917" lon="10.5242067"><ele>6.75</ele><time>2026-04-09T11:44:07.902Z</time></trkpt><trkpt lat="43.2985333" lon="10.524135"><ele>6.0</ele><time>2026-04-09T11:44:08.903Z</time></trkpt><trkpt lat="43.2986783" lon="10.5240633"><ele>6.0</ele><time>2026-04-09T11:44:09.903Z</time></trkpt><trkpt lat="43.29884" lon="10.5239783"><ele>6.0</ele><time>2026-04-09T11:44:10.902Z</time></trkpt><trkpt lat="43.2990083" lon="10.5238883"><ele>6.0</ele><time>2026-04-09T11:44:11.902Z</time></trkpt><trkpt lat="43.2991767" lon="10.5238067"><ele>6.0</ele><time>2026-04-09T11:44:12.903Z</time></trkpt><trkpt lat="43.2993333" lon="10.5237317"><ele>6.0</ele><time>2026-04-09T11:44:13.902Z</time></trkpt><trkpt lat="43.2994817" lon="10.5236533"><ele>6.0</ele><time>2026-04-09T11:44:14.903Z</time></trkpt><trkpt lat="43.2996183" lon="10.5235867"><ele>6.0</ele><time>2026-04-09T11:44:15.902Z</time></trkpt><trkpt lat="43.2997383" lon="10.5235167"><ele>6.0</ele><time>2026-04-09T11:44:16.903Z</time></trkpt><trkpt lat="43.2998517" lon="10.5234533"><ele>6.0</ele><time>2026-04-09T11:44:17.903Z</time></trkpt><trkpt lat="43.299965" lon="10.52339"><ele>6.0</ele><time>2026-04-09T11:44:18.903Z</time></trkpt><trkpt lat="43.3000783" lon="10.523325"><ele>6.25</ele><time>2026-04-09T11:44:19.902Z</time></trkpt><trkpt lat="43.300195" lon="10.5232633"><ele>6.5</ele><time>2026-04-09T11:44:20.903Z</time></trkpt><trkpt lat="43.3003133" lon="10.5231983"><ele>6.75</ele><time>2026-04-09T11:44:21.902Z</time></trkpt><trkpt lat="43.3004333" lon="10.5231333"><ele>7.0</ele><time>2026-04-09T11:44:22.903Z</time></trkpt><trkpt lat="43.3005533" lon="10.52307"><ele>7.0</ele><time>2026-04-09T11:44:23.902Z</time></trkpt><trkpt lat="43.300675" lon="10.523005"><ele>7.0</ele><time>2026-04-09T11:44:24.903Z</time></trkpt><trkpt lat="43.300795" lon="10.522945"><ele>7.0</ele><time>2026-04-09T11:44:25.903Z</time></trkpt><trkpt lat="43.3009" lon="10.5228917"><ele>7.0</ele><time>2026-04-09T11:44:26.903Z</time></trkpt><trkpt lat="43.3010167" lon="10.5228433"><ele>7.0</ele><time>2026-04-09T11:44:27.903Z</time></trkpt><trkpt lat="43.3011183" lon="10.5227867"><ele>6.999999999999999</ele><time>2026-04-09T11:44:28.903Z</time></trkpt><trkpt lat="43.3012233" lon="10.5227333"><ele>6.999999999999999</ele><time>2026-04-09T11:44:29.903Z</time></trkpt><trkpt lat="43.301315" lon="10.5226783"><ele>7.0</ele><time>2026-04-09T11:44:30.903Z</time></trkpt><trkpt lat="43.3014017" lon="10.5226333"><ele>7.0</ele><time>2026-04-09T11:44:31.903Z</time></trkpt><trkpt lat="43.3014883" lon="10.5225817"><ele>7.8</ele><time>2026-04-09T11:44:32.903Z</time></trkpt><trkpt lat="43.301575" lon="10.5225367"><ele>8.6</ele><time>2026-04-09T11:44:33.902Z</time></trkpt><trkpt lat="43.3016617" lon="10.5224933"><ele>9.4</ele><time>2026-04-09T11:44:34.903Z</time></trkpt><trkpt lat="43.30174" lon="10.522455"><ele>10.200000000000001</ele><time>2026-04-09T11:44:35.902Z</time></trkpt><trkpt lat="43.3018117" lon="10.52242"><ele>11.0</ele><time>2026-04-09T11:44:36.902Z</time></trkpt><trkpt lat="43.3019183" lon="10.52237"><ele>11.0</ele><time>2026-04-09T11:44:38.903Z</time></trkpt><trkpt lat="43.301995" lon="10.522355"><ele>11.0</ele><time>2026-04-09T11:44:40.903Z</time></trkpt><trkpt lat="43.3020583" lon="10.52231"><ele>11.0</ele><time>2026-04-09T11:44:42.903Z</time></trkpt><trkpt lat="43.3020383" lon="10.5221833"><ele>11.0</ele><time>2026-04-09T11:44:45.902Z</time></trkpt><trkpt lat="43.3020117" lon="10.5221033"><ele>11.0</ele><time>2026-04-09T11:44:46.903Z</time></trkpt><trkpt lat="43.3019783" lon="10.52201"><ele>11.0</ele><time>2026-04-09T11:44:47.902Z</time></trkpt><trkpt lat="43.3019467" lon="10.5218833"><ele>10.75</ele><time>2026-04-09T11:44:48.902Z</time></trkpt><trkpt lat="43.301905" lon="10.52173"><ele>10.5</ele><time>2026-04-09T11:44:49.903Z</time></trkpt><trkpt lat="43.301865" lon="10.5215767"><ele>10.25</ele><time>2026-04-09T11:44:50.903Z</time></trkpt><trkpt lat="43.3018233" lon="10.5214333"><ele>10.0</ele><time>2026-04-09T11:44:51.903Z</time></trkpt><trkpt lat="43.3017867" lon="10.5213017"><ele>9.8</ele><time>2026-04-09T11:44:52.902Z</time></trkpt><trkpt lat="43.3017617" lon="10.5211933"><ele>9.6</ele><time>2026-04-09T11:44:53.903Z</time></trkpt><trkpt lat="43.3017383" lon="10.5210417"><ele>9.4</ele><time>2026-04-09T11:44:55.903Z</time></trkpt><trkpt lat="43.3017883" lon="10.5209433"><ele>9.2</ele><time>2026-04-09T11:44:57.903Z</time></trkpt><trkpt lat="43.3018567" lon="10.5209067"><ele>9.0</ele><time>2026-04-09T11:44:58.903Z</time></trkpt><trkpt lat="43.3019467" lon="10.5208667"><ele>9.0</ele><time>2026-04-09T11:44:59.903Z</time></trkpt><trkpt lat="43.3020583" lon="10.5208083"><ele>9.0</ele><time>2026-04-09T11:45:00.903Z</time></trkpt><trkpt lat="43.3021783" lon="10.5207433"><ele>9.0</ele><time>2026-04-09T11:45:01.902Z</time></trkpt><trkpt lat="43.3022967" lon="10.5206817"><ele>9.0</ele><time>2026-04-09T11:45:02.903Z</time></trkpt><trkpt lat="43.3024017" lon="10.520625"><ele>9.2</ele><time>2026-04-09T11:45:03.902Z</time></trkpt><trkpt lat="43.3025017" lon="10.520575"><ele>9.4</ele><time>2026-04-09T11:45:04.903Z</time></trkpt><trkpt lat="43.3025917" lon="10.520525"><ele>9.6</ele><time>2026-04-09T11:45:05.902Z</time></trkpt><trkpt lat="43.3026667" lon="10.5204833"><ele>9.8</ele><time>2026-04-09T11:45:06.902Z</time></trkpt><trkpt lat="43.3027217" lon="10.5204333"><ele>10.0</ele><time>2026-04-09T11:45:07.903Z</time></trkpt><trkpt lat="43.3027917" lon="10.520315"><ele>10.0</ele><time>2026-04-09T11:45:09.903Z</time></trkpt><trkpt lat="43.3027683" lon="10.5201767"><ele>10.0</ele><time>2026-04-09T11:45:11.903Z</time></trkpt><trkpt lat="43.3027483" lon="10.52008"><ele>10.0</ele><time>2026-04-09T11:45:14.902Z</time></trkpt><trkpt lat="43.3027283" lon="10.5199783"><ele>10.0</ele><time>2026-04-09T11:45:18.903Z</time></trkpt><trkpt lat="43.3026917" lon="10.5199067"><ele>10.0</ele><time>2026-04-09T11:45:22.903Z</time></trkpt></trkseg></trk></gpx>